<?xml version="1.0" encoding="UTF-8" standalone="no" ?>
<gpx xmlns="http://www.topografix.com/GPX/1/1" xmlns:xsi="http://www.w3.org/2001/XMLSchema-instance" xsi:schemaLocation="http://www.topografix.com/GPX/1/1 http://www.topografix.com/GPX/1/1/gpx.xsd" version="1.1" creator="VisuGPX - https://www.visugpx.com">
  <metadata>
    <name>Raid_Bush_2024</name>
  </metadata>
  <wpt lat="46.9556" lon="-1.30684">
    <ele>46.3</ele>
    <name><![CDATA[ABC_2024]]></name>
    <type><![CDATA[GENERIC]]></type>
  </wpt>
  <trk>
    <name><![CDATA[Raid_Bush_2024]]></name>
    <trkseg>
      <trkpt lat="46.9556" lon="-1.30684">
        <ele>40.26</ele>
        <time>2024-03-17T18:17:32.000Z</time>
      </trkpt>
      <trkpt lat="46.95573" lon="-1.30739">
        <ele>40.08</ele>
        <time>2024-03-17T18:17:32.008Z</time>
      </trkpt>
      <trkpt lat="46.95596" lon="-1.30786">
        <ele>40.02</ele>
        <time>2024-03-17T18:17:32.024Z</time>
      </trkpt>
      <trkpt lat="46.95603" lon="-1.30811">
        <ele>39.83</ele>
        <time>2024-03-17T18:17:32.044Z</time>
      </trkpt>
      <trkpt lat="46.95663" lon="-1.3085">
        <ele>39.62</ele>
        <time>2024-03-17T18:17:32.077Z</time>
      </trkpt>
      <trkpt lat="46.95659" lon="-1.3086">
        <ele>39.24</ele>
        <time>2024-03-17T18:17:32.111Z</time>
      </trkpt>
      <trkpt lat="46.95575" lon="-1.30804">
        <ele>38.79</ele>
        <time>2024-03-17T18:17:32.164Z</time>
      </trkpt>
      <trkpt lat="46.95556" lon="-1.30804">
        <ele>38.19</ele>
        <time>2024-03-17T18:17:32.221Z</time>
      </trkpt>
      <trkpt lat="46.95656" lon="-1.30875">
        <ele>37.9</ele>
        <time>2024-03-17T18:17:32.300Z</time>
      </trkpt>
      <trkpt lat="46.95562" lon="-1.30828">
        <ele>37.41</ele>
        <time>2024-03-17T18:17:32.399Z</time>
      </trkpt>
      <trkpt lat="46.95564" lon="-1.30845">
        <ele>36.9</ele>
        <time>2024-03-17T18:17:32.500Z</time>
      </trkpt>
      <trkpt lat="46.95559" lon="-1.3085">
        <ele>36.47</ele>
        <time>2024-03-17T18:17:32.602Z</time>
      </trkpt>
      <trkpt lat="46.95553" lon="-1.3085">
        <ele>36.15</ele>
        <time>2024-03-17T18:17:32.706Z</time>
      </trkpt>
      <trkpt lat="46.95553" lon="-1.30895">
        <ele>35.57</ele>
        <time>2024-03-17T18:17:32.816Z</time>
      </trkpt>
      <trkpt lat="46.95564" lon="-1.30912">
        <ele>35.27</ele>
        <time>2024-03-17T18:17:32.929Z</time>
      </trkpt>
      <trkpt lat="46.95561" lon="-1.30918">
        <ele>35.22</ele>
        <time>2024-03-17T18:17:33.043Z</time>
      </trkpt>
      <trkpt lat="46.95531" lon="-1.30888">
        <ele>35.34</ele>
        <time>2024-03-17T18:17:33.164Z</time>
      </trkpt>
      <trkpt lat="46.95529" lon="-1.30857">
        <ele>35.84</ele>
        <time>2024-03-17T18:17:33.290Z</time>
      </trkpt>
      <trkpt lat="46.95544" lon="-1.30864">
        <ele>36.44</ele>
        <time>2024-03-17T18:17:33.419Z</time>
      </trkpt>
      <trkpt lat="46.95548" lon="-1.30848">
        <ele>37.29</ele>
        <time>2024-03-17T18:17:33.550Z</time>
      </trkpt>
      <trkpt lat="46.95549" lon="-1.30791">
        <ele>38.49</ele>
        <time>2024-03-17T18:17:33.689Z</time>
      </trkpt>
      <trkpt lat="46.95504" lon="-1.30777">
        <ele>38.94</ele>
        <time>2024-03-17T18:17:33.837Z</time>
      </trkpt>
      <trkpt lat="46.95508" lon="-1.30734">
        <ele>39.98</ele>
        <time>2024-03-17T18:17:33.991Z</time>
      </trkpt>
      <trkpt lat="46.95496" lon="-1.30709">
        <ele>40.84</ele>
        <time>2024-03-17T18:17:34.149Z</time>
      </trkpt>
      <trkpt lat="46.95503" lon="-1.30691">
        <ele>41.76</ele>
        <time>2024-03-17T18:17:34.310Z</time>
      </trkpt>
      <trkpt lat="46.95547" lon="-1.30661">
        <ele>42.66</ele>
        <time>2024-03-17T18:17:34.481Z</time>
      </trkpt>
      <trkpt lat="46.95546" lon="-1.30645">
        <ele>43.39</ele>
        <time>2024-03-17T18:17:34.654Z</time>
      </trkpt>
      <trkpt lat="46.95588" lon="-1.30631">
        <ele>44.2</ele>
        <time>2024-03-17T18:17:34.835Z</time>
      </trkpt>
      <trkpt lat="46.95638" lon="-1.30637">
        <ele>45.03</ele>
        <time>2024-03-17T18:17:35.026Z</time>
      </trkpt>
      <trkpt lat="46.95682" lon="-1.30656">
        <ele>45.71</ele>
        <time>2024-03-17T18:17:35.227Z</time>
      </trkpt>
      <trkpt lat="46.95771" lon="-1.30583">
        <ele>45.97</ele>
        <time>2024-03-17T18:17:35.448Z</time>
      </trkpt>
      <trkpt lat="46.95765" lon="-1.30572">
        <ele>46.19</ele>
        <time>2024-03-17T18:17:35.671Z</time>
      </trkpt>
      <trkpt lat="46.95769" lon="-1.30537">
        <ele>46.38</ele>
        <time>2024-03-17T18:17:35.899Z</time>
      </trkpt>
      <trkpt lat="46.95661" lon="-1.30512">
        <ele>45.99</ele>
        <time>2024-03-17T18:17:36.149Z</time>
      </trkpt>
      <trkpt lat="46.95643" lon="-1.30515">
        <ele>45.54</ele>
        <time>2024-03-17T18:17:36.403Z</time>
      </trkpt>
      <trkpt lat="46.95472" lon="-1.30473">
        <ele>45.23</ele>
        <time>2024-03-17T18:17:36.691Z</time>
      </trkpt>
      <trkpt lat="46.95313" lon="-1.30433">
        <ele>44.33</ele>
        <time>2024-03-17T18:17:37.012Z</time>
      </trkpt>
      <trkpt lat="46.95282" lon="-1.30423">
        <ele>43.47</ele>
        <time>2024-03-17T18:17:37.339Z</time>
      </trkpt>
      <trkpt lat="46.95277" lon="-1.3042">
        <ele>42.59</ele>
        <time>2024-03-17T18:17:37.667Z</time>
      </trkpt>
      <trkpt lat="46.95273" lon="-1.30415">
        <ele>41.66</ele>
        <time>2024-03-17T18:17:37.996Z</time>
      </trkpt>
      <trkpt lat="46.9527" lon="-1.30402">
        <ele>40.7</ele>
        <time>2024-03-17T18:17:38.327Z</time>
      </trkpt>
      <trkpt lat="46.95264" lon="-1.30387">
        <ele>39.7</ele>
        <time>2024-03-17T18:17:38.660Z</time>
      </trkpt>
      <trkpt lat="46.95253" lon="-1.30374">
        <ele>38.71</ele>
        <time>2024-03-17T18:17:38.996Z</time>
      </trkpt>
      <trkpt lat="46.95132" lon="-1.30207">
        <ele>37.36</ele>
        <time>2024-03-17T18:17:39.366Z</time>
      </trkpt>
      <trkpt lat="46.95121" lon="-1.302">
        <ele>36.25</ele>
        <time>2024-03-17T18:17:39.738Z</time>
      </trkpt>
      <trkpt lat="46.95117" lon="-1.30192">
        <ele>35.29</ele>
        <time>2024-03-17T18:17:40.111Z</time>
      </trkpt>
      <trkpt lat="46.95085" lon="-1.30076">
        <ele>34.11</ele>
        <time>2024-03-17T18:17:40.501Z</time>
      </trkpt>
      <trkpt lat="46.9508" lon="-1.30024">
        <ele>33.33</ele>
        <time>2024-03-17T18:17:40.899Z</time>
      </trkpt>
      <trkpt lat="46.95073" lon="-1.29994">
        <ele>32.63</ele>
        <time>2024-03-17T18:17:41.301Z</time>
      </trkpt>
      <trkpt lat="46.95035" lon="-1.29895">
        <ele>31.98</ele>
        <time>2024-03-17T18:17:41.719Z</time>
      </trkpt>
      <trkpt lat="46.95029" lon="-1.29886">
        <ele>31.39</ele>
        <time>2024-03-17T18:17:42.138Z</time>
      </trkpt>
      <trkpt lat="46.95027" lon="-1.29872">
        <ele>30.96</ele>
        <time>2024-03-17T18:17:42.559Z</time>
      </trkpt>
      <trkpt lat="46.95007" lon="-1.29828">
        <ele>30.55</ele>
        <time>2024-03-17T18:17:42.987Z</time>
      </trkpt>
      <trkpt lat="46.94998" lon="-1.29805">
        <ele>30.32</ele>
        <time>2024-03-17T18:17:43.419Z</time>
      </trkpt>
      <trkpt lat="46.94989" lon="-1.29753">
        <ele>30.3</ele>
        <time>2024-03-17T18:17:43.858Z</time>
      </trkpt>
      <trkpt lat="46.94978" lon="-1.29729">
        <ele>30.29</ele>
        <time>2024-03-17T18:17:44.301Z</time>
      </trkpt>
      <trkpt lat="46.9497" lon="-1.29694">
        <ele>30.28</ele>
        <time>2024-03-17T18:17:44.750Z</time>
      </trkpt>
      <trkpt lat="46.94951" lon="-1.29643">
        <ele>30.34</ele>
        <time>2024-03-17T18:17:45.206Z</time>
      </trkpt>
      <trkpt lat="46.94943" lon="-1.2961">
        <ele>30.56</ele>
        <time>2024-03-17T18:17:45.667Z</time>
      </trkpt>
      <trkpt lat="46.94921" lon="-1.29497">
        <ele>30.8</ele>
        <time>2024-03-17T18:17:46.144Z</time>
      </trkpt>
      <trkpt lat="46.94913" lon="-1.2947">
        <ele>31.18</ele>
        <time>2024-03-17T18:17:46.625Z</time>
      </trkpt>
      <trkpt lat="46.94905" lon="-1.29413">
        <ele>31.65</ele>
        <time>2024-03-17T18:17:47.114Z</time>
      </trkpt>
      <trkpt lat="46.94898" lon="-1.29387">
        <ele>32.13</ele>
        <time>2024-03-17T18:17:47.607Z</time>
      </trkpt>
      <trkpt lat="46.94896" lon="-1.29339">
        <ele>32.6</ele>
        <time>2024-03-17T18:17:48.107Z</time>
      </trkpt>
      <trkpt lat="46.94883" lon="-1.29289">
        <ele>33.19</ele>
        <time>2024-03-17T18:17:48.614Z</time>
      </trkpt>
      <trkpt lat="46.94883" lon="-1.29253">
        <ele>33.71</ele>
        <time>2024-03-17T18:17:49.126Z</time>
      </trkpt>
      <trkpt lat="46.94879" lon="-1.29257">
        <ele>34.37</ele>
        <time>2024-03-17T18:17:49.639Z</time>
      </trkpt>
      <trkpt lat="46.94865" lon="-1.2927">
        <ele>35.18</ele>
        <time>2024-03-17T18:17:50.155Z</time>
      </trkpt>
      <trkpt lat="46.94872" lon="-1.29335">
        <ele>35.94</ele>
        <time>2024-03-17T18:17:50.680Z</time>
      </trkpt>
      <trkpt lat="46.94867" lon="-1.29356">
        <ele>36.8</ele>
        <time>2024-03-17T18:17:51.208Z</time>
      </trkpt>
      <trkpt lat="46.94861" lon="-1.29364">
        <ele>37.65</ele>
        <time>2024-03-17T18:17:51.738Z</time>
      </trkpt>
      <trkpt lat="46.94864" lon="-1.29375">
        <ele>38.39</ele>
        <time>2024-03-17T18:17:52.269Z</time>
      </trkpt>
      <trkpt lat="46.94856" lon="-1.29389">
        <ele>39.29</ele>
        <time>2024-03-17T18:17:52.803Z</time>
      </trkpt>
      <trkpt lat="46.94845" lon="-1.29374">
        <ele>40.2</ele>
        <time>2024-03-17T18:17:53.340Z</time>
      </trkpt>
      <trkpt lat="46.94823" lon="-1.29337">
        <ele>41.2</ele>
        <time>2024-03-17T18:17:53.884Z</time>
      </trkpt>
      <trkpt lat="46.94814" lon="-1.29304">
        <ele>41.94</ele>
        <time>2024-03-17T18:17:54.433Z</time>
      </trkpt>
      <trkpt lat="46.94814" lon="-1.29301">
        <ele>42.66</ele>
        <time>2024-03-17T18:17:54.982Z</time>
      </trkpt>
      <trkpt lat="46.94814" lon="-1.293">
        <ele>43.34</ele>
        <time>2024-03-17T18:17:55.531Z</time>
      </trkpt>
      <trkpt lat="46.94799" lon="-1.29258">
        <ele>43.96</ele>
        <time>2024-03-17T18:17:56.087Z</time>
      </trkpt>
      <trkpt lat="46.94787" lon="-1.29193">
        <ele>44.67</ele>
        <time>2024-03-17T18:17:56.652Z</time>
      </trkpt>
      <trkpt lat="46.94787" lon="-1.29168">
        <ele>45.24</ele>
        <time>2024-03-17T18:17:57.220Z</time>
      </trkpt>
      <trkpt lat="46.94809" lon="-1.29145">
        <ele>45.46</ele>
        <time>2024-03-17T18:17:57.794Z</time>
      </trkpt>
      <trkpt lat="46.94814" lon="-1.29178">
        <ele>45.91</ele>
        <time>2024-03-17T18:17:58.372Z</time>
      </trkpt>
      <trkpt lat="46.94822" lon="-1.29211">
        <ele>46.36</ele>
        <time>2024-03-17T18:17:58.955Z</time>
      </trkpt>
      <trkpt lat="46.94833" lon="-1.2928">
        <ele>46.88</ele>
        <time>2024-03-17T18:17:59.548Z</time>
      </trkpt>
      <trkpt lat="46.94843" lon="-1.29349">
        <ele>47.43</ele>
        <time>2024-03-17T18:18:00.151Z</time>
      </trkpt>
      <trkpt lat="46.94835" lon="-1.29355">
        <ele>47.96</ele>
        <time>2024-03-17T18:18:00.755Z</time>
      </trkpt>
      <trkpt lat="46.94824" lon="-1.29333">
        <ele>48.51</ele>
        <time>2024-03-17T18:18:01.363Z</time>
      </trkpt>
      <trkpt lat="46.94811" lon="-1.29298">
        <ele>48.9</ele>
        <time>2024-03-17T18:18:01.976Z</time>
      </trkpt>
      <trkpt lat="46.9481" lon="-1.29373">
        <ele>49.36</ele>
        <time>2024-03-17T18:18:02.600Z</time>
      </trkpt>
      <trkpt lat="46.94787" lon="-1.29383">
        <ele>49.78</ele>
        <time>2024-03-17T18:18:03.228Z</time>
      </trkpt>
      <trkpt lat="46.94777" lon="-1.29363">
        <ele>50.2</ele>
        <time>2024-03-17T18:18:03.860Z</time>
      </trkpt>
      <trkpt lat="46.94757" lon="-1.29382">
        <ele>50.52</ele>
        <time>2024-03-17T18:18:04.497Z</time>
      </trkpt>
      <trkpt lat="46.94718" lon="-1.29387">
        <ele>50.77</ele>
        <time>2024-03-17T18:18:05.141Z</time>
      </trkpt>
      <trkpt lat="46.94705" lon="-1.29359">
        <ele>50.94</ele>
        <time>2024-03-17T18:18:05.790Z</time>
      </trkpt>
      <trkpt lat="46.94709" lon="-1.2933">
        <ele>51.08</ele>
        <time>2024-03-17T18:18:06.443Z</time>
      </trkpt>
      <trkpt lat="46.94695" lon="-1.29241">
        <ele>51.1</ele>
        <time>2024-03-17T18:18:07.109Z</time>
      </trkpt>
      <trkpt lat="46.94647" lon="-1.29258">
        <ele>51</ele>
        <time>2024-03-17T18:18:07.784Z</time>
      </trkpt>
      <trkpt lat="46.94612" lon="-1.29279">
        <ele>50.76</ele>
        <time>2024-03-17T18:18:08.467Z</time>
      </trkpt>
      <trkpt lat="46.94595" lon="-1.29316">
        <ele>50.37</ele>
        <time>2024-03-17T18:18:09.156Z</time>
      </trkpt>
      <trkpt lat="46.94549" lon="-1.29283">
        <ele>50.16</ele>
        <time>2024-03-17T18:18:09.855Z</time>
      </trkpt>
      <trkpt lat="46.94477" lon="-1.29273">
        <ele>49.84</ele>
        <time>2024-03-17T18:18:10.569Z</time>
      </trkpt>
      <trkpt lat="46.94446" lon="-1.29296">
        <ele>49.43</ele>
        <time>2024-03-17T18:18:11.290Z</time>
      </trkpt>
      <trkpt lat="46.94402" lon="-1.29281">
        <ele>49.06</ele>
        <time>2024-03-17T18:18:12.020Z</time>
      </trkpt>
      <trkpt lat="46.94322" lon="-1.29346">
        <ele>48.79</ele>
        <time>2024-03-17T18:18:12.768Z</time>
      </trkpt>
      <trkpt lat="46.94223" lon="-1.29435">
        <ele>48.24</ele>
        <time>2024-03-17T18:18:13.539Z</time>
      </trkpt>
      <trkpt lat="46.94193" lon="-1.29524">
        <ele>47.81</ele>
        <time>2024-03-17T18:18:14.324Z</time>
      </trkpt>
      <trkpt lat="46.94168" lon="-1.2959">
        <ele>47.24</ele>
        <time>2024-03-17T18:18:15.119Z</time>
      </trkpt>
      <trkpt lat="46.94149" lon="-1.29619">
        <ele>46.75</ele>
        <time>2024-03-17T18:18:15.920Z</time>
      </trkpt>
      <trkpt lat="46.94096" lon="-1.29533">
        <ele>46.52</ele>
        <time>2024-03-17T18:18:16.737Z</time>
      </trkpt>
      <trkpt lat="46.94085" lon="-1.29481">
        <ele>46.12</ele>
        <time>2024-03-17T18:18:17.561Z</time>
      </trkpt>
      <trkpt lat="46.94077" lon="-1.29465">
        <ele>45.71</ele>
        <time>2024-03-17T18:18:18.388Z</time>
      </trkpt>
      <trkpt lat="46.94076" lon="-1.29416">
        <ele>45.32</ele>
        <time>2024-03-17T18:18:19.222Z</time>
      </trkpt>
      <trkpt lat="46.94055" lon="-1.29387">
        <ele>44.74</ele>
        <time>2024-03-17T18:18:20.061Z</time>
      </trkpt>
      <trkpt lat="46.93994" lon="-1.29241">
        <ele>44.26</ele>
        <time>2024-03-17T18:18:20.924Z</time>
      </trkpt>
      <trkpt lat="46.93987" lon="-1.29246">
        <ele>43.74</ele>
        <time>2024-03-17T18:18:21.788Z</time>
      </trkpt>
      <trkpt lat="46.93959" lon="-1.29274">
        <ele>43.04</ele>
        <time>2024-03-17T18:18:22.659Z</time>
      </trkpt>
      <trkpt lat="46.9398" lon="-1.29364">
        <ele>42.62</ele>
        <time>2024-03-17T18:18:23.543Z</time>
      </trkpt>
      <trkpt lat="46.94012" lon="-1.29518">
        <ele>42.3</ele>
        <time>2024-03-17T18:18:24.449Z</time>
      </trkpt>
      <trkpt lat="46.94043" lon="-1.29513">
        <ele>42.21</ele>
        <time>2024-03-17T18:18:25.362Z</time>
      </trkpt>
      <trkpt lat="46.94037" lon="-1.29463">
        <ele>41.93</ele>
        <time>2024-03-17T18:18:26.282Z</time>
      </trkpt>
      <trkpt lat="46.94045" lon="-1.29403">
        <ele>41.82</ele>
        <time>2024-03-17T18:18:27.210Z</time>
      </trkpt>
      <trkpt lat="46.94051" lon="-1.29389">
        <ele>41.67</ele>
        <time>2024-03-17T18:18:28.140Z</time>
      </trkpt>
      <trkpt lat="46.93953" lon="-1.29142">
        <ele>41.36</ele>
        <time>2024-03-17T18:18:29.109Z</time>
      </trkpt>
      <trkpt lat="46.93926" lon="-1.29171">
        <ele>40.82</ele>
        <time>2024-03-17T18:18:30.085Z</time>
      </trkpt>
      <trkpt lat="46.93957" lon="-1.29281">
        <ele>40.64</ele>
        <time>2024-03-17T18:18:31.077Z</time>
      </trkpt>
      <trkpt lat="46.9401" lon="-1.2952">
        <ele>40.46</ele>
        <time>2024-03-17T18:18:32.104Z</time>
      </trkpt>
      <trkpt lat="46.94049" lon="-1.29515">
        <ele>40.58</ele>
        <time>2024-03-17T18:18:33.138Z</time>
      </trkpt>
      <trkpt lat="46.94041" lon="-1.29465">
        <ele>40.44</ele>
        <time>2024-03-17T18:18:34.179Z</time>
      </trkpt>
      <trkpt lat="46.94049" lon="-1.29403">
        <ele>40.46</ele>
        <time>2024-03-17T18:18:35.229Z</time>
      </trkpt>
      <trkpt lat="46.94054" lon="-1.29388">
        <ele>40.41</ele>
        <time>2024-03-17T18:18:36.281Z</time>
      </trkpt>
      <trkpt lat="46.93955" lon="-1.29136">
        <ele>40.21</ele>
        <time>2024-03-17T18:18:37.373Z</time>
      </trkpt>
      <trkpt lat="46.93905" lon="-1.29047">
        <ele>40.15</ele>
        <time>2024-03-17T18:18:38.481Z</time>
      </trkpt>
      <trkpt lat="46.93836" lon="-1.28991">
        <ele>39.9</ele>
        <time>2024-03-17T18:18:39.605Z</time>
      </trkpt>
      <trkpt lat="46.93837" lon="-1.29006">
        <ele>39.68</ele>
        <time>2024-03-17T18:18:40.731Z</time>
      </trkpt>
      <trkpt lat="46.93818" lon="-1.2901">
        <ele>39.43</ele>
        <time>2024-03-17T18:18:41.861Z</time>
      </trkpt>
      <trkpt lat="46.93823" lon="-1.29038">
        <ele>39.14</ele>
        <time>2024-03-17T18:18:42.995Z</time>
      </trkpt>
      <trkpt lat="46.93726" lon="-1.2904">
        <ele>38.94</ele>
        <time>2024-03-17T18:18:44.148Z</time>
      </trkpt>
      <trkpt lat="46.9371" lon="-1.29012">
        <ele>38.99</ele>
        <time>2024-03-17T18:18:45.306Z</time>
      </trkpt>
      <trkpt lat="46.93704" lon="-1.28988">
        <ele>39.07</ele>
        <time>2024-03-17T18:18:46.468Z</time>
      </trkpt>
      <trkpt lat="46.93683" lon="-1.28987">
        <ele>39</ele>
        <time>2024-03-17T18:18:47.634Z</time>
      </trkpt>
      <trkpt lat="46.93669" lon="-1.28993">
        <ele>38.96</ele>
        <time>2024-03-17T18:18:48.803Z</time>
      </trkpt>
      <trkpt lat="46.93655" lon="-1.29002">
        <ele>38.96</ele>
        <time>2024-03-17T18:18:49.975Z</time>
      </trkpt>
      <trkpt lat="46.9362" lon="-1.29">
        <ele>38.93</ele>
        <time>2024-03-17T18:18:51.154Z</time>
      </trkpt>
      <trkpt lat="46.93616" lon="-1.28974">
        <ele>38.99</ele>
        <time>2024-03-17T18:18:52.336Z</time>
      </trkpt>
      <trkpt lat="46.93618" lon="-1.28905">
        <ele>39.28</ele>
        <time>2024-03-17T18:18:53.528Z</time>
      </trkpt>
      <trkpt lat="46.93637" lon="-1.28675">
        <ele>39.82</ele>
        <time>2024-03-17T18:18:54.752Z</time>
      </trkpt>
      <trkpt lat="46.93658" lon="-1.28694">
        <ele>39.97</ele>
        <time>2024-03-17T18:18:55.981Z</time>
      </trkpt>
      <trkpt lat="46.9365" lon="-1.28748">
        <ele>39.99</ele>
        <time>2024-03-17T18:18:57.217Z</time>
      </trkpt>
      <trkpt lat="46.93643" lon="-1.28748">
        <ele>40.1</ele>
        <time>2024-03-17T18:18:58.454Z</time>
      </trkpt>
      <trkpt lat="46.93637" lon="-1.28949">
        <ele>39.76</ele>
        <time>2024-03-17T18:18:59.719Z</time>
      </trkpt>
      <trkpt lat="46.93653" lon="-1.2896">
        <ele>39.94</ele>
        <time>2024-03-17T18:19:00.988Z</time>
      </trkpt>
      <trkpt lat="46.93668" lon="-1.28955">
        <ele>40.15</ele>
        <time>2024-03-17T18:19:02.260Z</time>
      </trkpt>
      <trkpt lat="46.93679" lon="-1.28951">
        <ele>40.37</ele>
        <time>2024-03-17T18:19:03.534Z</time>
      </trkpt>
      <trkpt lat="46.93699" lon="-1.28946">
        <ele>40.69</ele>
        <time>2024-03-17T18:19:04.812Z</time>
      </trkpt>
      <trkpt lat="46.93705" lon="-1.28912">
        <ele>40.98</ele>
        <time>2024-03-17T18:19:06.095Z</time>
      </trkpt>
      <trkpt lat="46.9371" lon="-1.28919">
        <ele>41.28</ele>
        <time>2024-03-17T18:19:07.379Z</time>
      </trkpt>
      <trkpt lat="46.93732" lon="-1.28932">
        <ele>41.65</ele>
        <time>2024-03-17T18:19:08.668Z</time>
      </trkpt>
      <trkpt lat="46.9373" lon="-1.2895">
        <ele>41.95</ele>
        <time>2024-03-17T18:19:09.959Z</time>
      </trkpt>
      <trkpt lat="46.93736" lon="-1.28965">
        <ele>42.33</ele>
        <time>2024-03-17T18:19:11.253Z</time>
      </trkpt>
      <trkpt lat="46.9373" lon="-1.28978">
        <ele>42.67</ele>
        <time>2024-03-17T18:19:12.549Z</time>
      </trkpt>
      <trkpt lat="46.93707" lon="-1.28983">
        <ele>43.05</ele>
        <time>2024-03-17T18:19:13.850Z</time>
      </trkpt>
      <trkpt lat="46.93701" lon="-1.28958">
        <ele>43.67</ele>
        <time>2024-03-17T18:19:15.154Z</time>
      </trkpt>
      <trkpt lat="46.93699" lon="-1.28914">
        <ele>44.32</ele>
        <time>2024-03-17T18:19:16.464Z</time>
      </trkpt>
      <trkpt lat="46.93704" lon="-1.28882">
        <ele>45.01</ele>
        <time>2024-03-17T18:19:17.779Z</time>
      </trkpt>
      <trkpt lat="46.93712" lon="-1.2885">
        <ele>45.77</ele>
        <time>2024-03-17T18:19:19.098Z</time>
      </trkpt>
      <trkpt lat="46.93717" lon="-1.28837">
        <ele>46.5</ele>
        <time>2024-03-17T18:19:20.420Z</time>
      </trkpt>
      <trkpt lat="46.93726" lon="-1.28825">
        <ele>47.28</ele>
        <time>2024-03-17T18:19:21.744Z</time>
      </trkpt>
      <trkpt lat="46.93736" lon="-1.28815">
        <ele>48.11</ele>
        <time>2024-03-17T18:19:23.070Z</time>
      </trkpt>
      <trkpt lat="46.93784" lon="-1.28786">
        <ele>49.07</ele>
        <time>2024-03-17T18:19:24.407Z</time>
      </trkpt>
      <trkpt lat="46.93814" lon="-1.28761">
        <ele>49.99</ele>
        <time>2024-03-17T18:19:25.751Z</time>
      </trkpt>
      <trkpt lat="46.93844" lon="-1.28737">
        <ele>50.86</ele>
        <time>2024-03-17T18:19:27.102Z</time>
      </trkpt>
      <trkpt lat="46.93859" lon="-1.28714">
        <ele>51.68</ele>
        <time>2024-03-17T18:19:28.457Z</time>
      </trkpt>
      <trkpt lat="46.93844" lon="-1.28695">
        <ele>52.51</ele>
        <time>2024-03-17T18:19:29.816Z</time>
      </trkpt>
      <trkpt lat="46.93867" lon="-1.28672">
        <ele>53.32</ele>
        <time>2024-03-17T18:19:31.180Z</time>
      </trkpt>
      <trkpt lat="46.93851" lon="-1.28633">
        <ele>54.19</ele>
        <time>2024-03-17T18:19:32.550Z</time>
      </trkpt>
      <trkpt lat="46.93928" lon="-1.28549">
        <ele>55.05</ele>
        <time>2024-03-17T18:19:33.940Z</time>
      </trkpt>
      <trkpt lat="46.9394" lon="-1.28549">
        <ele>55.85</ele>
        <time>2024-03-17T18:19:35.332Z</time>
      </trkpt>
      <trkpt lat="46.93957" lon="-1.28525">
        <ele>56.64</ele>
        <time>2024-03-17T18:19:36.729Z</time>
      </trkpt>
      <trkpt lat="46.93974" lon="-1.28526">
        <ele>57.41</ele>
        <time>2024-03-17T18:19:38.129Z</time>
      </trkpt>
      <trkpt lat="46.94004" lon="-1.28576">
        <ele>58.08</ele>
        <time>2024-03-17T18:19:39.538Z</time>
      </trkpt>
      <trkpt lat="46.94054" lon="-1.28536">
        <ele>58.78</ele>
        <time>2024-03-17T18:19:40.959Z</time>
      </trkpt>
      <trkpt lat="46.94126" lon="-1.28465">
        <ele>59.57</ele>
        <time>2024-03-17T18:19:42.397Z</time>
      </trkpt>
      <trkpt lat="46.94059" lon="-1.28346">
        <ele>60.17</ele>
        <time>2024-03-17T18:19:43.856Z</time>
      </trkpt>
      <trkpt lat="46.94001" lon="-1.28243">
        <ele>60.82</ele>
        <time>2024-03-17T18:19:45.333Z</time>
      </trkpt>
      <trkpt lat="46.93925" lon="-1.28109">
        <ele>61.35</ele>
        <time>2024-03-17T18:19:46.834Z</time>
      </trkpt>
      <trkpt lat="46.94006" lon="-1.27993">
        <ele>61.87</ele>
        <time>2024-03-17T18:19:48.358Z</time>
      </trkpt>
      <trkpt lat="46.94023" lon="-1.28">
        <ele>62.3</ele>
        <time>2024-03-17T18:19:49.885Z</time>
      </trkpt>
      <trkpt lat="46.94079" lon="-1.27919">
        <ele>62.72</ele>
        <time>2024-03-17T18:19:51.428Z</time>
      </trkpt>
      <trkpt lat="46.94003" lon="-1.27754">
        <ele>62.92</ele>
        <time>2024-03-17T18:19:52.999Z</time>
      </trkpt>
      <trkpt lat="46.93942" lon="-1.27606">
        <ele>63.2</ele>
        <time>2024-03-17T18:19:54.593Z</time>
      </trkpt>
      <trkpt lat="46.93905" lon="-1.27487">
        <ele>63.38</ele>
        <time>2024-03-17T18:19:56.205Z</time>
      </trkpt>
      <trkpt lat="46.93877" lon="-1.27396">
        <ele>63.5</ele>
        <time>2024-03-17T18:19:57.831Z</time>
      </trkpt>
      <trkpt lat="46.9384" lon="-1.27254">
        <ele>63.72</ele>
        <time>2024-03-17T18:19:59.478Z</time>
      </trkpt>
      <trkpt lat="46.93764" lon="-1.26985">
        <ele>63.9</ele>
        <time>2024-03-17T18:20:01.164Z</time>
      </trkpt>
      <trkpt lat="46.93678" lon="-1.26723">
        <ele>63.92</ele>
        <time>2024-03-17T18:20:02.890Z</time>
      </trkpt>
      <trkpt lat="46.93639" lon="-1.26611">
        <ele>63.87</ele>
        <time>2024-03-17T18:20:04.634Z</time>
      </trkpt>
      <trkpt lat="46.93612" lon="-1.26522">
        <ele>63.82</ele>
        <time>2024-03-17T18:20:06.391Z</time>
      </trkpt>
      <trkpt lat="46.93596" lon="-1.26414">
        <ele>63.81</ele>
        <time>2024-03-17T18:20:08.163Z</time>
      </trkpt>
      <trkpt lat="46.9359" lon="-1.26357">
        <ele>63.67</ele>
        <time>2024-03-17T18:20:09.943Z</time>
      </trkpt>
      <trkpt lat="46.9359" lon="-1.26354">
        <ele>63.48</ele>
        <time>2024-03-17T18:20:11.723Z</time>
      </trkpt>
      <trkpt lat="46.93829" lon="-1.26258">
        <ele>62.84</ele>
        <time>2024-03-17T18:20:13.553Z</time>
      </trkpt>
      <trkpt lat="46.93873" lon="-1.26238">
        <ele>62.48</ele>
        <time>2024-03-17T18:20:15.392Z</time>
      </trkpt>
      <trkpt lat="46.93901" lon="-1.2623">
        <ele>62.24</ele>
        <time>2024-03-17T18:20:17.237Z</time>
      </trkpt>
      <trkpt lat="46.93918" lon="-1.26371">
        <ele>62</ele>
        <time>2024-03-17T18:20:19.101Z</time>
      </trkpt>
      <trkpt lat="46.93922" lon="-1.26384">
        <ele>61.75</ele>
        <time>2024-03-17T18:20:20.967Z</time>
      </trkpt>
      <trkpt lat="46.93928" lon="-1.2638">
        <ele>61.46</ele>
        <time>2024-03-17T18:20:22.835Z</time>
      </trkpt>
      <trkpt lat="46.93945" lon="-1.26376">
        <ele>61.14</ele>
        <time>2024-03-17T18:20:24.706Z</time>
      </trkpt>
      <trkpt lat="46.93988" lon="-1.26372">
        <ele>60.82</ele>
        <time>2024-03-17T18:20:26.586Z</time>
      </trkpt>
      <trkpt lat="46.94008" lon="-1.26375">
        <ele>60.57</ele>
        <time>2024-03-17T18:20:28.470Z</time>
      </trkpt>
      <trkpt lat="46.9402" lon="-1.26384">
        <ele>60.3</ele>
        <time>2024-03-17T18:20:30.357Z</time>
      </trkpt>
      <trkpt lat="46.94025" lon="-1.26389">
        <ele>60.03</ele>
        <time>2024-03-17T18:20:32.245Z</time>
      </trkpt>
      <trkpt lat="46.94031" lon="-1.26401">
        <ele>59.8</ele>
        <time>2024-03-17T18:20:34.135Z</time>
      </trkpt>
      <trkpt lat="46.94037" lon="-1.26423">
        <ele>59.61</ele>
        <time>2024-03-17T18:20:36.028Z</time>
      </trkpt>
      <trkpt lat="46.94084" lon="-1.26643">
        <ele>59.4</ele>
        <time>2024-03-17T18:20:37.953Z</time>
      </trkpt>
      <trkpt lat="46.94104" lon="-1.26834">
        <ele>59.15</ele>
        <time>2024-03-17T18:20:39.904Z</time>
      </trkpt>
      <trkpt lat="46.94112" lon="-1.26846">
        <ele>58.73</ele>
        <time>2024-03-17T18:20:41.857Z</time>
      </trkpt>
      <trkpt lat="46.94118" lon="-1.26843">
        <ele>58.31</ele>
        <time>2024-03-17T18:20:43.812Z</time>
      </trkpt>
      <trkpt lat="46.9412" lon="-1.26833">
        <ele>57.9</ele>
        <time>2024-03-17T18:20:45.768Z</time>
      </trkpt>
      <trkpt lat="46.9415" lon="-1.26826">
        <ele>57.38</ele>
        <time>2024-03-17T18:20:47.730Z</time>
      </trkpt>
      <trkpt lat="46.94158" lon="-1.26835">
        <ele>56.87</ele>
        <time>2024-03-17T18:20:49.694Z</time>
      </trkpt>
      <trkpt lat="46.94178" lon="-1.26825">
        <ele>56.3</ele>
        <time>2024-03-17T18:20:51.662Z</time>
      </trkpt>
      <trkpt lat="46.94177" lon="-1.26768">
        <ele>55.81</ele>
        <time>2024-03-17T18:20:53.638Z</time>
      </trkpt>
      <trkpt lat="46.9419" lon="-1.26764">
        <ele>55.15</ele>
        <time>2024-03-17T18:20:55.617Z</time>
      </trkpt>
      <trkpt lat="46.94186" lon="-1.26734">
        <ele>54.57</ele>
        <time>2024-03-17T18:20:57.600Z</time>
      </trkpt>
      <trkpt lat="46.94197" lon="-1.26722">
        <ele>53.88</ele>
        <time>2024-03-17T18:20:59.586Z</time>
      </trkpt>
      <trkpt lat="46.94198" lon="-1.26704">
        <ele>53.29</ele>
        <time>2024-03-17T18:21:01.575Z</time>
      </trkpt>
      <trkpt lat="46.94191" lon="-1.26697">
        <ele>52.73</ele>
        <time>2024-03-17T18:21:03.565Z</time>
      </trkpt>
      <trkpt lat="46.94191" lon="-1.26677">
        <ele>52.13</ele>
        <time>2024-03-17T18:21:05.558Z</time>
      </trkpt>
      <trkpt lat="46.9424" lon="-1.26565">
        <ele>50.76</ele>
        <time>2024-03-17T18:21:07.569Z</time>
      </trkpt>
      <trkpt lat="46.94253" lon="-1.26595">
        <ele>50.09</ele>
        <time>2024-03-17T18:21:09.585Z</time>
      </trkpt>
      <trkpt lat="46.94244" lon="-1.26595">
        <ele>49.8</ele>
        <time>2024-03-17T18:21:11.603Z</time>
      </trkpt>
      <trkpt lat="46.94241" lon="-1.26627">
        <ele>49.61</ele>
        <time>2024-03-17T18:21:13.625Z</time>
      </trkpt>
      <trkpt lat="46.94294" lon="-1.26711">
        <ele>49.23</ele>
        <time>2024-03-17T18:21:15.663Z</time>
      </trkpt>
      <trkpt lat="46.94292" lon="-1.26722">
        <ele>49.03</ele>
        <time>2024-03-17T18:21:17.702Z</time>
      </trkpt>
      <trkpt lat="46.94341" lon="-1.26746">
        <ele>48.83</ele>
        <time>2024-03-17T18:21:19.752Z</time>
      </trkpt>
      <trkpt lat="46.94363" lon="-1.2675">
        <ele>48.63</ele>
        <time>2024-03-17T18:21:21.806Z</time>
      </trkpt>
      <trkpt lat="46.94347" lon="-1.26736">
        <ele>48.73</ele>
        <time>2024-03-17T18:21:23.864Z</time>
      </trkpt>
      <trkpt lat="46.94347" lon="-1.26712">
        <ele>48.71</ele>
        <time>2024-03-17T18:21:25.925Z</time>
      </trkpt>
      <trkpt lat="46.94323" lon="-1.26702">
        <ele>49.02</ele>
        <time>2024-03-17T18:21:27.991Z</time>
      </trkpt>
      <trkpt lat="46.94263" lon="-1.26617">
        <ele>49.12</ele>
        <time>2024-03-17T18:21:30.074Z</time>
      </trkpt>
      <trkpt lat="46.94248" lon="-1.26627">
        <ele>49.82</ele>
        <time>2024-03-17T18:21:32.160Z</time>
      </trkpt>
      <trkpt lat="46.9429" lon="-1.26714">
        <ele>50.35</ele>
        <time>2024-03-17T18:21:34.261Z</time>
      </trkpt>
      <trkpt lat="46.94286" lon="-1.26735">
        <ele>50.9</ele>
        <time>2024-03-17T18:21:36.365Z</time>
      </trkpt>
      <trkpt lat="46.94269" lon="-1.26717">
        <ele>51.5</ele>
        <time>2024-03-17T18:21:38.473Z</time>
      </trkpt>
      <trkpt lat="46.9425" lon="-1.26732">
        <ele>52.22</ele>
        <time>2024-03-17T18:21:40.585Z</time>
      </trkpt>
      <trkpt lat="46.9425" lon="-1.26732">
        <ele>52.23</ele>
        <time>2024-03-17T18:21:42.697Z</time>
      </trkpt>
      <trkpt lat="46.94247" lon="-1.26793">
        <ele>52.95</ele>
        <time>2024-03-17T18:21:44.818Z</time>
      </trkpt>
      <trkpt lat="46.9421" lon="-1.26854">
        <ele>53.76</ele>
        <time>2024-03-17T18:21:46.950Z</time>
      </trkpt>
      <trkpt lat="46.94218" lon="-1.2687">
        <ele>54.35</ele>
        <time>2024-03-17T18:21:49.085Z</time>
      </trkpt>
      <trkpt lat="46.94197" lon="-1.26902">
        <ele>55.07</ele>
        <time>2024-03-17T18:21:51.226Z</time>
      </trkpt>
      <trkpt lat="46.94181" lon="-1.2692">
        <ele>55.73</ele>
        <time>2024-03-17T18:21:53.371Z</time>
      </trkpt>
      <trkpt lat="46.94153" lon="-1.26941">
        <ele>56.39</ele>
        <time>2024-03-17T18:21:55.522Z</time>
      </trkpt>
      <trkpt lat="46.94117" lon="-1.26964">
        <ele>56.83</ele>
        <time>2024-03-17T18:21:57.681Z</time>
      </trkpt>
      <trkpt lat="46.9415" lon="-1.27277">
        <ele>56.92</ele>
        <time>2024-03-17T18:21:59.883Z</time>
      </trkpt>
      <trkpt lat="46.94133" lon="-1.27293">
        <ele>57.23</ele>
        <time>2024-03-17T18:22:02.089Z</time>
      </trkpt>
      <trkpt lat="46.941" lon="-1.27344">
        <ele>57.56</ele>
        <time>2024-03-17T18:22:04.305Z</time>
      </trkpt>
      <trkpt lat="46.94088" lon="-1.27354">
        <ele>57.77</ele>
        <time>2024-03-17T18:22:06.524Z</time>
      </trkpt>
      <trkpt lat="46.9408" lon="-1.27357">
        <ele>57.89</ele>
        <time>2024-03-17T18:22:08.744Z</time>
      </trkpt>
      <trkpt lat="46.94081" lon="-1.27374">
        <ele>57.93</ele>
        <time>2024-03-17T18:22:10.967Z</time>
      </trkpt>
      <trkpt lat="46.94083" lon="-1.27378">
        <ele>57.87</ele>
        <time>2024-03-17T18:22:13.190Z</time>
      </trkpt>
      <trkpt lat="46.94106" lon="-1.27404">
        <ele>57.69</ele>
        <time>2024-03-17T18:22:15.419Z</time>
      </trkpt>
      <trkpt lat="46.94114" lon="-1.27424">
        <ele>57.47</ele>
        <time>2024-03-17T18:22:17.652Z</time>
      </trkpt>
      <trkpt lat="46.94171" lon="-1.27665">
        <ele>57.11</ele>
        <time>2024-03-17T18:22:19.919Z</time>
      </trkpt>
      <trkpt lat="46.94173" lon="-1.27674">
        <ele>56.86</ele>
        <time>2024-03-17T18:22:22.188Z</time>
      </trkpt>
      <trkpt lat="46.94172" lon="-1.27684">
        <ele>56.58</ele>
        <time>2024-03-17T18:22:24.458Z</time>
      </trkpt>
      <trkpt lat="46.94178" lon="-1.27694">
        <ele>56.24</ele>
        <time>2024-03-17T18:22:26.730Z</time>
      </trkpt>
      <trkpt lat="46.94219" lon="-1.27866">
        <ele>56.05</ele>
        <time>2024-03-17T18:22:29.027Z</time>
      </trkpt>
      <trkpt lat="46.94259" lon="-1.2784">
        <ele>55.68</ele>
        <time>2024-03-17T18:22:31.332Z</time>
      </trkpt>
      <trkpt lat="46.94312" lon="-1.2796">
        <ele>55.24</ele>
        <time>2024-03-17T18:22:33.657Z</time>
      </trkpt>
      <trkpt lat="46.94331" lon="-1.27915">
        <ele>54.3</ele>
        <time>2024-03-17T18:22:35.989Z</time>
      </trkpt>
      <trkpt lat="46.94365" lon="-1.2797">
        <ele>54.07</ele>
        <time>2024-03-17T18:22:38.331Z</time>
      </trkpt>
      <trkpt lat="46.94396" lon="-1.27996">
        <ele>53.58</ele>
        <time>2024-03-17T18:22:40.681Z</time>
      </trkpt>
      <trkpt lat="46.94463" lon="-1.28104">
        <ele>53.53</ele>
        <time>2024-03-17T18:22:43.050Z</time>
      </trkpt>
      <trkpt lat="46.94432" lon="-1.28114">
        <ele>53.88</ele>
        <time>2024-03-17T18:22:45.426Z</time>
      </trkpt>
      <trkpt lat="46.94501" lon="-1.28184">
        <ele>53.7</ele>
        <time>2024-03-17T18:22:47.818Z</time>
      </trkpt>
      <trkpt lat="46.94514" lon="-1.282">
        <ele>53.76</ele>
        <time>2024-03-17T18:22:50.214Z</time>
      </trkpt>
      <trkpt lat="46.94511" lon="-1.2822">
        <ele>53.9</ele>
        <time>2024-03-17T18:22:52.613Z</time>
      </trkpt>
      <trkpt lat="46.94468" lon="-1.28282">
        <ele>54.28</ele>
        <time>2024-03-17T18:22:55.024Z</time>
      </trkpt>
      <trkpt lat="46.9441" lon="-1.28355">
        <ele>54.55</ele>
        <time>2024-03-17T18:22:57.450Z</time>
      </trkpt>
      <trkpt lat="46.94381" lon="-1.28307">
        <ele>54.54</ele>
        <time>2024-03-17T18:22:59.885Z</time>
      </trkpt>
      <trkpt lat="46.94373" lon="-1.28302">
        <ele>54.49</ele>
        <time>2024-03-17T18:23:02.321Z</time>
      </trkpt>
      <trkpt lat="46.9437" lon="-1.28305">
        <ele>54.39</ele>
        <time>2024-03-17T18:23:04.758Z</time>
      </trkpt>
      <trkpt lat="46.94306" lon="-1.28202">
        <ele>54.25</ele>
        <time>2024-03-17T18:23:07.214Z</time>
      </trkpt>
      <trkpt lat="46.94292" lon="-1.28172">
        <ele>54.01</ele>
        <time>2024-03-17T18:23:09.675Z</time>
      </trkpt>
      <trkpt lat="46.94289" lon="-1.28158">
        <ele>53.68</ele>
        <time>2024-03-17T18:23:12.138Z</time>
      </trkpt>
      <trkpt lat="46.9434" lon="-1.28104">
        <ele>53.07</ele>
        <time>2024-03-17T18:23:14.614Z</time>
      </trkpt>
      <trkpt lat="46.94352" lon="-1.28112">
        <ele>52.61</ele>
        <time>2024-03-17T18:23:17.092Z</time>
      </trkpt>
      <trkpt lat="46.94355" lon="-1.28085">
        <ele>52.08</ele>
        <time>2024-03-17T18:23:19.574Z</time>
      </trkpt>
      <trkpt lat="46.94371" lon="-1.28071">
        <ele>51.43</ele>
        <time>2024-03-17T18:23:22.060Z</time>
      </trkpt>
      <trkpt lat="46.94383" lon="-1.2808">
        <ele>50.75</ele>
        <time>2024-03-17T18:23:24.548Z</time>
      </trkpt>
      <trkpt lat="46.94383" lon="-1.28065">
        <ele>49.95</ele>
        <time>2024-03-17T18:23:27.039Z</time>
      </trkpt>
      <trkpt lat="46.94404" lon="-1.28084">
        <ele>49.18</ele>
        <time>2024-03-17T18:23:29.535Z</time>
      </trkpt>
      <trkpt lat="46.94402" lon="-1.28104">
        <ele>48.48</ele>
        <time>2024-03-17T18:23:32.033Z</time>
      </trkpt>
      <trkpt lat="46.94433" lon="-1.28063">
        <ele>47.11</ele>
        <time>2024-03-17T18:23:34.540Z</time>
      </trkpt>
      <trkpt lat="46.94467" lon="-1.28107">
        <ele>46.08</ele>
        <time>2024-03-17T18:23:37.056Z</time>
      </trkpt>
      <trkpt lat="46.94471" lon="-1.28127">
        <ele>45.34</ele>
        <time>2024-03-17T18:23:39.575Z</time>
      </trkpt>
      <trkpt lat="46.94535" lon="-1.2816">
        <ele>44.5</ele>
        <time>2024-03-17T18:23:42.107Z</time>
      </trkpt>
      <trkpt lat="46.94547" lon="-1.28215">
        <ele>44.16</ele>
        <time>2024-03-17T18:23:44.647Z</time>
      </trkpt>
      <trkpt lat="46.94582" lon="-1.2824">
        <ele>43.42</ele>
        <time>2024-03-17T18:23:47.195Z</time>
      </trkpt>
      <trkpt lat="46.94615" lon="-1.28189">
        <ele>42.18</ele>
        <time>2024-03-17T18:23:49.753Z</time>
      </trkpt>
      <trkpt lat="46.94656" lon="-1.28099">
        <ele>40.97</ele>
        <time>2024-03-17T18:23:52.325Z</time>
      </trkpt>
      <trkpt lat="46.94666" lon="-1.28073">
        <ele>40.41</ele>
        <time>2024-03-17T18:23:54.902Z</time>
      </trkpt>
      <trkpt lat="46.94669" lon="-1.28046">
        <ele>39.87</ele>
        <time>2024-03-17T18:23:57.482Z</time>
      </trkpt>
      <trkpt lat="46.94675" lon="-1.28034">
        <ele>39.36</ele>
        <time>2024-03-17T18:24:00.064Z</time>
      </trkpt>
      <trkpt lat="46.94672" lon="-1.28019">
        <ele>38.83</ele>
        <time>2024-03-17T18:24:02.649Z</time>
      </trkpt>
      <trkpt lat="46.94675" lon="-1.27983">
        <ele>38.32</ele>
        <time>2024-03-17T18:24:05.239Z</time>
      </trkpt>
      <trkpt lat="46.94671" lon="-1.2797">
        <ele>37.86</ele>
        <time>2024-03-17T18:24:07.830Z</time>
      </trkpt>
      <trkpt lat="46.94637" lon="-1.27928">
        <ele>37.59</ele>
        <time>2024-03-17T18:24:10.430Z</time>
      </trkpt>
      <trkpt lat="46.94626" lon="-1.27911">
        <ele>37.35</ele>
        <time>2024-03-17T18:24:13.034Z</time>
      </trkpt>
      <trkpt lat="46.9462" lon="-1.27894">
        <ele>37.16</ele>
        <time>2024-03-17T18:24:15.640Z</time>
      </trkpt>
      <trkpt lat="46.94619" lon="-1.27883">
        <ele>36.98</ele>
        <time>2024-03-17T18:24:18.248Z</time>
      </trkpt>
      <trkpt lat="46.9453" lon="-1.27789">
        <ele>36.94</ele>
        <time>2024-03-17T18:24:20.878Z</time>
      </trkpt>
      <trkpt lat="46.94521" lon="-1.27783">
        <ele>36.83</ele>
        <time>2024-03-17T18:24:23.510Z</time>
      </trkpt>
      <trkpt lat="46.94468" lon="-1.27767">
        <ele>36.71</ele>
        <time>2024-03-17T18:24:26.152Z</time>
      </trkpt>
      <trkpt lat="46.94445" lon="-1.27747">
        <ele>36.65</ele>
        <time>2024-03-17T18:24:28.800Z</time>
      </trkpt>
      <trkpt lat="46.94414" lon="-1.27715">
        <ele>36.58</ele>
        <time>2024-03-17T18:24:31.455Z</time>
      </trkpt>
      <trkpt lat="46.94383" lon="-1.27678">
        <ele>36.57</ele>
        <time>2024-03-17T18:24:34.118Z</time>
      </trkpt>
      <trkpt lat="46.94352" lon="-1.27634">
        <ele>36.56</ele>
        <time>2024-03-17T18:24:36.790Z</time>
      </trkpt>
      <trkpt lat="46.94325" lon="-1.27583">
        <ele>36.75</ele>
        <time>2024-03-17T18:24:39.471Z</time>
      </trkpt>
      <trkpt lat="46.94319" lon="-1.27566">
        <ele>37.06</ele>
        <time>2024-03-17T18:24:42.155Z</time>
      </trkpt>
      <trkpt lat="46.94322" lon="-1.27564">
        <ele>37.4</ele>
        <time>2024-03-17T18:24:44.839Z</time>
      </trkpt>
      <trkpt lat="46.94405" lon="-1.27525">
        <ele>37.81</ele>
        <time>2024-03-17T18:24:47.541Z</time>
      </trkpt>
      <trkpt lat="46.94399" lon="-1.27454">
        <ele>38.24</ele>
        <time>2024-03-17T18:24:50.252Z</time>
      </trkpt>
      <trkpt lat="46.94455" lon="-1.27442">
        <ele>38.91</ele>
        <time>2024-03-17T18:24:52.975Z</time>
      </trkpt>
      <trkpt lat="46.94517" lon="-1.27482">
        <ele>39.71</ele>
        <time>2024-03-17T18:24:55.711Z</time>
      </trkpt>
      <trkpt lat="46.94551" lon="-1.27464">
        <ele>40.25</ele>
        <time>2024-03-17T18:24:58.455Z</time>
      </trkpt>
      <trkpt lat="46.94609" lon="-1.27502">
        <ele>41.2</ele>
        <time>2024-03-17T18:25:01.211Z</time>
      </trkpt>
      <trkpt lat="46.94694" lon="-1.2746">
        <ele>41.72</ele>
        <time>2024-03-17T18:25:03.985Z</time>
      </trkpt>
      <trkpt lat="46.94727" lon="-1.27403">
        <ele>42.29</ele>
        <time>2024-03-17T18:25:06.769Z</time>
      </trkpt>
      <trkpt lat="46.94717" lon="-1.2734">
        <ele>42.56</ele>
        <time>2024-03-17T18:25:09.562Z</time>
      </trkpt>
      <trkpt lat="46.94731" lon="-1.27218">
        <ele>43.28</ele>
        <time>2024-03-17T18:25:12.372Z</time>
      </trkpt>
      <trkpt lat="46.94698" lon="-1.27208">
        <ele>43.71</ele>
        <time>2024-03-17T18:25:15.189Z</time>
      </trkpt>
      <trkpt lat="46.94687" lon="-1.27197">
        <ele>44.17</ele>
        <time>2024-03-17T18:25:18.009Z</time>
      </trkpt>
      <trkpt lat="46.94693" lon="-1.27177">
        <ele>44.76</ele>
        <time>2024-03-17T18:25:20.832Z</time>
      </trkpt>
      <trkpt lat="46.94709" lon="-1.27168">
        <ele>45.34</ele>
        <time>2024-03-17T18:25:23.658Z</time>
      </trkpt>
      <trkpt lat="46.94715" lon="-1.27138">
        <ele>45.88</ele>
        <time>2024-03-17T18:25:26.488Z</time>
      </trkpt>
      <trkpt lat="46.94718" lon="-1.27104">
        <ele>46.51</ele>
        <time>2024-03-17T18:25:29.323Z</time>
      </trkpt>
      <trkpt lat="46.94725" lon="-1.27105">
        <ele>46.84</ele>
        <time>2024-03-17T18:25:32.159Z</time>
      </trkpt>
      <trkpt lat="46.94725" lon="-1.2715">
        <ele>46.81</ele>
        <time>2024-03-17T18:25:35.002Z</time>
      </trkpt>
      <trkpt lat="46.94701" lon="-1.27187">
        <ele>46.8</ele>
        <time>2024-03-17T18:25:37.852Z</time>
      </trkpt>
      <trkpt lat="46.94689" lon="-1.27184">
        <ele>46.94</ele>
        <time>2024-03-17T18:25:40.704Z</time>
      </trkpt>
      <trkpt lat="46.94678" lon="-1.27167">
        <ele>47.15</ele>
        <time>2024-03-17T18:25:43.559Z</time>
      </trkpt>
      <trkpt lat="46.94661" lon="-1.27029">
        <ele>47.53</ele>
        <time>2024-03-17T18:25:46.433Z</time>
      </trkpt>
      <trkpt lat="46.94663" lon="-1.26954">
        <ele>47.64</ele>
        <time>2024-03-17T18:25:49.318Z</time>
      </trkpt>
      <trkpt lat="46.94628" lon="-1.26954">
        <ele>47.19</ele>
        <time>2024-03-17T18:25:52.210Z</time>
      </trkpt>
      <trkpt lat="46.94625" lon="-1.27027">
        <ele>47.36</ele>
        <time>2024-03-17T18:25:55.112Z</time>
      </trkpt>
      <trkpt lat="46.94637" lon="-1.27089">
        <ele>47.63</ele>
        <time>2024-03-17T18:25:58.023Z</time>
      </trkpt>
      <trkpt lat="46.94661" lon="-1.27159">
        <ele>47.61</ele>
        <time>2024-03-17T18:26:00.944Z</time>
      </trkpt>
      <trkpt lat="46.94673" lon="-1.27177">
        <ele>47.65</ele>
        <time>2024-03-17T18:26:03.869Z</time>
      </trkpt>
      <trkpt lat="46.94676" lon="-1.2717">
        <ele>47.75</ele>
        <time>2024-03-17T18:26:06.795Z</time>
      </trkpt>
      <trkpt lat="46.94663" lon="-1.27027">
        <ele>48.05</ele>
        <time>2024-03-17T18:26:09.741Z</time>
      </trkpt>
      <trkpt lat="46.94665" lon="-1.26937">
        <ele>48.04</ele>
        <time>2024-03-17T18:26:12.699Z</time>
      </trkpt>
      <trkpt lat="46.94674" lon="-1.26941">
        <ele>48.15</ele>
        <time>2024-03-17T18:26:15.659Z</time>
      </trkpt>
      <trkpt lat="46.94675" lon="-1.26963">
        <ele>48.09</ele>
        <time>2024-03-17T18:26:18.622Z</time>
      </trkpt>
      <trkpt lat="46.94689" lon="-1.26966">
        <ele>48.11</ele>
        <time>2024-03-17T18:26:21.588Z</time>
      </trkpt>
      <trkpt lat="46.94702" lon="-1.26925">
        <ele>47.99</ele>
        <time>2024-03-17T18:26:24.560Z</time>
      </trkpt>
      <trkpt lat="46.94696" lon="-1.26871">
        <ele>47.68</ele>
        <time>2024-03-17T18:26:27.540Z</time>
      </trkpt>
      <trkpt lat="46.94688" lon="-1.26868">
        <ele>47.37</ele>
        <time>2024-03-17T18:26:30.521Z</time>
      </trkpt>
      <trkpt lat="46.94691" lon="-1.26897">
        <ele>47.22</ele>
        <time>2024-03-17T18:26:33.506Z</time>
      </trkpt>
      <trkpt lat="46.94679" lon="-1.26929">
        <ele>46.92</ele>
        <time>2024-03-17T18:26:36.496Z</time>
      </trkpt>
      <trkpt lat="46.94665" lon="-1.26928">
        <ele>46.42</ele>
        <time>2024-03-17T18:26:39.489Z</time>
      </trkpt>
      <trkpt lat="46.94668" lon="-1.26907">
        <ele>46.16</ele>
        <time>2024-03-17T18:26:42.485Z</time>
      </trkpt>
      <trkpt lat="46.94664" lon="-1.26895">
        <ele>45.82</ele>
        <time>2024-03-17T18:26:45.483Z</time>
      </trkpt>
      <trkpt lat="46.94658" lon="-1.26907">
        <ele>45.54</ele>
        <time>2024-03-17T18:26:48.483Z</time>
      </trkpt>
      <trkpt lat="46.94653" lon="-1.26944">
        <ele>45.36</ele>
        <time>2024-03-17T18:26:51.488Z</time>
      </trkpt>
      <trkpt lat="46.94645" lon="-1.26937">
        <ele>45.12</ele>
        <time>2024-03-17T18:26:54.495Z</time>
      </trkpt>
      <trkpt lat="46.94655" lon="-1.26878">
        <ele>45.12</ele>
        <time>2024-03-17T18:26:57.510Z</time>
      </trkpt>
      <trkpt lat="46.94644" lon="-1.26851">
        <ele>44.95</ele>
        <time>2024-03-17T18:27:00.529Z</time>
      </trkpt>
      <trkpt lat="46.94641" lon="-1.26817">
        <ele>45.08</ele>
        <time>2024-03-17T18:27:03.553Z</time>
      </trkpt>
      <trkpt lat="46.9462" lon="-1.26712">
        <ele>45.42</ele>
        <time>2024-03-17T18:27:06.592Z</time>
      </trkpt>
      <trkpt lat="46.94642" lon="-1.26684">
        <ele>46.2</ele>
        <time>2024-03-17T18:27:09.637Z</time>
      </trkpt>
      <trkpt lat="46.94674" lon="-1.26837">
        <ele>46.53</ele>
        <time>2024-03-17T18:27:12.704Z</time>
      </trkpt>
      <trkpt lat="46.94674" lon="-1.26888">
        <ele>47.16</ele>
        <time>2024-03-17T18:27:15.778Z</time>
      </trkpt>
      <trkpt lat="46.94668" lon="-1.26883">
        <ele>47.66</ele>
        <time>2024-03-17T18:27:18.853Z</time>
      </trkpt>
      <trkpt lat="46.94656" lon="-1.26766">
        <ele>48.26</ele>
        <time>2024-03-17T18:27:21.944Z</time>
      </trkpt>
      <trkpt lat="46.94644" lon="-1.26812">
        <ele>48.72</ele>
        <time>2024-03-17T18:27:25.042Z</time>
      </trkpt>
      <trkpt lat="46.94624" lon="-1.26713">
        <ele>49.68</ele>
        <time>2024-03-17T18:27:28.154Z</time>
      </trkpt>
      <trkpt lat="46.9464" lon="-1.2669">
        <ele>51</ele>
        <time>2024-03-17T18:27:31.271Z</time>
      </trkpt>
      <trkpt lat="46.94656" lon="-1.26728">
        <ele>52.05</ele>
        <time>2024-03-17T18:27:34.394Z</time>
      </trkpt>
      <trkpt lat="46.94682" lon="-1.2672">
        <ele>53.44</ele>
        <time>2024-03-17T18:27:37.522Z</time>
      </trkpt>
      <trkpt lat="46.94685" lon="-1.2665">
        <ele>54.71</ele>
        <time>2024-03-17T18:27:40.660Z</time>
      </trkpt>
      <trkpt lat="46.94691" lon="-1.2657">
        <ele>56.1</ele>
        <time>2024-03-17T18:27:43.809Z</time>
      </trkpt>
      <trkpt lat="46.94671" lon="-1.26524">
        <ele>57.32</ele>
        <time>2024-03-17T18:27:46.965Z</time>
      </trkpt>
      <trkpt lat="46.94697" lon="-1.26517">
        <ele>58.43</ele>
        <time>2024-03-17T18:27:50.127Z</time>
      </trkpt>
      <trkpt lat="46.94761" lon="-1.26508">
        <ele>59.47</ele>
        <time>2024-03-17T18:27:53.301Z</time>
      </trkpt>
      <trkpt lat="46.94806" lon="-1.265">
        <ele>60.5</ele>
        <time>2024-03-17T18:27:56.484Z</time>
      </trkpt>
      <trkpt lat="46.94849" lon="-1.26434">
        <ele>61.54</ele>
        <time>2024-03-17T18:27:59.680Z</time>
      </trkpt>
      <trkpt lat="46.94882" lon="-1.26366">
        <ele>62.65</ele>
        <time>2024-03-17T18:28:02.887Z</time>
      </trkpt>
      <trkpt lat="46.94926" lon="-1.26267">
        <ele>63.55</ele>
        <time>2024-03-17T18:28:06.111Z</time>
      </trkpt>
      <trkpt lat="46.9493" lon="-1.2625">
        <ele>64.48</ele>
        <time>2024-03-17T18:28:09.337Z</time>
      </trkpt>
      <trkpt lat="46.94932" lon="-1.26236">
        <ele>65.32</ele>
        <time>2024-03-17T18:28:12.565Z</time>
      </trkpt>
      <trkpt lat="46.9493" lon="-1.26226">
        <ele>66.06</ele>
        <time>2024-03-17T18:28:15.794Z</time>
      </trkpt>
      <trkpt lat="46.94868" lon="-1.25994">
        <ele>66.96</ele>
        <time>2024-03-17T18:28:19.058Z</time>
      </trkpt>
      <trkpt lat="46.94768" lon="-1.2569">
        <ele>67.61</ele>
        <time>2024-03-17T18:28:22.368Z</time>
      </trkpt>
      <trkpt lat="46.94737" lon="-1.25585">
        <ele>68.14</ele>
        <time>2024-03-17T18:28:25.693Z</time>
      </trkpt>
      <trkpt lat="46.94712" lon="-1.25486">
        <ele>68.52</ele>
        <time>2024-03-17T18:28:29.033Z</time>
      </trkpt>
      <trkpt lat="46.94694" lon="-1.25384">
        <ele>68.83</ele>
        <time>2024-03-17T18:28:32.387Z</time>
      </trkpt>
      <trkpt lat="46.94648" lon="-1.25084">
        <ele>69.15</ele>
        <time>2024-03-17T18:28:35.783Z</time>
      </trkpt>
      <trkpt lat="46.9464" lon="-1.25074">
        <ele>69.21</ele>
        <time>2024-03-17T18:28:39.182Z</time>
      </trkpt>
      <trkpt lat="46.94542" lon="-1.24999">
        <ele>69.13</ele>
        <time>2024-03-17T18:28:42.603Z</time>
      </trkpt>
      <trkpt lat="46.94509" lon="-1.24961">
        <ele>68.83</ele>
        <time>2024-03-17T18:28:46.032Z</time>
      </trkpt>
      <trkpt lat="46.94451" lon="-1.24886">
        <ele>68.38</ele>
        <time>2024-03-17T18:28:49.477Z</time>
      </trkpt>
      <trkpt lat="46.94369" lon="-1.24772">
        <ele>67.85</ele>
        <time>2024-03-17T18:28:52.944Z</time>
      </trkpt>
      <trkpt lat="46.94338" lon="-1.24725">
        <ele>67.35</ele>
        <time>2024-03-17T18:28:56.420Z</time>
      </trkpt>
      <trkpt lat="46.94326" lon="-1.24726">
        <ele>66.83</ele>
        <time>2024-03-17T18:28:59.898Z</time>
      </trkpt>
      <trkpt lat="46.94313" lon="-1.24732">
        <ele>66.24</ele>
        <time>2024-03-17T18:29:03.379Z</time>
      </trkpt>
      <trkpt lat="46.94291" lon="-1.24744">
        <ele>65.56</ele>
        <time>2024-03-17T18:29:06.865Z</time>
      </trkpt>
      <trkpt lat="46.94282" lon="-1.24752">
        <ele>64.86</ele>
        <time>2024-03-17T18:29:10.353Z</time>
      </trkpt>
      <trkpt lat="46.94266" lon="-1.24761">
        <ele>64.1</ele>
        <time>2024-03-17T18:29:13.844Z</time>
      </trkpt>
      <trkpt lat="46.9425" lon="-1.24772">
        <ele>63.31</ele>
        <time>2024-03-17T18:29:17.339Z</time>
      </trkpt>
      <trkpt lat="46.94241" lon="-1.24789">
        <ele>62.5</ele>
        <time>2024-03-17T18:29:20.837Z</time>
      </trkpt>
      <trkpt lat="46.94216" lon="-1.24796">
        <ele>61.66</ele>
        <time>2024-03-17T18:29:24.340Z</time>
      </trkpt>
      <trkpt lat="46.9418" lon="-1.24857">
        <ele>60.96</ele>
        <time>2024-03-17T18:29:27.854Z</time>
      </trkpt>
      <trkpt lat="46.94171" lon="-1.24867">
        <ele>60.13</ele>
        <time>2024-03-17T18:29:31.370Z</time>
      </trkpt>
      <trkpt lat="46.94129" lon="-1.24895">
        <ele>59.18</ele>
        <time>2024-03-17T18:29:34.895Z</time>
      </trkpt>
      <trkpt lat="46.94117" lon="-1.24907">
        <ele>58.35</ele>
        <time>2024-03-17T18:29:38.424Z</time>
      </trkpt>
      <trkpt lat="46.94102" lon="-1.24927">
        <ele>57.6</ele>
        <time>2024-03-17T18:29:41.957Z</time>
      </trkpt>
      <trkpt lat="46.94077" lon="-1.24976">
        <ele>56.81</ele>
        <time>2024-03-17T18:29:45.498Z</time>
      </trkpt>
      <trkpt lat="46.94072" lon="-1.25002">
        <ele>56.05</ele>
        <time>2024-03-17T18:29:49.043Z</time>
      </trkpt>
      <trkpt lat="46.94071" lon="-1.25016">
        <ele>55.31</ele>
        <time>2024-03-17T18:29:52.590Z</time>
      </trkpt>
      <trkpt lat="46.94031" lon="-1.24945">
        <ele>54.57</ele>
        <time>2024-03-17T18:29:56.149Z</time>
      </trkpt>
      <trkpt lat="46.9401" lon="-1.24915">
        <ele>53.84</ele>
        <time>2024-03-17T18:29:59.714Z</time>
      </trkpt>
      <trkpt lat="46.93973" lon="-1.24885">
        <ele>53.1</ele>
        <time>2024-03-17T18:30:03.287Z</time>
      </trkpt>
      <trkpt lat="46.93952" lon="-1.24872">
        <ele>52.4</ele>
        <time>2024-03-17T18:30:06.865Z</time>
      </trkpt>
      <trkpt lat="46.93945" lon="-1.24863">
        <ele>51.76</ele>
        <time>2024-03-17T18:30:10.445Z</time>
      </trkpt>
      <trkpt lat="46.93937" lon="-1.24905">
        <ele>51.21</ele>
        <time>2024-03-17T18:30:14.031Z</time>
      </trkpt>
      <trkpt lat="46.93923" lon="-1.24922">
        <ele>50.6</ele>
        <time>2024-03-17T18:30:17.621Z</time>
      </trkpt>
      <trkpt lat="46.93906" lon="-1.24915">
        <ele>50.01</ele>
        <time>2024-03-17T18:30:21.214Z</time>
      </trkpt>
      <trkpt lat="46.93923" lon="-1.24871">
        <ele>49.64</ele>
        <time>2024-03-17T18:30:24.814Z</time>
      </trkpt>
      <trkpt lat="46.93901" lon="-1.24823">
        <ele>49.14</ele>
        <time>2024-03-17T18:30:28.422Z</time>
      </trkpt>
      <trkpt lat="46.93889" lon="-1.24772">
        <ele>48.93</ele>
        <time>2024-03-17T18:30:32.037Z</time>
      </trkpt>
      <trkpt lat="46.93894" lon="-1.24767">
        <ele>48.56</ele>
        <time>2024-03-17T18:30:35.654Z</time>
      </trkpt>
      <trkpt lat="46.93888" lon="-1.24762">
        <ele>48.28</ele>
        <time>2024-03-17T18:30:39.272Z</time>
      </trkpt>
      <trkpt lat="46.93865" lon="-1.24735">
        <ele>48.16</ele>
        <time>2024-03-17T18:30:42.896Z</time>
      </trkpt>
      <trkpt lat="46.93835" lon="-1.24791">
        <ele>47.71</ele>
        <time>2024-03-17T18:30:46.530Z</time>
      </trkpt>
      <trkpt lat="46.93834" lon="-1.24864">
        <ele>47.05</ele>
        <time>2024-03-17T18:30:50.174Z</time>
      </trkpt>
      <trkpt lat="46.93822" lon="-1.24919">
        <ele>46.57</ele>
        <time>2024-03-17T18:30:53.826Z</time>
      </trkpt>
      <trkpt lat="46.93799" lon="-1.24945">
        <ele>46.34</ele>
        <time>2024-03-17T18:30:57.483Z</time>
      </trkpt>
      <trkpt lat="46.93817" lon="-1.24864">
        <ele>46.63</ele>
        <time>2024-03-17T18:31:01.152Z</time>
      </trkpt>
      <trkpt lat="46.93827" lon="-1.24816">
        <ele>46.99</ele>
        <time>2024-03-17T18:31:04.828Z</time>
      </trkpt>
      <trkpt lat="46.9382" lon="-1.24758">
        <ele>47.27</ele>
        <time>2024-03-17T18:31:08.512Z</time>
      </trkpt>
      <trkpt lat="46.93789" lon="-1.24759">
        <ele>47.02</ele>
        <time>2024-03-17T18:31:12.202Z</time>
      </trkpt>
      <trkpt lat="46.93772" lon="-1.24754">
        <ele>47.01</ele>
        <time>2024-03-17T18:31:15.896Z</time>
      </trkpt>
      <trkpt lat="46.93753" lon="-1.24687">
        <ele>47.23</ele>
        <time>2024-03-17T18:31:19.600Z</time>
      </trkpt>
      <trkpt lat="46.93747" lon="-1.24679">
        <ele>47.44</ele>
        <time>2024-03-17T18:31:23.305Z</time>
      </trkpt>
      <trkpt lat="46.93741" lon="-1.24691">
        <ele>47.65</ele>
        <time>2024-03-17T18:31:27.012Z</time>
      </trkpt>
      <trkpt lat="46.9373" lon="-1.24651">
        <ele>47.98</ele>
        <time>2024-03-17T18:31:30.725Z</time>
      </trkpt>
      <trkpt lat="46.93701" lon="-1.2457">
        <ele>48.44</ele>
        <time>2024-03-17T18:31:34.451Z</time>
      </trkpt>
      <trkpt lat="46.93703" lon="-1.24559">
        <ele>48.92</ele>
        <time>2024-03-17T18:31:38.178Z</time>
      </trkpt>
      <trkpt lat="46.9369" lon="-1.24548">
        <ele>49.2</ele>
        <time>2024-03-17T18:31:41.908Z</time>
      </trkpt>
      <trkpt lat="46.93698" lon="-1.24525">
        <ele>46.8</ele>
        <time>2024-03-17T18:31:45.642Z</time>
      </trkpt>
      <trkpt lat="46.93701" lon="-1.24516">
        <ele>49.89</ele>
        <time>2024-03-17T18:31:49.377Z</time>
      </trkpt>
      <trkpt lat="46.937" lon="-1.24512">
        <ele>48.22</ele>
        <time>2024-03-17T18:31:53.113Z</time>
      </trkpt>
      <trkpt lat="46.937" lon="-1.24512">
        <ele>48.2</ele>
        <time>2024-03-17T18:31:56.849Z</time>
      </trkpt>
      <trkpt lat="46.93688" lon="-1.24511">
        <ele>45.77</ele>
        <time>2024-03-17T18:32:00.587Z</time>
      </trkpt>
      <trkpt lat="46.93688" lon="-1.24511">
        <ele>45.77</ele>
        <time>2024-03-17T18:32:04.325Z</time>
      </trkpt>
      <trkpt lat="46.93684" lon="-1.24499">
        <ele>45.67</ele>
        <time>2024-03-17T18:32:08.065Z</time>
      </trkpt>
      <trkpt lat="46.93684" lon="-1.24499">
        <ele>45.67</ele>
        <time>2024-03-17T18:32:11.805Z</time>
      </trkpt>
      <trkpt lat="46.93674" lon="-1.24507">
        <ele>43.26</ele>
        <time>2024-03-17T18:32:15.547Z</time>
      </trkpt>
      <trkpt lat="46.93674" lon="-1.24507">
        <ele>43.25</ele>
        <time>2024-03-17T18:32:19.289Z</time>
      </trkpt>
      <trkpt lat="46.93676" lon="-1.24515">
        <ele>42.96</ele>
        <time>2024-03-17T18:32:23.032Z</time>
      </trkpt>
      <trkpt lat="46.93676" lon="-1.24515">
        <ele>42.96</ele>
        <time>2024-03-17T18:32:26.775Z</time>
      </trkpt>
      <trkpt lat="46.93683" lon="-1.24529">
        <ele>43.24</ele>
        <time>2024-03-17T18:32:30.521Z</time>
      </trkpt>
      <trkpt lat="46.93683" lon="-1.24529">
        <ele>43.25</ele>
        <time>2024-03-17T18:32:34.267Z</time>
      </trkpt>
      <trkpt lat="46.93691" lon="-1.24546">
        <ele>44.03</ele>
        <time>2024-03-17T18:32:38.015Z</time>
      </trkpt>
      <trkpt lat="46.93691" lon="-1.24546">
        <ele>44.04</ele>
        <time>2024-03-17T18:32:41.763Z</time>
      </trkpt>
      <trkpt lat="46.93701" lon="-1.24516">
        <ele>48.03</ele>
        <time>2024-03-17T18:32:45.516Z</time>
      </trkpt>
      <trkpt lat="46.93701" lon="-1.24516">
        <ele>48.05</ele>
        <time>2024-03-17T18:32:49.269Z</time>
      </trkpt>
      <trkpt lat="46.93692" lon="-1.2449">
        <ele>48.19</ele>
        <time>2024-03-17T18:32:53.026Z</time>
      </trkpt>
      <trkpt lat="46.93692" lon="-1.2449">
        <ele>48.2</ele>
        <time>2024-03-17T18:32:56.783Z</time>
      </trkpt>
      <trkpt lat="46.93684" lon="-1.24465">
        <ele>50.34</ele>
        <time>2024-03-17T18:33:00.544Z</time>
      </trkpt>
      <trkpt lat="46.93675" lon="-1.24414">
        <ele>51.03</ele>
        <time>2024-03-17T18:33:04.312Z</time>
      </trkpt>
      <trkpt lat="46.93667" lon="-1.24371">
        <ele>51.77</ele>
        <time>2024-03-17T18:33:08.086Z</time>
      </trkpt>
      <trkpt lat="46.93675" lon="-1.24359">
        <ele>52.39</ele>
        <time>2024-03-17T18:33:11.862Z</time>
      </trkpt>
      <trkpt lat="46.93662" lon="-1.24329">
        <ele>52.68</ele>
        <time>2024-03-17T18:33:15.643Z</time>
      </trkpt>
      <trkpt lat="46.936" lon="-1.2425">
        <ele>52.8</ele>
        <time>2024-03-17T18:33:19.441Z</time>
      </trkpt>
      <trkpt lat="46.93567" lon="-1.2421">
        <ele>53.18</ele>
        <time>2024-03-17T18:33:23.247Z</time>
      </trkpt>
      <trkpt lat="46.93558" lon="-1.24242">
        <ele>53.16</ele>
        <time>2024-03-17T18:33:27.058Z</time>
      </trkpt>
      <trkpt lat="46.93557" lon="-1.24257">
        <ele>53.13</ele>
        <time>2024-03-17T18:33:30.871Z</time>
      </trkpt>
      <trkpt lat="46.93615" lon="-1.24309">
        <ele>53</ele>
        <time>2024-03-17T18:33:34.698Z</time>
      </trkpt>
      <trkpt lat="46.93612" lon="-1.24328">
        <ele>52.83</ele>
        <time>2024-03-17T18:33:38.528Z</time>
      </trkpt>
      <trkpt lat="46.93573" lon="-1.24287">
        <ele>52.94</ele>
        <time>2024-03-17T18:33:42.367Z</time>
      </trkpt>
      <trkpt lat="46.93571" lon="-1.24294">
        <ele>52.83</ele>
        <time>2024-03-17T18:33:46.207Z</time>
      </trkpt>
      <trkpt lat="46.936" lon="-1.2433">
        <ele>52.6</ele>
        <time>2024-03-17T18:33:50.055Z</time>
      </trkpt>
      <trkpt lat="46.93587" lon="-1.24347">
        <ele>52.4</ele>
        <time>2024-03-17T18:33:53.907Z</time>
      </trkpt>
      <trkpt lat="46.93559" lon="-1.24301">
        <ele>52.66</ele>
        <time>2024-03-17T18:33:57.767Z</time>
      </trkpt>
      <trkpt lat="46.93479" lon="-1.24238">
        <ele>52.31</ele>
        <time>2024-03-17T18:34:01.645Z</time>
      </trkpt>
      <trkpt lat="46.93438" lon="-1.24206">
        <ele>52.41</ele>
        <time>2024-03-17T18:34:05.532Z</time>
      </trkpt>
      <trkpt lat="46.93459" lon="-1.24113">
        <ele>53.15</ele>
        <time>2024-03-17T18:34:09.433Z</time>
      </trkpt>
      <trkpt lat="46.93403" lon="-1.24054">
        <ele>53.12</ele>
        <time>2024-03-17T18:34:13.348Z</time>
      </trkpt>
      <trkpt lat="46.93337" lon="-1.23995">
        <ele>53.06</ele>
        <time>2024-03-17T18:34:17.278Z</time>
      </trkpt>
      <trkpt lat="46.93296" lon="-1.24019">
        <ele>53.02</ele>
        <time>2024-03-17T18:34:21.217Z</time>
      </trkpt>
      <trkpt lat="46.93281" lon="-1.24007">
        <ele>53.05</ele>
        <time>2024-03-17T18:34:25.159Z</time>
      </trkpt>
      <trkpt lat="46.93245" lon="-1.24005">
        <ele>52.97</ele>
        <time>2024-03-17T18:34:29.109Z</time>
      </trkpt>
      <trkpt lat="46.93221" lon="-1.24046">
        <ele>52.71</ele>
        <time>2024-03-17T18:34:33.066Z</time>
      </trkpt>
      <trkpt lat="46.93137" lon="-1.24075">
        <ele>52.16</ele>
        <time>2024-03-17T18:34:37.040Z</time>
      </trkpt>
      <trkpt lat="46.93134" lon="-1.24018">
        <ele>52.37</ele>
        <time>2024-03-17T18:34:41.022Z</time>
      </trkpt>
      <trkpt lat="46.93113" lon="-1.24005">
        <ele>52.67</ele>
        <time>2024-03-17T18:34:45.009Z</time>
      </trkpt>
      <trkpt lat="46.92993" lon="-1.23995">
        <ele>53.81</ele>
        <time>2024-03-17T18:34:49.020Z</time>
      </trkpt>
      <trkpt lat="46.93001" lon="-1.24036">
        <ele>53.87</ele>
        <time>2024-03-17T18:34:53.037Z</time>
      </trkpt>
      <trkpt lat="46.92992" lon="-1.2405">
        <ele>54.1</ele>
        <time>2024-03-17T18:34:57.056Z</time>
      </trkpt>
      <trkpt lat="46.92995" lon="-1.24056">
        <ele>54.22</ele>
        <time>2024-03-17T18:35:01.076Z</time>
      </trkpt>
      <trkpt lat="46.92992" lon="-1.24085">
        <ele>54.31</ele>
        <time>2024-03-17T18:35:05.100Z</time>
      </trkpt>
      <trkpt lat="46.92996" lon="-1.24112">
        <ele>54.33</ele>
        <time>2024-03-17T18:35:09.128Z</time>
      </trkpt>
      <trkpt lat="46.93014" lon="-1.24103">
        <ele>54.4</ele>
        <time>2024-03-17T18:35:13.160Z</time>
      </trkpt>
      <trkpt lat="46.93032" lon="-1.24144">
        <ele>54.28</ele>
        <time>2024-03-17T18:35:17.199Z</time>
      </trkpt>
      <trkpt lat="46.92994" lon="-1.24173">
        <ele>54.46</ele>
        <time>2024-03-17T18:35:21.246Z</time>
      </trkpt>
      <trkpt lat="46.9301" lon="-1.24218">
        <ele>54.54</ele>
        <time>2024-03-17T18:35:25.300Z</time>
      </trkpt>
      <trkpt lat="46.93084" lon="-1.2417">
        <ele>54.52</ele>
        <time>2024-03-17T18:35:29.370Z</time>
      </trkpt>
      <trkpt lat="46.93146" lon="-1.24234">
        <ele>54.72</ele>
        <time>2024-03-17T18:35:33.456Z</time>
      </trkpt>
      <trkpt lat="46.93211" lon="-1.24285">
        <ele>54.95</ele>
        <time>2024-03-17T18:35:37.556Z</time>
      </trkpt>
      <trkpt lat="46.9327" lon="-1.24313">
        <ele>54.87</ele>
        <time>2024-03-17T18:35:41.669Z</time>
      </trkpt>
      <trkpt lat="46.93417" lon="-1.24366">
        <ele>54.79</ele>
        <time>2024-03-17T18:35:45.812Z</time>
      </trkpt>
      <trkpt lat="46.9346" lon="-1.24397">
        <ele>54.94</ele>
        <time>2024-03-17T18:35:49.965Z</time>
      </trkpt>
      <trkpt lat="46.93461" lon="-1.24371">
        <ele>54.67</ele>
        <time>2024-03-17T18:35:54.121Z</time>
      </trkpt>
      <trkpt lat="46.93498" lon="-1.24391">
        <ele>54.6</ele>
        <time>2024-03-17T18:35:58.285Z</time>
      </trkpt>
      <trkpt lat="46.9353" lon="-1.2439">
        <ele>54.33</ele>
        <time>2024-03-17T18:36:02.456Z</time>
      </trkpt>
      <trkpt lat="46.93557" lon="-1.24402">
        <ele>54</ele>
        <time>2024-03-17T18:36:06.632Z</time>
      </trkpt>
      <trkpt lat="46.93562" lon="-1.24402">
        <ele>53.72</ele>
        <time>2024-03-17T18:36:10.809Z</time>
      </trkpt>
      <trkpt lat="46.93574" lon="-1.24423">
        <ele>53.47</ele>
        <time>2024-03-17T18:36:14.990Z</time>
      </trkpt>
      <trkpt lat="46.93588" lon="-1.24453">
        <ele>53.08</ele>
        <time>2024-03-17T18:36:19.176Z</time>
      </trkpt>
      <trkpt lat="46.93591" lon="-1.24465">
        <ele>52.73</ele>
        <time>2024-03-17T18:36:23.364Z</time>
      </trkpt>
      <trkpt lat="46.93525" lon="-1.24438">
        <ele>52.95</ele>
        <time>2024-03-17T18:36:27.566Z</time>
      </trkpt>
      <trkpt lat="46.93525" lon="-1.24479">
        <ele>52.64</ele>
        <time>2024-03-17T18:36:31.773Z</time>
      </trkpt>
      <trkpt lat="46.9355" lon="-1.24515">
        <ele>52.15</ele>
        <time>2024-03-17T18:36:35.987Z</time>
      </trkpt>
      <trkpt lat="46.93563" lon="-1.24506">
        <ele>51.51</ele>
        <time>2024-03-17T18:36:40.204Z</time>
      </trkpt>
      <trkpt lat="46.93593" lon="-1.24595">
        <ele>50.95</ele>
        <time>2024-03-17T18:36:44.435Z</time>
      </trkpt>
      <trkpt lat="46.93599" lon="-1.2457">
        <ele>50.22</ele>
        <time>2024-03-17T18:36:48.669Z</time>
      </trkpt>
      <trkpt lat="46.93616" lon="-1.24607">
        <ele>49.38</ele>
        <time>2024-03-17T18:36:52.909Z</time>
      </trkpt>
      <trkpt lat="46.9363" lon="-1.24589">
        <ele>48.41</ele>
        <time>2024-03-17T18:36:57.153Z</time>
      </trkpt>
      <trkpt lat="46.93615" lon="-1.24565">
        <ele>47.81</ele>
        <time>2024-03-17T18:37:01.402Z</time>
      </trkpt>
      <trkpt lat="46.93615" lon="-1.24565">
        <ele>47.81</ele>
        <time>2024-03-17T18:37:05.651Z</time>
      </trkpt>
      <trkpt lat="46.93575" lon="-1.24511">
        <ele>47.39</ele>
        <time>2024-03-17T18:37:09.910Z</time>
      </trkpt>
      <trkpt lat="46.93595" lon="-1.24491">
        <ele>46.29</ele>
        <time>2024-03-17T18:37:14.174Z</time>
      </trkpt>
      <trkpt lat="46.93609" lon="-1.24516">
        <ele>45.5</ele>
        <time>2024-03-17T18:37:18.442Z</time>
      </trkpt>
      <trkpt lat="46.93603" lon="-1.24471">
        <ele>44.67</ele>
        <time>2024-03-17T18:37:22.717Z</time>
      </trkpt>
      <trkpt lat="46.93623" lon="-1.24464">
        <ele>43.78</ele>
        <time>2024-03-17T18:37:26.996Z</time>
      </trkpt>
      <trkpt lat="46.93648" lon="-1.24448">
        <ele>43.27</ele>
        <time>2024-03-17T18:37:31.280Z</time>
      </trkpt>
      <trkpt lat="46.93674" lon="-1.24514">
        <ele>42.79</ele>
        <time>2024-03-17T18:37:35.575Z</time>
      </trkpt>
      <trkpt lat="46.93671" lon="-1.24536">
        <ele>42.29</ele>
        <time>2024-03-17T18:37:39.873Z</time>
      </trkpt>
      <trkpt lat="46.93766" lon="-1.24792">
        <ele>42.02</ele>
        <time>2024-03-17T18:37:44.211Z</time>
      </trkpt>
      <trkpt lat="46.93798" lon="-1.24966">
        <ele>41.56</ele>
        <time>2024-03-17T18:37:48.573Z</time>
      </trkpt>
      <trkpt lat="46.93805" lon="-1.25019">
        <ele>41.49</ele>
        <time>2024-03-17T18:37:52.943Z</time>
      </trkpt>
      <trkpt lat="46.93811" lon="-1.25078">
        <ele>41.34</ele>
        <time>2024-03-17T18:37:57.321Z</time>
      </trkpt>
      <trkpt lat="46.93795" lon="-1.2522">
        <ele>41.45</ele>
        <time>2024-03-17T18:38:01.719Z</time>
      </trkpt>
      <trkpt lat="46.93793" lon="-1.25283">
        <ele>41.54</ele>
        <time>2024-03-17T18:38:06.125Z</time>
      </trkpt>
      <trkpt lat="46.93791" lon="-1.25349">
        <ele>41.82</ele>
        <time>2024-03-17T18:38:10.540Z</time>
      </trkpt>
      <trkpt lat="46.93766" lon="-1.25458">
        <ele>42.44</ele>
        <time>2024-03-17T18:38:14.971Z</time>
      </trkpt>
      <trkpt lat="46.9373" lon="-1.2546">
        <ele>43.19</ele>
        <time>2024-03-17T18:38:19.409Z</time>
      </trkpt>
      <trkpt lat="46.93726" lon="-1.25462">
        <ele>43.84</ele>
        <time>2024-03-17T18:38:23.848Z</time>
      </trkpt>
      <trkpt lat="46.93681" lon="-1.25493">
        <ele>44.89</ele>
        <time>2024-03-17T18:38:28.297Z</time>
      </trkpt>
      <trkpt lat="46.93617" lon="-1.25509">
        <ele>45.66</ele>
        <time>2024-03-17T18:38:32.759Z</time>
      </trkpt>
      <trkpt lat="46.93604" lon="-1.25489">
        <ele>46.46</ele>
        <time>2024-03-17T18:38:37.225Z</time>
      </trkpt>
      <trkpt lat="46.93679" lon="-1.25449">
        <ele>47.3</ele>
        <time>2024-03-17T18:38:41.707Z</time>
      </trkpt>
      <trkpt lat="46.93689" lon="-1.25394">
        <ele>48.06</ele>
        <time>2024-03-17T18:38:46.197Z</time>
      </trkpt>
      <trkpt lat="46.9368" lon="-1.25264">
        <ele>49.22</ele>
        <time>2024-03-17T18:38:50.705Z</time>
      </trkpt>
      <trkpt lat="46.93697" lon="-1.25297">
        <ele>49.97</ele>
        <time>2024-03-17T18:38:55.218Z</time>
      </trkpt>
      <trkpt lat="46.93712" lon="-1.25428">
        <ele>50.75</ele>
        <time>2024-03-17T18:38:59.750Z</time>
      </trkpt>
      <trkpt lat="46.93716" lon="-1.25461">
        <ele>51.71</ele>
        <time>2024-03-17T18:39:04.286Z</time>
      </trkpt>
      <trkpt lat="46.93676" lon="-1.25499">
        <ele>52.99</ele>
        <time>2024-03-17T18:39:08.832Z</time>
      </trkpt>
      <trkpt lat="46.936" lon="-1.2551">
        <ele>54</ele>
        <time>2024-03-17T18:39:13.393Z</time>
      </trkpt>
      <trkpt lat="46.9358" lon="-1.25509">
        <ele>55.02</ele>
        <time>2024-03-17T18:39:17.958Z</time>
      </trkpt>
      <trkpt lat="46.93565" lon="-1.25517">
        <ele>56.01</ele>
        <time>2024-03-17T18:39:22.526Z</time>
      </trkpt>
      <trkpt lat="46.93546" lon="-1.2554">
        <ele>57.09</ele>
        <time>2024-03-17T18:39:27.099Z</time>
      </trkpt>
      <trkpt lat="46.9352" lon="-1.25581">
        <ele>58.28</ele>
        <time>2024-03-17T18:39:31.680Z</time>
      </trkpt>
      <trkpt lat="46.93484" lon="-1.25635">
        <ele>59.31</ele>
        <time>2024-03-17T18:39:36.271Z</time>
      </trkpt>
      <trkpt lat="46.93483" lon="-1.25637">
        <ele>60.1</ele>
        <time>2024-03-17T18:39:40.862Z</time>
      </trkpt>
      <trkpt lat="46.93471" lon="-1.25628">
        <ele>60.83</ele>
        <time>2024-03-17T18:39:45.456Z</time>
      </trkpt>
      <trkpt lat="46.93447" lon="-1.25605">
        <ele>61.42</ele>
        <time>2024-03-17T18:39:50.056Z</time>
      </trkpt>
      <trkpt lat="46.93434" lon="-1.25585">
        <ele>61.98</ele>
        <time>2024-03-17T18:39:54.660Z</time>
      </trkpt>
      <trkpt lat="46.93432" lon="-1.25549">
        <ele>62.45</ele>
        <time>2024-03-17T18:39:59.269Z</time>
      </trkpt>
      <trkpt lat="46.93432" lon="-1.25512">
        <ele>62.86</ele>
        <time>2024-03-17T18:40:03.883Z</time>
      </trkpt>
      <trkpt lat="46.93426" lon="-1.25472">
        <ele>63.24</ele>
        <time>2024-03-17T18:40:08.502Z</time>
      </trkpt>
      <trkpt lat="46.93396" lon="-1.25401">
        <ele>63.58</ele>
        <time>2024-03-17T18:40:13.133Z</time>
      </trkpt>
      <trkpt lat="46.93335" lon="-1.25258">
        <ele>63.61</ele>
        <time>2024-03-17T18:40:17.787Z</time>
      </trkpt>
      <trkpt lat="46.9333" lon="-1.25236">
        <ele>63.72</ele>
        <time>2024-03-17T18:40:22.444Z</time>
      </trkpt>
      <trkpt lat="46.93248" lon="-1.25301">
        <ele>63.85</ele>
        <time>2024-03-17T18:40:27.120Z</time>
      </trkpt>
      <trkpt lat="46.93241" lon="-1.25275">
        <ele>63.86</ele>
        <time>2024-03-17T18:40:31.799Z</time>
      </trkpt>
      <trkpt lat="46.93206" lon="-1.25182">
        <ele>63.81</ele>
        <time>2024-03-17T18:40:36.493Z</time>
      </trkpt>
      <trkpt lat="46.93167" lon="-1.25098">
        <ele>63.48</ele>
        <time>2024-03-17T18:40:41.201Z</time>
      </trkpt>
      <trkpt lat="46.93113" lon="-1.2496">
        <ele>63.3</ele>
        <time>2024-03-17T18:40:45.931Z</time>
      </trkpt>
      <trkpt lat="46.93072" lon="-1.24845">
        <ele>63.08</ele>
        <time>2024-03-17T18:40:50.678Z</time>
      </trkpt>
      <trkpt lat="46.93043" lon="-1.24742">
        <ele>62.78</ele>
        <time>2024-03-17T18:40:55.441Z</time>
      </trkpt>
      <trkpt lat="46.9302" lon="-1.24578">
        <ele>62.34</ele>
        <time>2024-03-17T18:41:00.227Z</time>
      </trkpt>
      <trkpt lat="46.93013" lon="-1.24484">
        <ele>62</ele>
        <time>2024-03-17T18:41:05.026Z</time>
      </trkpt>
      <trkpt lat="46.92995" lon="-1.24411">
        <ele>61.46</ele>
        <time>2024-03-17T18:41:09.835Z</time>
      </trkpt>
      <trkpt lat="46.92983" lon="-1.24374">
        <ele>61.09</ele>
        <time>2024-03-17T18:41:14.650Z</time>
      </trkpt>
      <trkpt lat="46.92948" lon="-1.24261">
        <ele>60.44</ele>
        <time>2024-03-17T18:41:19.482Z</time>
      </trkpt>
      <trkpt lat="46.92941" lon="-1.24248">
        <ele>60.2</ele>
        <time>2024-03-17T18:41:24.316Z</time>
      </trkpt>
      <trkpt lat="46.92929" lon="-1.24242">
        <ele>60.06</ele>
        <time>2024-03-17T18:41:29.153Z</time>
      </trkpt>
      <trkpt lat="46.92874" lon="-1.24237">
        <ele>60.05</ele>
        <time>2024-03-17T18:41:34.001Z</time>
      </trkpt>
      <trkpt lat="46.92841" lon="-1.2422">
        <ele>60.18</ele>
        <time>2024-03-17T18:41:38.856Z</time>
      </trkpt>
      <trkpt lat="46.9282" lon="-1.24202">
        <ele>60.21</ele>
        <time>2024-03-17T18:41:43.715Z</time>
      </trkpt>
      <trkpt lat="46.92807" lon="-1.24165">
        <ele>60.42</ele>
        <time>2024-03-17T18:41:48.580Z</time>
      </trkpt>
      <trkpt lat="46.92802" lon="-1.24139">
        <ele>60.64</ele>
        <time>2024-03-17T18:41:53.449Z</time>
      </trkpt>
      <trkpt lat="46.92805" lon="-1.24027">
        <ele>61.03</ele>
        <time>2024-03-17T18:41:58.333Z</time>
      </trkpt>
      <trkpt lat="46.92807" lon="-1.24">
        <ele>61.36</ele>
        <time>2024-03-17T18:42:03.221Z</time>
      </trkpt>
      <trkpt lat="46.92812" lon="-1.23975">
        <ele>61.75</ele>
        <time>2024-03-17T18:42:08.113Z</time>
      </trkpt>
      <trkpt lat="46.92825" lon="-1.23956">
        <ele>62.12</ele>
        <time>2024-03-17T18:42:13.008Z</time>
      </trkpt>
      <trkpt lat="46.92845" lon="-1.23934">
        <ele>62.46</ele>
        <time>2024-03-17T18:42:17.908Z</time>
      </trkpt>
      <trkpt lat="46.92853" lon="-1.23917">
        <ele>62.82</ele>
        <time>2024-03-17T18:42:22.811Z</time>
      </trkpt>
      <trkpt lat="46.92853" lon="-1.23889">
        <ele>63.15</ele>
        <time>2024-03-17T18:42:27.718Z</time>
      </trkpt>
      <trkpt lat="46.92845" lon="-1.23867">
        <ele>63.43</ele>
        <time>2024-03-17T18:42:32.628Z</time>
      </trkpt>
      <trkpt lat="46.92834" lon="-1.23845">
        <ele>63.79</ele>
        <time>2024-03-17T18:42:37.542Z</time>
      </trkpt>
      <trkpt lat="46.9283" lon="-1.23814">
        <ele>64.15</ele>
        <time>2024-03-17T18:42:42.460Z</time>
      </trkpt>
      <trkpt lat="46.92834" lon="-1.23794">
        <ele>64.43</ele>
        <time>2024-03-17T18:42:47.381Z</time>
      </trkpt>
      <trkpt lat="46.92854" lon="-1.23752">
        <ele>64.71</ele>
        <time>2024-03-17T18:42:52.309Z</time>
      </trkpt>
      <trkpt lat="46.92861" lon="-1.23719">
        <ele>64.99</ele>
        <time>2024-03-17T18:42:57.242Z</time>
      </trkpt>
      <trkpt lat="46.92863" lon="-1.23683">
        <ele>65.21</ele>
        <time>2024-03-17T18:43:02.180Z</time>
      </trkpt>
      <trkpt lat="46.92865" lon="-1.23656">
        <ele>65.36</ele>
        <time>2024-03-17T18:43:07.122Z</time>
      </trkpt>
      <trkpt lat="46.92866" lon="-1.23589">
        <ele>65.48</ele>
        <time>2024-03-17T18:43:12.073Z</time>
      </trkpt>
      <trkpt lat="46.92862" lon="-1.23517">
        <ele>65.63</ele>
        <time>2024-03-17T18:43:17.034Z</time>
      </trkpt>
      <trkpt lat="46.92868" lon="-1.23488">
        <ele>65.63</ele>
        <time>2024-03-17T18:43:21.999Z</time>
      </trkpt>
      <trkpt lat="46.92889" lon="-1.23448">
        <ele>65.53</ele>
        <time>2024-03-17T18:43:26.971Z</time>
      </trkpt>
      <trkpt lat="46.92913" lon="-1.23414">
        <ele>65.28</ele>
        <time>2024-03-17T18:43:31.949Z</time>
      </trkpt>
      <trkpt lat="46.92925" lon="-1.23379">
        <ele>64.92</ele>
        <time>2024-03-17T18:43:36.933Z</time>
      </trkpt>
      <trkpt lat="46.92933" lon="-1.23328">
        <ele>64.45</ele>
        <time>2024-03-17T18:43:41.924Z</time>
      </trkpt>
      <trkpt lat="46.92939" lon="-1.23264">
        <ele>63.95</ele>
        <time>2024-03-17T18:43:46.924Z</time>
      </trkpt>
      <trkpt lat="46.92936" lon="-1.23222">
        <ele>63.4</ele>
        <time>2024-03-17T18:43:51.930Z</time>
      </trkpt>
      <trkpt lat="46.92927" lon="-1.23179">
        <ele>62.82</ele>
        <time>2024-03-17T18:43:56.942Z</time>
      </trkpt>
      <trkpt lat="46.92914" lon="-1.23135">
        <ele>62.27</ele>
        <time>2024-03-17T18:44:01.960Z</time>
      </trkpt>
      <trkpt lat="46.92894" lon="-1.23096">
        <ele>61.81</ele>
        <time>2024-03-17T18:44:06.985Z</time>
      </trkpt>
      <trkpt lat="46.92884" lon="-1.23063">
        <ele>61.36</ele>
        <time>2024-03-17T18:44:12.015Z</time>
      </trkpt>
      <trkpt lat="46.92865" lon="-1.22947">
        <ele>60.47</ele>
        <time>2024-03-17T18:44:17.061Z</time>
      </trkpt>
      <trkpt lat="46.92824" lon="-1.22806">
        <ele>59.68</ele>
        <time>2024-03-17T18:44:22.128Z</time>
      </trkpt>
      <trkpt lat="46.92779" lon="-1.22787">
        <ele>59.35</ele>
        <time>2024-03-17T18:44:27.205Z</time>
      </trkpt>
      <trkpt lat="46.927" lon="-1.228">
        <ele>59.44</ele>
        <time>2024-03-17T18:44:32.298Z</time>
      </trkpt>
      <trkpt lat="46.92649" lon="-1.2283">
        <ele>59.83</ele>
        <time>2024-03-17T18:44:37.402Z</time>
      </trkpt>
      <trkpt lat="46.92609" lon="-1.22889">
        <ele>60.03</ele>
        <time>2024-03-17T18:44:42.517Z</time>
      </trkpt>
      <trkpt lat="46.92591" lon="-1.22887">
        <ele>60.11</ele>
        <time>2024-03-17T18:44:47.636Z</time>
      </trkpt>
      <trkpt lat="46.92529" lon="-1.2286">
        <ele>60.47</ele>
        <time>2024-03-17T18:44:52.768Z</time>
      </trkpt>
      <trkpt lat="46.92417" lon="-1.22882">
        <ele>60.45</ele>
        <time>2024-03-17T18:44:57.922Z</time>
      </trkpt>
      <trkpt lat="46.924" lon="-1.22867">
        <ele>60.55</ele>
        <time>2024-03-17T18:45:03.080Z</time>
      </trkpt>
      <trkpt lat="46.92385" lon="-1.22788">
        <ele>60.7</ele>
        <time>2024-03-17T18:45:08.249Z</time>
      </trkpt>
      <trkpt lat="46.92325" lon="-1.22702">
        <ele>60.92</ele>
        <time>2024-03-17T18:45:13.435Z</time>
      </trkpt>
      <trkpt lat="46.92327" lon="-1.22651">
        <ele>60.95</ele>
        <time>2024-03-17T18:45:18.628Z</time>
      </trkpt>
      <trkpt lat="46.92304" lon="-1.22588">
        <ele>60.89</ele>
        <time>2024-03-17T18:45:23.831Z</time>
      </trkpt>
      <trkpt lat="46.92313" lon="-1.22463">
        <ele>60.49</ele>
        <time>2024-03-17T18:45:29.051Z</time>
      </trkpt>
      <trkpt lat="46.92354" lon="-1.22348">
        <ele>59.77</ele>
        <time>2024-03-17T18:45:34.289Z</time>
      </trkpt>
      <trkpt lat="46.92409" lon="-1.22248">
        <ele>58.98</ele>
        <time>2024-03-17T18:45:39.545Z</time>
      </trkpt>
      <trkpt lat="46.92455" lon="-1.22244">
        <ele>58.61</ele>
        <time>2024-03-17T18:45:44.810Z</time>
      </trkpt>
      <trkpt lat="46.92462" lon="-1.22291">
        <ele>58.51</ele>
        <time>2024-03-17T18:45:50.081Z</time>
      </trkpt>
      <trkpt lat="46.92452" lon="-1.22385">
        <ele>58.61</ele>
        <time>2024-03-17T18:45:55.365Z</time>
      </trkpt>
      <trkpt lat="46.92419" lon="-1.22485">
        <ele>58.88</ele>
        <time>2024-03-17T18:46:00.665Z</time>
      </trkpt>
      <trkpt lat="46.92442" lon="-1.22506">
        <ele>58.36</ele>
        <time>2024-03-17T18:46:05.970Z</time>
      </trkpt>
      <trkpt lat="46.92443" lon="-1.22547">
        <ele>58.06</ele>
        <time>2024-03-17T18:46:11.281Z</time>
      </trkpt>
      <trkpt lat="46.92395" lon="-1.22519">
        <ele>58.26</ele>
        <time>2024-03-17T18:46:16.602Z</time>
      </trkpt>
      <trkpt lat="46.92396" lon="-1.22572">
        <ele>57.86</ele>
        <time>2024-03-17T18:46:21.931Z</time>
      </trkpt>
      <trkpt lat="46.92349" lon="-1.22582">
        <ele>57.72</ele>
        <time>2024-03-17T18:46:27.269Z</time>
      </trkpt>
      <trkpt lat="46.92352" lon="-1.22511">
        <ele>57.11</ele>
        <time>2024-03-17T18:46:32.617Z</time>
      </trkpt>
      <trkpt lat="46.9238" lon="-1.22432">
        <ele>56.12</ele>
        <time>2024-03-17T18:46:37.977Z</time>
      </trkpt>
      <trkpt lat="46.92365" lon="-1.22389">
        <ele>55.49</ele>
        <time>2024-03-17T18:46:43.344Z</time>
      </trkpt>
      <trkpt lat="46.92368" lon="-1.22336">
        <ele>54.66</ele>
        <time>2024-03-17T18:46:48.718Z</time>
      </trkpt>
      <trkpt lat="46.92412" lon="-1.22252">
        <ele>53.57</ele>
        <time>2024-03-17T18:46:54.107Z</time>
      </trkpt>
      <trkpt lat="46.92415" lon="-1.22242">
        <ele>52.95</ele>
        <time>2024-03-17T18:46:59.497Z</time>
      </trkpt>
      <trkpt lat="46.92402" lon="-1.2224">
        <ele>52.43</ele>
        <time>2024-03-17T18:47:04.890Z</time>
      </trkpt>
      <trkpt lat="46.92381" lon="-1.22246">
        <ele>51.98</ele>
        <time>2024-03-17T18:47:10.287Z</time>
      </trkpt>
      <trkpt lat="46.92341" lon="-1.22249">
        <ele>51.5</ele>
        <time>2024-03-17T18:47:15.692Z</time>
      </trkpt>
      <trkpt lat="46.92301" lon="-1.22235">
        <ele>50.98</ele>
        <time>2024-03-17T18:47:21.105Z</time>
      </trkpt>
      <trkpt lat="46.92271" lon="-1.22234">
        <ele>50.72</ele>
        <time>2024-03-17T18:47:26.524Z</time>
      </trkpt>
      <trkpt lat="46.92199" lon="-1.2224">
        <ele>50.7</ele>
        <time>2024-03-17T18:47:31.958Z</time>
      </trkpt>
      <trkpt lat="46.92162" lon="-1.22238">
        <ele>50.74</ele>
        <time>2024-03-17T18:47:37.399Z</time>
      </trkpt>
      <trkpt lat="46.92129" lon="-1.22231">
        <ele>50.55</ele>
        <time>2024-03-17T18:47:42.847Z</time>
      </trkpt>
      <trkpt lat="46.92103" lon="-1.22215">
        <ele>50.35</ele>
        <time>2024-03-17T18:47:48.300Z</time>
      </trkpt>
      <trkpt lat="46.92053" lon="-1.2217">
        <ele>50.09</ele>
        <time>2024-03-17T18:47:53.765Z</time>
      </trkpt>
      <trkpt lat="46.92027" lon="-1.22162">
        <ele>50.29</ele>
        <time>2024-03-17T18:47:59.235Z</time>
      </trkpt>
      <trkpt lat="46.92008" lon="-1.22164">
        <ele>50.62</ele>
        <time>2024-03-17T18:48:04.709Z</time>
      </trkpt>
      <trkpt lat="46.92005" lon="-1.22164">
        <ele>50.85</ele>
        <time>2024-03-17T18:48:10.184Z</time>
      </trkpt>
      <trkpt lat="46.92004" lon="-1.22177">
        <ele>51.17</ele>
        <time>2024-03-17T18:48:15.661Z</time>
      </trkpt>
      <trkpt lat="46.91997" lon="-1.22185">
        <ele>51.56</ele>
        <time>2024-03-17T18:48:21.139Z</time>
      </trkpt>
      <trkpt lat="46.91987" lon="-1.22192">
        <ele>51.99</ele>
        <time>2024-03-17T18:48:26.620Z</time>
      </trkpt>
      <trkpt lat="46.9197" lon="-1.22194">
        <ele>52.42</ele>
        <time>2024-03-17T18:48:32.104Z</time>
      </trkpt>
      <trkpt lat="46.91952" lon="-1.2219">
        <ele>52.87</ele>
        <time>2024-03-17T18:48:37.592Z</time>
      </trkpt>
      <trkpt lat="46.91933" lon="-1.22193">
        <ele>53.29</ele>
        <time>2024-03-17T18:48:43.084Z</time>
      </trkpt>
      <trkpt lat="46.91931" lon="-1.22173">
        <ele>53.6</ele>
        <time>2024-03-17T18:48:48.578Z</time>
      </trkpt>
      <trkpt lat="46.91926" lon="-1.22156">
        <ele>53.91</ele>
        <time>2024-03-17T18:48:54.075Z</time>
      </trkpt>
      <trkpt lat="46.91925" lon="-1.22156">
        <ele>54.18</ele>
        <time>2024-03-17T18:48:59.572Z</time>
      </trkpt>
      <trkpt lat="46.91926" lon="-1.22156">
        <ele>53.91</ele>
        <time>2024-03-17T18:49:05.069Z</time>
      </trkpt>
      <trkpt lat="46.91923" lon="-1.22143">
        <ele>54.61</ele>
        <time>2024-03-17T18:49:10.568Z</time>
      </trkpt>
      <trkpt lat="46.91934" lon="-1.22142">
        <ele>54.75</ele>
        <time>2024-03-17T18:49:16.069Z</time>
      </trkpt>
      <trkpt lat="46.91947" lon="-1.22146">
        <ele>54.87</ele>
        <time>2024-03-17T18:49:21.573Z</time>
      </trkpt>
      <trkpt lat="46.9196" lon="-1.22144">
        <ele>54.95</ele>
        <time>2024-03-17T18:49:27.080Z</time>
      </trkpt>
      <trkpt lat="46.91955" lon="-1.22131">
        <ele>55.08</ele>
        <time>2024-03-17T18:49:32.589Z</time>
      </trkpt>
      <trkpt lat="46.91953" lon="-1.22106">
        <ele>55.1</ele>
        <time>2024-03-17T18:49:38.101Z</time>
      </trkpt>
      <trkpt lat="46.91962" lon="-1.221">
        <ele>55.14</ele>
        <time>2024-03-17T18:49:43.615Z</time>
      </trkpt>
      <trkpt lat="46.91968" lon="-1.22106">
        <ele>55.25</ele>
        <time>2024-03-17T18:49:49.131Z</time>
      </trkpt>
      <trkpt lat="46.92" lon="-1.22157">
        <ele>55.23</ele>
        <time>2024-03-17T18:49:54.656Z</time>
      </trkpt>
      <trkpt lat="46.92005" lon="-1.22164">
        <ele>50.85</ele>
        <time>2024-03-17T18:50:00.182Z</time>
      </trkpt>
      <trkpt lat="46.92004" lon="-1.22177">
        <ele>51.17</ele>
        <time>2024-03-17T18:50:05.710Z</time>
      </trkpt>
      <trkpt lat="46.91997" lon="-1.22185">
        <ele>51.56</ele>
        <time>2024-03-17T18:50:11.240Z</time>
      </trkpt>
      <trkpt lat="46.91987" lon="-1.22192">
        <ele>51.99</ele>
        <time>2024-03-17T18:50:16.772Z</time>
      </trkpt>
      <trkpt lat="46.9197" lon="-1.22194">
        <ele>52.42</ele>
        <time>2024-03-17T18:50:22.308Z</time>
      </trkpt>
      <trkpt lat="46.91952" lon="-1.2219">
        <ele>52.87</ele>
        <time>2024-03-17T18:50:27.847Z</time>
      </trkpt>
      <trkpt lat="46.91933" lon="-1.22193">
        <ele>53.29</ele>
        <time>2024-03-17T18:50:33.390Z</time>
      </trkpt>
      <trkpt lat="46.91931" lon="-1.22173">
        <ele>53.6</ele>
        <time>2024-03-17T18:50:38.936Z</time>
      </trkpt>
      <trkpt lat="46.91926" lon="-1.22156">
        <ele>53.91</ele>
        <time>2024-03-17T18:50:44.485Z</time>
      </trkpt>
      <trkpt lat="46.91921" lon="-1.22153">
        <ele>57.61</ele>
        <time>2024-03-17T18:50:50.035Z</time>
      </trkpt>
      <trkpt lat="46.91919" lon="-1.22154">
        <ele>57.8</ele>
        <time>2024-03-17T18:50:55.585Z</time>
      </trkpt>
      <trkpt lat="46.91916" lon="-1.22155">
        <ele>57.97</ele>
        <time>2024-03-17T18:51:01.136Z</time>
      </trkpt>
      <trkpt lat="46.91916" lon="-1.22159">
        <ele>58.14</ele>
        <time>2024-03-17T18:51:06.687Z</time>
      </trkpt>
      <trkpt lat="46.91921" lon="-1.22168">
        <ele>58.26</ele>
        <time>2024-03-17T18:51:12.240Z</time>
      </trkpt>
      <trkpt lat="46.91919" lon="-1.2217">
        <ele>58.4</ele>
        <time>2024-03-17T18:51:17.793Z</time>
      </trkpt>
      <trkpt lat="46.919" lon="-1.22166">
        <ele>58.6</ele>
        <time>2024-03-17T18:51:23.350Z</time>
      </trkpt>
      <trkpt lat="46.91898" lon="-1.2216">
        <ele>58.72</ele>
        <time>2024-03-17T18:51:28.908Z</time>
      </trkpt>
      <trkpt lat="46.91896" lon="-1.22143">
        <ele>58.84</ele>
        <time>2024-03-17T18:51:34.468Z</time>
      </trkpt>
      <trkpt lat="46.91879" lon="-1.22133">
        <ele>58.98</ele>
        <time>2024-03-17T18:51:40.032Z</time>
      </trkpt>
      <trkpt lat="46.91876" lon="-1.22123">
        <ele>59.08</ele>
        <time>2024-03-17T18:51:45.598Z</time>
      </trkpt>
      <trkpt lat="46.9188" lon="-1.22108">
        <ele>59.18</ele>
        <time>2024-03-17T18:51:51.166Z</time>
      </trkpt>
      <trkpt lat="46.9188" lon="-1.22089">
        <ele>59.27</ele>
        <time>2024-03-17T18:51:56.737Z</time>
      </trkpt>
      <trkpt lat="46.91904" lon="-1.22113">
        <ele>59.34</ele>
        <time>2024-03-17T18:52:02.313Z</time>
      </trkpt>
      <trkpt lat="46.91916" lon="-1.22132">
        <ele>59.47</ele>
        <time>2024-03-17T18:52:07.893Z</time>
      </trkpt>
      <trkpt lat="46.91924" lon="-1.2213">
        <ele>59.61</ele>
        <time>2024-03-17T18:52:13.474Z</time>
      </trkpt>
      <trkpt lat="46.91929" lon="-1.22115">
        <ele>59.75</ele>
        <time>2024-03-17T18:52:19.058Z</time>
      </trkpt>
      <trkpt lat="46.91924" lon="-1.22104">
        <ele>60</ele>
        <time>2024-03-17T18:52:24.643Z</time>
      </trkpt>
      <trkpt lat="46.91916" lon="-1.22093">
        <ele>60.32</ele>
        <time>2024-03-17T18:52:30.231Z</time>
      </trkpt>
      <trkpt lat="46.91912" lon="-1.2208">
        <ele>60.66</ele>
        <time>2024-03-17T18:52:35.821Z</time>
      </trkpt>
      <trkpt lat="46.91907" lon="-1.22035">
        <ele>60.89</ele>
        <time>2024-03-17T18:52:41.417Z</time>
      </trkpt>
      <trkpt lat="46.91909" lon="-1.2202">
        <ele>61.23</ele>
        <time>2024-03-17T18:52:47.015Z</time>
      </trkpt>
      <trkpt lat="46.91914" lon="-1.22011">
        <ele>61.67</ele>
        <time>2024-03-17T18:52:52.615Z</time>
      </trkpt>
      <trkpt lat="46.91912" lon="-1.21999">
        <ele>62.16</ele>
        <time>2024-03-17T18:52:58.216Z</time>
      </trkpt>
      <trkpt lat="46.91908" lon="-1.21993">
        <ele>62.72</ele>
        <time>2024-03-17T18:53:03.818Z</time>
      </trkpt>
      <trkpt lat="46.91523" lon="-1.21481">
        <ele>64.85</ele>
        <time>2024-03-17T18:53:09.525Z</time>
      </trkpt>
      <trkpt lat="46.91524" lon="-1.21481">
        <ele>65.41</ele>
        <time>2024-03-17T18:53:15.232Z</time>
      </trkpt>
      <trkpt lat="46.91515" lon="-1.21459">
        <ele>65.92</ele>
        <time>2024-03-17T18:53:20.942Z</time>
      </trkpt>
      <trkpt lat="46.91483" lon="-1.21272">
        <ele>66.33</ele>
        <time>2024-03-17T18:53:26.679Z</time>
      </trkpt>
      <trkpt lat="46.91461" lon="-1.21157">
        <ele>66.33</ele>
        <time>2024-03-17T18:53:32.432Z</time>
      </trkpt>
      <trkpt lat="46.91461" lon="-1.21148">
        <ele>66.64</ele>
        <time>2024-03-17T18:53:38.186Z</time>
      </trkpt>
      <trkpt lat="46.91466" lon="-1.21144">
        <ele>66.92</ele>
        <time>2024-03-17T18:53:43.941Z</time>
      </trkpt>
      <trkpt lat="46.91477" lon="-1.21144">
        <ele>67.16</ele>
        <time>2024-03-17T18:53:49.699Z</time>
      </trkpt>
      <trkpt lat="46.915" lon="-1.21151">
        <ele>67.31</ele>
        <time>2024-03-17T18:53:55.461Z</time>
      </trkpt>
      <trkpt lat="46.91517" lon="-1.2116">
        <ele>67.41</ele>
        <time>2024-03-17T18:54:01.227Z</time>
      </trkpt>
      <trkpt lat="46.91539" lon="-1.21187">
        <ele>67.42</ele>
        <time>2024-03-17T18:54:06.999Z</time>
      </trkpt>
      <trkpt lat="46.91546" lon="-1.2119">
        <ele>67.34</ele>
        <time>2024-03-17T18:54:12.772Z</time>
      </trkpt>
      <trkpt lat="46.91557" lon="-1.2119">
        <ele>67.19</ele>
        <time>2024-03-17T18:54:18.548Z</time>
      </trkpt>
      <trkpt lat="46.91571" lon="-1.21197">
        <ele>66.98</ele>
        <time>2024-03-17T18:54:24.327Z</time>
      </trkpt>
      <trkpt lat="46.91604" lon="-1.21207">
        <ele>66.62</ele>
        <time>2024-03-17T18:54:30.112Z</time>
      </trkpt>
      <trkpt lat="46.91615" lon="-1.2121">
        <ele>66.28</ele>
        <time>2024-03-17T18:54:35.899Z</time>
      </trkpt>
      <trkpt lat="46.91619" lon="-1.21207">
        <ele>65.93</ele>
        <time>2024-03-17T18:54:41.687Z</time>
      </trkpt>
      <trkpt lat="46.91622" lon="-1.21194">
        <ele>65.55</ele>
        <time>2024-03-17T18:54:47.477Z</time>
      </trkpt>
      <trkpt lat="46.91623" lon="-1.21173">
        <ele>65.11</ele>
        <time>2024-03-17T18:54:53.270Z</time>
      </trkpt>
      <trkpt lat="46.91619" lon="-1.21109">
        <ele>64.55</ele>
        <time>2024-03-17T18:54:59.072Z</time>
      </trkpt>
      <trkpt lat="46.91622" lon="-1.21101">
        <ele>64.13</ele>
        <time>2024-03-17T18:55:04.875Z</time>
      </trkpt>
      <trkpt lat="46.91645" lon="-1.21086">
        <ele>63.71</ele>
        <time>2024-03-17T18:55:10.683Z</time>
      </trkpt>
      <trkpt lat="46.91654" lon="-1.21077">
        <ele>63.3</ele>
        <time>2024-03-17T18:55:16.493Z</time>
      </trkpt>
      <trkpt lat="46.91661" lon="-1.21065">
        <ele>62.94</ele>
        <time>2024-03-17T18:55:22.305Z</time>
      </trkpt>
      <trkpt lat="46.91685" lon="-1.21013">
        <ele>62.61</ele>
        <time>2024-03-17T18:55:28.126Z</time>
      </trkpt>
      <trkpt lat="46.91693" lon="-1.20971">
        <ele>62.52</ele>
        <time>2024-03-17T18:55:33.953Z</time>
      </trkpt>
      <trkpt lat="46.91697" lon="-1.20959">
        <ele>62.23</ele>
        <time>2024-03-17T18:55:39.782Z</time>
      </trkpt>
      <trkpt lat="46.91721" lon="-1.20921">
        <ele>61.77</ele>
        <time>2024-03-17T18:55:45.618Z</time>
      </trkpt>
      <trkpt lat="46.91731" lon="-1.20909">
        <ele>61.38</ele>
        <time>2024-03-17T18:55:51.457Z</time>
      </trkpt>
      <trkpt lat="46.91748" lon="-1.20895">
        <ele>61</ele>
        <time>2024-03-17T18:55:57.299Z</time>
      </trkpt>
      <trkpt lat="46.91759" lon="-1.20884">
        <ele>60.72</ele>
        <time>2024-03-17T18:56:03.144Z</time>
      </trkpt>
      <trkpt lat="46.91766" lon="-1.20869">
        <ele>60.62</ele>
        <time>2024-03-17T18:56:08.992Z</time>
      </trkpt>
      <trkpt lat="46.91779" lon="-1.20833">
        <ele>60.68</ele>
        <time>2024-03-17T18:56:14.845Z</time>
      </trkpt>
      <trkpt lat="46.91787" lon="-1.2082">
        <ele>60.63</ele>
        <time>2024-03-17T18:56:20.701Z</time>
      </trkpt>
      <trkpt lat="46.91801" lon="-1.20807">
        <ele>60.62</ele>
        <time>2024-03-17T18:56:26.560Z</time>
      </trkpt>
      <trkpt lat="46.91835" lon="-1.20796">
        <ele>60.55</ele>
        <time>2024-03-17T18:56:32.426Z</time>
      </trkpt>
      <trkpt lat="46.91846" lon="-1.20787">
        <ele>60.58</ele>
        <time>2024-03-17T18:56:38.294Z</time>
      </trkpt>
      <trkpt lat="46.91852" lon="-1.20779">
        <ele>60.72</ele>
        <time>2024-03-17T18:56:44.164Z</time>
      </trkpt>
      <trkpt lat="46.91854" lon="-1.20771">
        <ele>60.9</ele>
        <time>2024-03-17T18:56:50.035Z</time>
      </trkpt>
      <trkpt lat="46.9185" lon="-1.20764">
        <ele>61.11</ele>
        <time>2024-03-17T18:56:55.907Z</time>
      </trkpt>
      <trkpt lat="46.91838" lon="-1.20751">
        <ele>61.43</ele>
        <time>2024-03-17T18:57:01.782Z</time>
      </trkpt>
      <trkpt lat="46.91796" lon="-1.20717">
        <ele>62.29</ele>
        <time>2024-03-17T18:57:07.667Z</time>
      </trkpt>
      <trkpt lat="46.91761" lon="-1.20604">
        <ele>62.38</ele>
        <time>2024-03-17T18:57:13.569Z</time>
      </trkpt>
      <trkpt lat="46.91748" lon="-1.20545">
        <ele>62.71</ele>
        <time>2024-03-17T18:57:19.479Z</time>
      </trkpt>
      <trkpt lat="46.91741" lon="-1.20512">
        <ele>62.96</ele>
        <time>2024-03-17T18:57:25.394Z</time>
      </trkpt>
      <trkpt lat="46.91737" lon="-1.20483">
        <ele>63.15</ele>
        <time>2024-03-17T18:57:31.313Z</time>
      </trkpt>
      <trkpt lat="46.91737" lon="-1.2045">
        <ele>63.22</ele>
        <time>2024-03-17T18:57:37.237Z</time>
      </trkpt>
      <trkpt lat="46.91733" lon="-1.20438">
        <ele>63.37</ele>
        <time>2024-03-17T18:57:43.163Z</time>
      </trkpt>
      <trkpt lat="46.91714" lon="-1.20423">
        <ele>63.35</ele>
        <time>2024-03-17T18:57:49.093Z</time>
      </trkpt>
      <trkpt lat="46.91712" lon="-1.20431">
        <ele>63.48</ele>
        <time>2024-03-17T18:57:55.024Z</time>
      </trkpt>
      <trkpt lat="46.91714" lon="-1.20423">
        <ele>63.35</ele>
        <time>2024-03-17T18:58:00.956Z</time>
      </trkpt>
      <trkpt lat="46.91685" lon="-1.204">
        <ele>63.45</ele>
        <time>2024-03-17T18:58:06.895Z</time>
      </trkpt>
      <trkpt lat="46.91674" lon="-1.20392">
        <ele>63.47</ele>
        <time>2024-03-17T18:58:12.836Z</time>
      </trkpt>
      <trkpt lat="46.91668" lon="-1.20386">
        <ele>63.45</ele>
        <time>2024-03-17T18:58:18.779Z</time>
      </trkpt>
      <trkpt lat="46.91667" lon="-1.2038">
        <ele>63.41</ele>
        <time>2024-03-17T18:58:24.722Z</time>
      </trkpt>
      <trkpt lat="46.91667" lon="-1.20371">
        <ele>63.35</ele>
        <time>2024-03-17T18:58:30.667Z</time>
      </trkpt>
      <trkpt lat="46.91669" lon="-1.20366">
        <ele>63.27</ele>
        <time>2024-03-17T18:58:36.612Z</time>
      </trkpt>
      <trkpt lat="46.91693" lon="-1.2033">
        <ele>63.11</ele>
        <time>2024-03-17T18:58:42.564Z</time>
      </trkpt>
      <trkpt lat="46.91698" lon="-1.20316">
        <ele>62.98</ele>
        <time>2024-03-17T18:58:48.518Z</time>
      </trkpt>
      <trkpt lat="46.91704" lon="-1.20294">
        <ele>62.85</ele>
        <time>2024-03-17T18:58:54.476Z</time>
      </trkpt>
      <trkpt lat="46.91711" lon="-1.20221">
        <ele>62.77</ele>
        <time>2024-03-17T18:59:00.444Z</time>
      </trkpt>
      <trkpt lat="46.91713" lon="-1.20188">
        <ele>62.58</ele>
        <time>2024-03-17T18:59:06.416Z</time>
      </trkpt>
      <trkpt lat="46.917" lon="-1.20133">
        <ele>62.6</ele>
        <time>2024-03-17T18:59:12.396Z</time>
      </trkpt>
      <trkpt lat="46.9169" lon="-1.20102">
        <ele>62.52</ele>
        <time>2024-03-17T18:59:18.381Z</time>
      </trkpt>
      <trkpt lat="46.91682" lon="-1.20087">
        <ele>62.34</ele>
        <time>2024-03-17T18:59:24.369Z</time>
      </trkpt>
      <trkpt lat="46.91671" lon="-1.20075">
        <ele>62.15</ele>
        <time>2024-03-17T18:59:30.359Z</time>
      </trkpt>
      <trkpt lat="46.91666" lon="-1.20066">
        <ele>61.92</ele>
        <time>2024-03-17T18:59:36.351Z</time>
      </trkpt>
      <trkpt lat="46.91663" lon="-1.20062">
        <ele>61.68</ele>
        <time>2024-03-17T18:59:42.344Z</time>
      </trkpt>
      <trkpt lat="46.91658" lon="-1.20029">
        <ele>61.45</ele>
        <time>2024-03-17T18:59:48.341Z</time>
      </trkpt>
      <trkpt lat="46.91662" lon="-1.20017">
        <ele>61.19</ele>
        <time>2024-03-17T18:59:54.340Z</time>
      </trkpt>
      <trkpt lat="46.9167" lon="-1.2001">
        <ele>60.92</ele>
        <time>2024-03-17T19:00:00.341Z</time>
      </trkpt>
      <trkpt lat="46.91687" lon="-1.2">
        <ele>60.56</ele>
        <time>2024-03-17T19:00:06.346Z</time>
      </trkpt>
      <trkpt lat="46.91707" lon="-1.19997">
        <ele>60.13</ele>
        <time>2024-03-17T19:00:12.355Z</time>
      </trkpt>
      <trkpt lat="46.91718" lon="-1.19993">
        <ele>59.91</ele>
        <time>2024-03-17T19:00:18.366Z</time>
      </trkpt>
      <trkpt lat="46.91726" lon="-1.19985">
        <ele>59.72</ele>
        <time>2024-03-17T19:00:24.379Z</time>
      </trkpt>
      <trkpt lat="46.91733" lon="-1.19968">
        <ele>59.54</ele>
        <time>2024-03-17T19:00:30.395Z</time>
      </trkpt>
      <trkpt lat="46.91739" lon="-1.19921">
        <ele>59.39</ele>
        <time>2024-03-17T19:00:36.417Z</time>
      </trkpt>
      <trkpt lat="46.91733" lon="-1.19907">
        <ele>59.26</ele>
        <time>2024-03-17T19:00:42.442Z</time>
      </trkpt>
      <trkpt lat="46.91723" lon="-1.19904">
        <ele>59.15</ele>
        <time>2024-03-17T19:00:48.469Z</time>
      </trkpt>
      <trkpt lat="46.91668" lon="-1.19908">
        <ele>59.26</ele>
        <time>2024-03-17T19:00:54.507Z</time>
      </trkpt>
      <trkpt lat="46.91621" lon="-1.19887">
        <ele>59.31</ele>
        <time>2024-03-17T19:01:00.554Z</time>
      </trkpt>
      <trkpt lat="46.91613" lon="-1.19877">
        <ele>59.26</ele>
        <time>2024-03-17T19:01:06.603Z</time>
      </trkpt>
      <trkpt lat="46.91609" lon="-1.19868">
        <ele>59.21</ele>
        <time>2024-03-17T19:01:12.654Z</time>
      </trkpt>
      <trkpt lat="46.91633" lon="-1.19781">
        <ele>59.06</ele>
        <time>2024-03-17T19:01:18.718Z</time>
      </trkpt>
      <trkpt lat="46.91664" lon="-1.19764">
        <ele>59.04</ele>
        <time>2024-03-17T19:01:24.788Z</time>
      </trkpt>
      <trkpt lat="46.91674" lon="-1.1977">
        <ele>58.99</ele>
        <time>2024-03-17T19:01:30.861Z</time>
      </trkpt>
      <trkpt lat="46.91686" lon="-1.1978">
        <ele>58.96</ele>
        <time>2024-03-17T19:01:36.936Z</time>
      </trkpt>
      <trkpt lat="46.91697" lon="-1.19785">
        <ele>58.97</ele>
        <time>2024-03-17T19:01:43.014Z</time>
      </trkpt>
      <trkpt lat="46.91725" lon="-1.19788">
        <ele>58.9</ele>
        <time>2024-03-17T19:01:49.097Z</time>
      </trkpt>
      <trkpt lat="46.91732" lon="-1.19785">
        <ele>58.9</ele>
        <time>2024-03-17T19:01:55.182Z</time>
      </trkpt>
      <trkpt lat="46.91736" lon="-1.19777">
        <ele>58.94</ele>
        <time>2024-03-17T19:02:01.268Z</time>
      </trkpt>
      <trkpt lat="46.91738" lon="-1.19762">
        <ele>59.02</ele>
        <time>2024-03-17T19:02:07.356Z</time>
      </trkpt>
      <trkpt lat="46.91739" lon="-1.19736">
        <ele>59.11</ele>
        <time>2024-03-17T19:02:13.448Z</time>
      </trkpt>
      <trkpt lat="46.91737" lon="-1.19712">
        <ele>59.31</ele>
        <time>2024-03-17T19:02:19.543Z</time>
      </trkpt>
      <trkpt lat="46.9174" lon="-1.19675">
        <ele>59.57</ele>
        <time>2024-03-17T19:02:25.643Z</time>
      </trkpt>
      <trkpt lat="46.91749" lon="-1.19636">
        <ele>59.63</ele>
        <time>2024-03-17T19:02:31.749Z</time>
      </trkpt>
      <trkpt lat="46.91761" lon="-1.19538">
        <ele>59.79</ele>
        <time>2024-03-17T19:02:37.868Z</time>
      </trkpt>
      <trkpt lat="46.9176" lon="-1.19528">
        <ele>59.92</ele>
        <time>2024-03-17T19:02:43.989Z</time>
      </trkpt>
      <trkpt lat="46.91753" lon="-1.195">
        <ele>60.12</ele>
        <time>2024-03-17T19:02:50.114Z</time>
      </trkpt>
      <trkpt lat="46.91753" lon="-1.19482">
        <ele>60.22</ele>
        <time>2024-03-17T19:02:56.241Z</time>
      </trkpt>
      <trkpt lat="46.91757" lon="-1.19461">
        <ele>60.26</ele>
        <time>2024-03-17T19:03:02.371Z</time>
      </trkpt>
      <trkpt lat="46.91764" lon="-1.19438">
        <ele>60.26</ele>
        <time>2024-03-17T19:03:08.505Z</time>
      </trkpt>
      <trkpt lat="46.91765" lon="-1.19425">
        <ele>60.37</ele>
        <time>2024-03-17T19:03:14.641Z</time>
      </trkpt>
      <trkpt lat="46.91761" lon="-1.19413">
        <ele>60.5</ele>
        <time>2024-03-17T19:03:20.778Z</time>
      </trkpt>
      <trkpt lat="46.91754" lon="-1.19405">
        <ele>60.65</ele>
        <time>2024-03-17T19:03:26.917Z</time>
      </trkpt>
      <trkpt lat="46.91752" lon="-1.19392">
        <ele>60.78</ele>
        <time>2024-03-17T19:03:33.058Z</time>
      </trkpt>
      <trkpt lat="46.91753" lon="-1.19379">
        <ele>60.85</ele>
        <time>2024-03-17T19:03:39.201Z</time>
      </trkpt>
      <trkpt lat="46.9176" lon="-1.19364">
        <ele>60.93</ele>
        <time>2024-03-17T19:03:45.346Z</time>
      </trkpt>
      <trkpt lat="46.91801" lon="-1.19304">
        <ele>60.87</ele>
        <time>2024-03-17T19:03:51.503Z</time>
      </trkpt>
      <trkpt lat="46.91827" lon="-1.19247">
        <ele>60.84</ele>
        <time>2024-03-17T19:03:57.669Z</time>
      </trkpt>
      <trkpt lat="46.91857" lon="-1.19211">
        <ele>60.76</ele>
        <time>2024-03-17T19:04:03.843Z</time>
      </trkpt>
      <trkpt lat="46.91867" lon="-1.19194">
        <ele>60.85</ele>
        <time>2024-03-17T19:04:10.020Z</time>
      </trkpt>
      <trkpt lat="46.91871" lon="-1.1918">
        <ele>60.94</ele>
        <time>2024-03-17T19:04:16.199Z</time>
      </trkpt>
      <trkpt lat="46.91871" lon="-1.19162">
        <ele>61.05</ele>
        <time>2024-03-17T19:04:22.381Z</time>
      </trkpt>
      <trkpt lat="46.91867" lon="-1.19148">
        <ele>61.16</ele>
        <time>2024-03-17T19:04:28.565Z</time>
      </trkpt>
      <trkpt lat="46.91828" lon="-1.19108">
        <ele>61.47</ele>
        <time>2024-03-17T19:04:34.758Z</time>
      </trkpt>
      <trkpt lat="46.91816" lon="-1.19089">
        <ele>61.57</ele>
        <time>2024-03-17T19:04:40.955Z</time>
      </trkpt>
      <trkpt lat="46.91806" lon="-1.19062">
        <ele>61.73</ele>
        <time>2024-03-17T19:04:47.156Z</time>
      </trkpt>
      <trkpt lat="46.91793" lon="-1.19042">
        <ele>62.01</ele>
        <time>2024-03-17T19:04:53.361Z</time>
      </trkpt>
      <trkpt lat="46.91777" lon="-1.19018">
        <ele>62.14</ele>
        <time>2024-03-17T19:04:59.571Z</time>
      </trkpt>
      <trkpt lat="46.91762" lon="-1.19008">
        <ele>62.26</ele>
        <time>2024-03-17T19:05:05.784Z</time>
      </trkpt>
      <trkpt lat="46.91753" lon="-1.18999">
        <ele>62.41</ele>
        <time>2024-03-17T19:05:11.999Z</time>
      </trkpt>
      <trkpt lat="46.91745" lon="-1.18985">
        <ele>62.5</ele>
        <time>2024-03-17T19:05:18.216Z</time>
      </trkpt>
      <trkpt lat="46.91734" lon="-1.18939">
        <ele>62.51</ele>
        <time>2024-03-17T19:05:24.440Z</time>
      </trkpt>
      <trkpt lat="46.91716" lon="-1.18881">
        <ele>62.44</ele>
        <time>2024-03-17T19:05:30.673Z</time>
      </trkpt>
      <trkpt lat="46.91715" lon="-1.18859">
        <ele>62.37</ele>
        <time>2024-03-17T19:05:36.909Z</time>
      </trkpt>
      <trkpt lat="46.91717" lon="-1.18832">
        <ele>62.26</ele>
        <time>2024-03-17T19:05:43.149Z</time>
      </trkpt>
      <trkpt lat="46.91726" lon="-1.1879">
        <ele>62.04</ele>
        <time>2024-03-17T19:05:49.395Z</time>
      </trkpt>
      <trkpt lat="46.91725" lon="-1.18777">
        <ele>61.91</ele>
        <time>2024-03-17T19:05:55.642Z</time>
      </trkpt>
      <trkpt lat="46.9172" lon="-1.18749">
        <ele>61.7</ele>
        <time>2024-03-17T19:06:01.893Z</time>
      </trkpt>
      <trkpt lat="46.91716" lon="-1.1873">
        <ele>61.57</ele>
        <time>2024-03-17T19:06:08.147Z</time>
      </trkpt>
      <trkpt lat="46.91708" lon="-1.18716">
        <ele>61.43</ele>
        <time>2024-03-17T19:06:14.404Z</time>
      </trkpt>
      <trkpt lat="46.91696" lon="-1.18703">
        <ele>61.33</ele>
        <time>2024-03-17T19:06:20.664Z</time>
      </trkpt>
      <trkpt lat="46.91688" lon="-1.18691">
        <ele>61.22</ele>
        <time>2024-03-17T19:06:26.926Z</time>
      </trkpt>
      <trkpt lat="46.91684" lon="-1.18679">
        <ele>61.08</ele>
        <time>2024-03-17T19:06:33.190Z</time>
      </trkpt>
      <trkpt lat="46.91686" lon="-1.18663">
        <ele>60.93</ele>
        <time>2024-03-17T19:06:39.456Z</time>
      </trkpt>
      <trkpt lat="46.91703" lon="-1.18611">
        <ele>60.67</ele>
        <time>2024-03-17T19:06:45.730Z</time>
      </trkpt>
      <trkpt lat="46.91705" lon="-1.18585">
        <ele>60.57</ele>
        <time>2024-03-17T19:06:52.007Z</time>
      </trkpt>
      <trkpt lat="46.91704" lon="-1.18569">
        <ele>60.52</ele>
        <time>2024-03-17T19:06:58.287Z</time>
      </trkpt>
      <trkpt lat="46.91694" lon="-1.18533">
        <ele>60.61</ele>
        <time>2024-03-17T19:07:04.572Z</time>
      </trkpt>
      <trkpt lat="46.91693" lon="-1.18509">
        <ele>60.46</ele>
        <time>2024-03-17T19:07:10.860Z</time>
      </trkpt>
      <trkpt lat="46.91695" lon="-1.18481">
        <ele>60.28</ele>
        <time>2024-03-17T19:07:17.152Z</time>
      </trkpt>
      <trkpt lat="46.91686" lon="-1.18441">
        <ele>60.28</ele>
        <time>2024-03-17T19:07:23.450Z</time>
      </trkpt>
      <trkpt lat="46.91679" lon="-1.18432">
        <ele>60.27</ele>
        <time>2024-03-17T19:07:29.750Z</time>
      </trkpt>
      <trkpt lat="46.91662" lon="-1.18431">
        <ele>60.35</ele>
        <time>2024-03-17T19:07:36.053Z</time>
      </trkpt>
      <trkpt lat="46.91656" lon="-1.18426">
        <ele>60.37</ele>
        <time>2024-03-17T19:07:42.358Z</time>
      </trkpt>
      <trkpt lat="46.91654" lon="-1.18416">
        <ele>60.38</ele>
        <time>2024-03-17T19:07:48.664Z</time>
      </trkpt>
      <trkpt lat="46.91655" lon="-1.18404">
        <ele>60.38</ele>
        <time>2024-03-17T19:07:54.972Z</time>
      </trkpt>
      <trkpt lat="46.9166" lon="-1.18389">
        <ele>60.32</ele>
        <time>2024-03-17T19:08:01.282Z</time>
      </trkpt>
      <trkpt lat="46.91661" lon="-1.18377">
        <ele>60.34</ele>
        <time>2024-03-17T19:08:07.594Z</time>
      </trkpt>
      <trkpt lat="46.91657" lon="-1.18365">
        <ele>60.44</ele>
        <time>2024-03-17T19:08:13.907Z</time>
      </trkpt>
      <trkpt lat="46.91648" lon="-1.18352">
        <ele>60.57</ele>
        <time>2024-03-17T19:08:20.223Z</time>
      </trkpt>
      <trkpt lat="46.91639" lon="-1.18346">
        <ele>60.74</ele>
        <time>2024-03-17T19:08:26.541Z</time>
      </trkpt>
      <trkpt lat="46.91638" lon="-1.18347">
        <ele>60.89</ele>
        <time>2024-03-17T19:08:32.859Z</time>
      </trkpt>
      <trkpt lat="46.91639" lon="-1.18346">
        <ele>60.74</ele>
        <time>2024-03-17T19:08:39.177Z</time>
      </trkpt>
      <trkpt lat="46.9163" lon="-1.18327">
        <ele>61.21</ele>
        <time>2024-03-17T19:08:45.499Z</time>
      </trkpt>
      <trkpt lat="46.91623" lon="-1.18302">
        <ele>61.43</ele>
        <time>2024-03-17T19:08:51.824Z</time>
      </trkpt>
      <trkpt lat="46.9161" lon="-1.18276">
        <ele>61.66</ele>
        <time>2024-03-17T19:08:58.154Z</time>
      </trkpt>
      <trkpt lat="46.91588" lon="-1.18247">
        <ele>62.02</ele>
        <time>2024-03-17T19:09:04.490Z</time>
      </trkpt>
      <trkpt lat="46.91556" lon="-1.18229">
        <ele>62.38</ele>
        <time>2024-03-17T19:09:10.832Z</time>
      </trkpt>
      <trkpt lat="46.91522" lon="-1.18179">
        <ele>62.51</ele>
        <time>2024-03-17T19:09:17.184Z</time>
      </trkpt>
      <trkpt lat="46.91479" lon="-1.18174">
        <ele>62.74</ele>
        <time>2024-03-17T19:09:23.545Z</time>
      </trkpt>
      <trkpt lat="46.91456" lon="-1.18193">
        <ele>63.16</ele>
        <time>2024-03-17T19:09:29.911Z</time>
      </trkpt>
      <trkpt lat="46.91453" lon="-1.18181">
        <ele>63.41</ele>
        <time>2024-03-17T19:09:36.279Z</time>
      </trkpt>
      <trkpt lat="46.91456" lon="-1.1816">
        <ele>63.61</ele>
        <time>2024-03-17T19:09:42.650Z</time>
      </trkpt>
      <trkpt lat="46.91456" lon="-1.1816">
        <ele>63.62</ele>
        <time>2024-03-17T19:09:49.021Z</time>
      </trkpt>
      <trkpt lat="46.91454" lon="-1.18139">
        <ele>63.91</ele>
        <time>2024-03-17T19:09:55.395Z</time>
      </trkpt>
      <trkpt lat="46.91411" lon="-1.18067">
        <ele>64.24</ele>
        <time>2024-03-17T19:10:01.782Z</time>
      </trkpt>
      <trkpt lat="46.9139" lon="-1.1801">
        <ele>64.4</ele>
        <time>2024-03-17T19:10:08.178Z</time>
      </trkpt>
      <trkpt lat="46.9138" lon="-1.18008">
        <ele>64.71</ele>
        <time>2024-03-17T19:10:14.576Z</time>
      </trkpt>
      <trkpt lat="46.91345" lon="-1.18016">
        <ele>65.07</ele>
        <time>2024-03-17T19:10:20.981Z</time>
      </trkpt>
      <trkpt lat="46.91335" lon="-1.18016">
        <ele>65.4</ele>
        <time>2024-03-17T19:10:27.388Z</time>
      </trkpt>
      <trkpt lat="46.9133" lon="-1.18008">
        <ele>65.71</ele>
        <time>2024-03-17T19:10:33.796Z</time>
      </trkpt>
      <trkpt lat="46.91334" lon="-1.17996">
        <ele>65.99</ele>
        <time>2024-03-17T19:10:40.206Z</time>
      </trkpt>
      <trkpt lat="46.91357" lon="-1.17964">
        <ele>66.22</ele>
        <time>2024-03-17T19:10:46.622Z</time>
      </trkpt>
      <trkpt lat="46.91367" lon="-1.17926">
        <ele>66.52</ele>
        <time>2024-03-17T19:10:53.044Z</time>
      </trkpt>
      <trkpt lat="46.91362" lon="-1.17889">
        <ele>66.91</ele>
        <time>2024-03-17T19:10:59.471Z</time>
      </trkpt>
      <trkpt lat="46.9134" lon="-1.1783">
        <ele>67.42</ele>
        <time>2024-03-17T19:11:05.907Z</time>
      </trkpt>
      <trkpt lat="46.91333" lon="-1.17791">
        <ele>67.66</ele>
        <time>2024-03-17T19:11:12.349Z</time>
      </trkpt>
      <trkpt lat="46.91296" lon="-1.17735">
        <ele>68.07</ele>
        <time>2024-03-17T19:11:18.801Z</time>
      </trkpt>
      <trkpt lat="46.91275" lon="-1.17716">
        <ele>68.39</ele>
        <time>2024-03-17T19:11:25.258Z</time>
      </trkpt>
      <trkpt lat="46.91253" lon="-1.17679">
        <ele>68.65</ele>
        <time>2024-03-17T19:11:31.722Z</time>
      </trkpt>
      <trkpt lat="46.91245" lon="-1.17657">
        <ele>68.74</ele>
        <time>2024-03-17T19:11:38.190Z</time>
      </trkpt>
      <trkpt lat="46.9121" lon="-1.17611">
        <ele>68.75</ele>
        <time>2024-03-17T19:11:44.667Z</time>
      </trkpt>
      <trkpt lat="46.91198" lon="-1.17578">
        <ele>68.81</ele>
        <time>2024-03-17T19:11:51.149Z</time>
      </trkpt>
      <trkpt lat="46.91198" lon="-1.17566">
        <ele>68.79</ele>
        <time>2024-03-17T19:11:57.633Z</time>
      </trkpt>
      <trkpt lat="46.91189" lon="-1.17548">
        <ele>68.82</ele>
        <time>2024-03-17T19:12:04.120Z</time>
      </trkpt>
      <trkpt lat="46.91139" lon="-1.17487">
        <ele>68.83</ele>
        <time>2024-03-17T19:12:10.620Z</time>
      </trkpt>
      <trkpt lat="46.9111" lon="-1.17461">
        <ele>68.8</ele>
        <time>2024-03-17T19:12:17.127Z</time>
      </trkpt>
      <trkpt lat="46.911" lon="-1.17432">
        <ele>68.58</ele>
        <time>2024-03-17T19:12:23.638Z</time>
      </trkpt>
      <trkpt lat="46.91095" lon="-1.17429">
        <ele>68.36</ele>
        <time>2024-03-17T19:12:30.150Z</time>
      </trkpt>
      <trkpt lat="46.91082" lon="-1.17402">
        <ele>67.96</ele>
        <time>2024-03-17T19:12:36.667Z</time>
      </trkpt>
      <trkpt lat="46.9108" lon="-1.17344">
        <ele>67.32</ele>
        <time>2024-03-17T19:12:43.192Z</time>
      </trkpt>
      <trkpt lat="46.91062" lon="-1.17212">
        <ele>66.92</ele>
        <time>2024-03-17T19:12:49.735Z</time>
      </trkpt>
      <trkpt lat="46.91053" lon="-1.1718">
        <ele>66.74</ele>
        <time>2024-03-17T19:12:56.283Z</time>
      </trkpt>
      <trkpt lat="46.91039" lon="-1.17168">
        <ele>66.51</ele>
        <time>2024-03-17T19:13:02.834Z</time>
      </trkpt>
      <trkpt lat="46.9099" lon="-1.17153">
        <ele>66.34</ele>
        <time>2024-03-17T19:13:09.395Z</time>
      </trkpt>
      <trkpt lat="46.90981" lon="-1.17143">
        <ele>65.99</ele>
        <time>2024-03-17T19:13:15.958Z</time>
      </trkpt>
      <trkpt lat="46.90968" lon="-1.17112">
        <ele>65.57</ele>
        <time>2024-03-17T19:13:22.526Z</time>
      </trkpt>
      <trkpt lat="46.90962" lon="-1.17106">
        <ele>65.41</ele>
        <time>2024-03-17T19:13:29.096Z</time>
      </trkpt>
      <trkpt lat="46.90953" lon="-1.17081">
        <ele>65.24</ele>
        <time>2024-03-17T19:13:35.670Z</time>
      </trkpt>
      <trkpt lat="46.90952" lon="-1.17068">
        <ele>65.1</ele>
        <time>2024-03-17T19:13:42.246Z</time>
      </trkpt>
      <trkpt lat="46.90963" lon="-1.17033">
        <ele>64.95</ele>
        <time>2024-03-17T19:13:48.827Z</time>
      </trkpt>
      <trkpt lat="46.90948" lon="-1.16985">
        <ele>65.07</ele>
        <time>2024-03-17T19:13:55.415Z</time>
      </trkpt>
      <trkpt lat="46.90915" lon="-1.16913">
        <ele>64.95</ele>
        <time>2024-03-17T19:14:02.015Z</time>
      </trkpt>
      <trkpt lat="46.9089" lon="-1.16836">
        <ele>65.06</ele>
        <time>2024-03-17T19:14:08.627Z</time>
      </trkpt>
      <trkpt lat="46.90871" lon="-1.1685">
        <ele>65.3</ele>
        <time>2024-03-17T19:14:15.243Z</time>
      </trkpt>
      <trkpt lat="46.90863" lon="-1.16849">
        <ele>65.73</ele>
        <time>2024-03-17T19:14:21.860Z</time>
      </trkpt>
      <trkpt lat="46.9085" lon="-1.16852">
        <ele>66.28</ele>
        <time>2024-03-17T19:14:28.480Z</time>
      </trkpt>
      <trkpt lat="46.90846" lon="-1.16851">
        <ele>66.89</ele>
        <time>2024-03-17T19:14:35.101Z</time>
      </trkpt>
      <trkpt lat="46.90841" lon="-1.1685">
        <ele>67.61</ele>
        <time>2024-03-17T19:14:41.723Z</time>
      </trkpt>
      <trkpt lat="46.90834" lon="-1.16855">
        <ele>68.44</ele>
        <time>2024-03-17T19:14:48.346Z</time>
      </trkpt>
      <trkpt lat="46.90829" lon="-1.16866">
        <ele>69.36</ele>
        <time>2024-03-17T19:14:54.971Z</time>
      </trkpt>
      <trkpt lat="46.90828" lon="-1.16914">
        <ele>70.47</ele>
        <time>2024-03-17T19:15:01.603Z</time>
      </trkpt>
      <trkpt lat="46.9082" lon="-1.16935">
        <ele>71.57</ele>
        <time>2024-03-17T19:15:08.238Z</time>
      </trkpt>
      <trkpt lat="46.90797" lon="-1.1696">
        <ele>72.69</ele>
        <time>2024-03-17T19:15:14.879Z</time>
      </trkpt>
      <trkpt lat="46.90791" lon="-1.16972">
        <ele>73.72</ele>
        <time>2024-03-17T19:15:21.522Z</time>
      </trkpt>
      <trkpt lat="46.90786" lon="-1.16993">
        <ele>74.78</ele>
        <time>2024-03-17T19:15:28.168Z</time>
      </trkpt>
      <trkpt lat="46.90777" lon="-1.17004">
        <ele>75.84</ele>
        <time>2024-03-17T19:15:34.816Z</time>
      </trkpt>
      <trkpt lat="46.90765" lon="-1.17005">
        <ele>76.85</ele>
        <time>2024-03-17T19:15:41.467Z</time>
      </trkpt>
      <trkpt lat="46.90763" lon="-1.17004">
        <ele>77.69</ele>
        <time>2024-03-17T19:15:48.118Z</time>
      </trkpt>
      <trkpt lat="46.90746" lon="-1.1698">
        <ele>78.62</ele>
        <time>2024-03-17T19:15:54.774Z</time>
      </trkpt>
      <trkpt lat="46.90735" lon="-1.16974">
        <ele>79.43</ele>
        <time>2024-03-17T19:16:01.432Z</time>
      </trkpt>
      <trkpt lat="46.90723" lon="-1.16963">
        <ele>80.11</ele>
        <time>2024-03-17T19:16:08.093Z</time>
      </trkpt>
      <trkpt lat="46.90719" lon="-1.1695">
        <ele>80.62</ele>
        <time>2024-03-17T19:16:14.756Z</time>
      </trkpt>
      <trkpt lat="46.90714" lon="-1.16941">
        <ele>81.03</ele>
        <time>2024-03-17T19:16:21.421Z</time>
      </trkpt>
      <trkpt lat="46.90704" lon="-1.1694">
        <ele>81.34</ele>
        <time>2024-03-17T19:16:28.087Z</time>
      </trkpt>
      <trkpt lat="46.90688" lon="-1.16928">
        <ele>81.49</ele>
        <time>2024-03-17T19:16:34.757Z</time>
      </trkpt>
      <trkpt lat="46.90667" lon="-1.16898">
        <ele>81.48</ele>
        <time>2024-03-17T19:16:41.433Z</time>
      </trkpt>
      <trkpt lat="46.90689" lon="-1.16856">
        <ele>81.31</ele>
        <time>2024-03-17T19:16:48.116Z</time>
      </trkpt>
      <trkpt lat="46.907" lon="-1.16844">
        <ele>81.13</ele>
        <time>2024-03-17T19:16:54.802Z</time>
      </trkpt>
      <trkpt lat="46.90713" lon="-1.16834">
        <ele>80.83</ele>
        <time>2024-03-17T19:17:01.491Z</time>
      </trkpt>
      <trkpt lat="46.90714" lon="-1.16827">
        <ele>80.54</ele>
        <time>2024-03-17T19:17:08.181Z</time>
      </trkpt>
      <trkpt lat="46.90718" lon="-1.16817">
        <ele>80.2</ele>
        <time>2024-03-17T19:17:14.873Z</time>
      </trkpt>
      <trkpt lat="46.90725" lon="-1.1681">
        <ele>79.84</ele>
        <time>2024-03-17T19:17:21.566Z</time>
      </trkpt>
      <trkpt lat="46.90742" lon="-1.16813">
        <ele>79.42</ele>
        <time>2024-03-17T19:17:28.263Z</time>
      </trkpt>
      <trkpt lat="46.90747" lon="-1.1681">
        <ele>79.09</ele>
        <time>2024-03-17T19:17:34.961Z</time>
      </trkpt>
      <trkpt lat="46.90752" lon="-1.16794">
        <ele>78.74</ele>
        <time>2024-03-17T19:17:41.661Z</time>
      </trkpt>
      <trkpt lat="46.90751" lon="-1.16787">
        <ele>78.55</ele>
        <time>2024-03-17T19:17:48.362Z</time>
      </trkpt>
      <trkpt lat="46.90735" lon="-1.16766">
        <ele>78.54</ele>
        <time>2024-03-17T19:17:55.067Z</time>
      </trkpt>
      <trkpt lat="46.90732" lon="-1.16761">
        <ele>78.45</ele>
        <time>2024-03-17T19:18:01.773Z</time>
      </trkpt>
      <trkpt lat="46.90729" lon="-1.16765">
        <ele>78.49</ele>
        <time>2024-03-17T19:18:08.480Z</time>
      </trkpt>
      <trkpt lat="46.90725" lon="-1.16761">
        <ele>78.53</ele>
        <time>2024-03-17T19:18:15.188Z</time>
      </trkpt>
      <trkpt lat="46.90725" lon="-1.16754">
        <ele>78.6</ele>
        <time>2024-03-17T19:18:21.897Z</time>
      </trkpt>
      <trkpt lat="46.90711" lon="-1.16757">
        <ele>78.91</ele>
        <time>2024-03-17T19:18:28.609Z</time>
      </trkpt>
      <trkpt lat="46.90706" lon="-1.16762">
        <ele>79.21</ele>
        <time>2024-03-17T19:18:35.322Z</time>
      </trkpt>
      <trkpt lat="46.90694" lon="-1.16762">
        <ele>79.56</ele>
        <time>2024-03-17T19:18:42.037Z</time>
      </trkpt>
      <trkpt lat="46.90689" lon="-1.16765">
        <ele>79.91</ele>
        <time>2024-03-17T19:18:48.754Z</time>
      </trkpt>
      <trkpt lat="46.90685" lon="-1.16759">
        <ele>80.26</ele>
        <time>2024-03-17T19:18:55.472Z</time>
      </trkpt>
      <trkpt lat="46.9068" lon="-1.16759">
        <ele>80.65</ele>
        <time>2024-03-17T19:19:02.191Z</time>
      </trkpt>
      <trkpt lat="46.90667" lon="-1.16786">
        <ele>81.2</ele>
        <time>2024-03-17T19:19:08.914Z</time>
      </trkpt>
      <trkpt lat="46.90668" lon="-1.16796">
        <ele>81.58</ele>
        <time>2024-03-17T19:19:15.638Z</time>
      </trkpt>
      <trkpt lat="46.90671" lon="-1.16799">
        <ele>81.95</ele>
        <time>2024-03-17T19:19:22.363Z</time>
      </trkpt>
      <trkpt lat="46.90678" lon="-1.16791">
        <ele>82.27</ele>
        <time>2024-03-17T19:19:29.090Z</time>
      </trkpt>
      <trkpt lat="46.90683" lon="-1.16791">
        <ele>82.62</ele>
        <time>2024-03-17T19:19:35.818Z</time>
      </trkpt>
      <trkpt lat="46.90684" lon="-1.16796">
        <ele>82.97</ele>
        <time>2024-03-17T19:19:42.547Z</time>
      </trkpt>
      <trkpt lat="46.90678" lon="-1.16812">
        <ele>83.34</ele>
        <time>2024-03-17T19:19:49.278Z</time>
      </trkpt>
      <trkpt lat="46.90676" lon="-1.16819">
        <ele>83.63</ele>
        <time>2024-03-17T19:19:56.010Z</time>
      </trkpt>
      <trkpt lat="46.90671" lon="-1.16827">
        <ele>83.9</ele>
        <time>2024-03-17T19:20:02.744Z</time>
      </trkpt>
      <trkpt lat="46.90661" lon="-1.16826">
        <ele>84.12</ele>
        <time>2024-03-17T19:20:09.480Z</time>
      </trkpt>
      <trkpt lat="46.90652" lon="-1.16829">
        <ele>84.27</ele>
        <time>2024-03-17T19:20:16.218Z</time>
      </trkpt>
      <trkpt lat="46.90645" lon="-1.16827">
        <ele>84.32</ele>
        <time>2024-03-17T19:20:22.957Z</time>
      </trkpt>
      <trkpt lat="46.90624" lon="-1.16869">
        <ele>84.34</ele>
        <time>2024-03-17T19:20:29.703Z</time>
      </trkpt>
      <trkpt lat="46.90621" lon="-1.16864">
        <ele>84.2</ele>
        <time>2024-03-17T19:20:36.450Z</time>
      </trkpt>
      <trkpt lat="46.90605" lon="-1.16853">
        <ele>83.96</ele>
        <time>2024-03-17T19:20:43.201Z</time>
      </trkpt>
      <trkpt lat="46.90589" lon="-1.16837">
        <ele>83.65</ele>
        <time>2024-03-17T19:20:49.956Z</time>
      </trkpt>
      <trkpt lat="46.90575" lon="-1.16827">
        <ele>83.18</ele>
        <time>2024-03-17T19:20:56.714Z</time>
      </trkpt>
      <trkpt lat="46.90563" lon="-1.16812">
        <ele>82.63</ele>
        <time>2024-03-17T19:21:03.475Z</time>
      </trkpt>
      <trkpt lat="46.90539" lon="-1.16793">
        <ele>82.04</ele>
        <time>2024-03-17T19:21:10.241Z</time>
      </trkpt>
      <trkpt lat="46.90524" lon="-1.16778">
        <ele>81.38</ele>
        <time>2024-03-17T19:21:17.011Z</time>
      </trkpt>
      <trkpt lat="46.90507" lon="-1.16766">
        <ele>80.65</ele>
        <time>2024-03-17T19:21:23.785Z</time>
      </trkpt>
      <trkpt lat="46.90477" lon="-1.16738">
        <ele>79.79</ele>
        <time>2024-03-17T19:21:30.566Z</time>
      </trkpt>
      <trkpt lat="46.90469" lon="-1.16727">
        <ele>78.91</ele>
        <time>2024-03-17T19:21:37.349Z</time>
      </trkpt>
      <trkpt lat="46.90468" lon="-1.1672">
        <ele>78.05</ele>
        <time>2024-03-17T19:21:44.133Z</time>
      </trkpt>
      <trkpt lat="46.90475" lon="-1.16707">
        <ele>77.16</ele>
        <time>2024-03-17T19:21:50.919Z</time>
      </trkpt>
      <trkpt lat="46.9043" lon="-1.16601">
        <ele>75.74</ele>
        <time>2024-03-17T19:21:57.722Z</time>
      </trkpt>
      <trkpt lat="46.9042" lon="-1.16583">
        <ele>74.95</ele>
        <time>2024-03-17T19:22:04.528Z</time>
      </trkpt>
      <trkpt lat="46.90421" lon="-1.16578">
        <ele>74.21</ele>
        <time>2024-03-17T19:22:11.335Z</time>
      </trkpt>
      <trkpt lat="46.90439" lon="-1.16558">
        <ele>73.49</ele>
        <time>2024-03-17T19:22:18.146Z</time>
      </trkpt>
      <trkpt lat="46.90465" lon="-1.16527">
        <ele>72.82</ele>
        <time>2024-03-17T19:22:24.964Z</time>
      </trkpt>
      <trkpt lat="46.90472" lon="-1.16527">
        <ele>72.35</ele>
        <time>2024-03-17T19:22:31.784Z</time>
      </trkpt>
      <trkpt lat="46.90476" lon="-1.16533">
        <ele>72.01</ele>
        <time>2024-03-17T19:22:38.605Z</time>
      </trkpt>
      <trkpt lat="46.9048" lon="-1.1655">
        <ele>71.83</ele>
        <time>2024-03-17T19:22:45.428Z</time>
      </trkpt>
      <trkpt lat="46.90483" lon="-1.16554">
        <ele>71.77</ele>
        <time>2024-03-17T19:22:52.252Z</time>
      </trkpt>
      <trkpt lat="46.90489" lon="-1.16555">
        <ele>71.8</ele>
        <time>2024-03-17T19:22:59.077Z</time>
      </trkpt>
      <trkpt lat="46.90494" lon="-1.16562">
        <ele>71.98</ele>
        <time>2024-03-17T19:23:05.904Z</time>
      </trkpt>
      <trkpt lat="46.90499" lon="-1.16574">
        <ele>72.31</ele>
        <time>2024-03-17T19:23:12.733Z</time>
      </trkpt>
      <trkpt lat="46.90502" lon="-1.16593">
        <ele>72.85</ele>
        <time>2024-03-17T19:23:19.564Z</time>
      </trkpt>
      <trkpt lat="46.9051" lon="-1.16609">
        <ele>73.49</ele>
        <time>2024-03-17T19:23:26.398Z</time>
      </trkpt>
      <trkpt lat="46.90512" lon="-1.16614">
        <ele>74.15</ele>
        <time>2024-03-17T19:23:33.233Z</time>
      </trkpt>
      <trkpt lat="46.90516" lon="-1.16632">
        <ele>75</ele>
        <time>2024-03-17T19:23:40.070Z</time>
      </trkpt>
      <trkpt lat="46.90521" lon="-1.16638">
        <ele>75.81</ele>
        <time>2024-03-17T19:23:46.909Z</time>
      </trkpt>
      <trkpt lat="46.90529" lon="-1.16633">
        <ele>76.58</ele>
        <time>2024-03-17T19:23:53.749Z</time>
      </trkpt>
      <trkpt lat="46.90537" lon="-1.16634">
        <ele>77.44</ele>
        <time>2024-03-17T19:24:00.591Z</time>
      </trkpt>
      <trkpt lat="46.90555" lon="-1.16645">
        <ele>78.38</ele>
        <time>2024-03-17T19:24:07.437Z</time>
      </trkpt>
      <trkpt lat="46.90556" lon="-1.16665">
        <ele>79.39</ele>
        <time>2024-03-17T19:24:14.286Z</time>
      </trkpt>
      <trkpt lat="46.90566" lon="-1.16693">
        <ele>80.44</ele>
        <time>2024-03-17T19:24:21.139Z</time>
      </trkpt>
      <trkpt lat="46.9057" lon="-1.16709">
        <ele>81.41</ele>
        <time>2024-03-17T19:24:27.994Z</time>
      </trkpt>
      <trkpt lat="46.90561" lon="-1.16737">
        <ele>82.36</ele>
        <time>2024-03-17T19:24:34.854Z</time>
      </trkpt>
      <trkpt lat="46.90563" lon="-1.16747">
        <ele>83.16</ele>
        <time>2024-03-17T19:24:41.715Z</time>
      </trkpt>
      <trkpt lat="46.90558" lon="-1.16752">
        <ele>83.87</ele>
        <time>2024-03-17T19:24:48.577Z</time>
      </trkpt>
      <trkpt lat="46.90555" lon="-1.16767">
        <ele>84.52</ele>
        <time>2024-03-17T19:24:55.441Z</time>
      </trkpt>
      <trkpt lat="46.90557" lon="-1.16785">
        <ele>85.04</ele>
        <time>2024-03-17T19:25:02.308Z</time>
      </trkpt>
      <trkpt lat="46.9056" lon="-1.16791">
        <ele>85.45</ele>
        <time>2024-03-17T19:25:09.176Z</time>
      </trkpt>
      <trkpt lat="46.90565" lon="-1.16791">
        <ele>85.74</ele>
        <time>2024-03-17T19:25:16.045Z</time>
      </trkpt>
      <trkpt lat="46.90571" lon="-1.16779">
        <ele>85.94</ele>
        <time>2024-03-17T19:25:22.916Z</time>
      </trkpt>
      <trkpt lat="46.90582" lon="-1.16781">
        <ele>86.04</ele>
        <time>2024-03-17T19:25:29.789Z</time>
      </trkpt>
      <trkpt lat="46.90596" lon="-1.16759">
        <ele>85.98</ele>
        <time>2024-03-17T19:25:36.666Z</time>
      </trkpt>
      <trkpt lat="46.90601" lon="-1.16755">
        <ele>85.76</ele>
        <time>2024-03-17T19:25:43.544Z</time>
      </trkpt>
      <trkpt lat="46.90604" lon="-1.16745">
        <ele>85.39</ele>
        <time>2024-03-17T19:25:50.424Z</time>
      </trkpt>
      <trkpt lat="46.90612" lon="-1.16737">
        <ele>84.89</ele>
        <time>2024-03-17T19:25:57.306Z</time>
      </trkpt>
      <trkpt lat="46.90619" lon="-1.16733">
        <ele>84.3</ele>
        <time>2024-03-17T19:26:04.189Z</time>
      </trkpt>
      <trkpt lat="46.90626" lon="-1.16735">
        <ele>83.6</ele>
        <time>2024-03-17T19:26:11.074Z</time>
      </trkpt>
      <trkpt lat="46.90634" lon="-1.1673">
        <ele>82.75</ele>
        <time>2024-03-17T19:26:17.961Z</time>
      </trkpt>
      <trkpt lat="46.90642" lon="-1.16732">
        <ele>81.85</ele>
        <time>2024-03-17T19:26:24.849Z</time>
      </trkpt>
      <trkpt lat="46.90647" lon="-1.16738">
        <ele>80.91</ele>
        <time>2024-03-17T19:26:31.738Z</time>
      </trkpt>
      <trkpt lat="46.90649" lon="-1.16742">
        <ele>79.94</ele>
        <time>2024-03-17T19:26:38.628Z</time>
      </trkpt>
      <trkpt lat="46.9067" lon="-1.16737">
        <ele>78.71</ele>
        <time>2024-03-17T19:26:45.522Z</time>
      </trkpt>
      <trkpt lat="46.90667" lon="-1.16712">
        <ele>77.43</ele>
        <time>2024-03-17T19:26:52.420Z</time>
      </trkpt>
      <trkpt lat="46.90689" lon="-1.16676">
        <ele>75.88</ele>
        <time>2024-03-17T19:26:59.324Z</time>
      </trkpt>
      <trkpt lat="46.90667" lon="-1.16648">
        <ele>74.75</ele>
        <time>2024-03-17T19:27:06.234Z</time>
      </trkpt>
      <trkpt lat="46.90657" lon="-1.16642">
        <ele>73.67</ele>
        <time>2024-03-17T19:27:13.146Z</time>
      </trkpt>
      <trkpt lat="46.90632" lon="-1.16655">
        <ele>72.81</ele>
        <time>2024-03-17T19:27:20.064Z</time>
      </trkpt>
      <trkpt lat="46.90626" lon="-1.16654">
        <ele>71.81</ele>
        <time>2024-03-17T19:27:26.983Z</time>
      </trkpt>
      <trkpt lat="46.90624" lon="-1.16651">
        <ele>70.77</ele>
        <time>2024-03-17T19:27:33.902Z</time>
      </trkpt>
      <trkpt lat="46.90625" lon="-1.1664">
        <ele>69.71</ele>
        <time>2024-03-17T19:27:40.823Z</time>
      </trkpt>
      <trkpt lat="46.90627" lon="-1.16631">
        <ele>68.69</ele>
        <time>2024-03-17T19:27:47.745Z</time>
      </trkpt>
      <trkpt lat="46.90627" lon="-1.16621">
        <ele>67.74</ele>
        <time>2024-03-17T19:27:54.669Z</time>
      </trkpt>
      <trkpt lat="46.90636" lon="-1.16618">
        <ele>66.82</ele>
        <time>2024-03-17T19:28:01.594Z</time>
      </trkpt>
      <trkpt lat="46.90647" lon="-1.1661">
        <ele>65.92</ele>
        <time>2024-03-17T19:28:08.522Z</time>
      </trkpt>
      <trkpt lat="46.90655" lon="-1.16601">
        <ele>65.11</ele>
        <time>2024-03-17T19:28:15.452Z</time>
      </trkpt>
      <trkpt lat="46.90655" lon="-1.16584">
        <ele>64.42</ele>
        <time>2024-03-17T19:28:22.384Z</time>
      </trkpt>
      <trkpt lat="46.90659" lon="-1.16589">
        <ele>63.77</ele>
        <time>2024-03-17T19:28:29.317Z</time>
      </trkpt>
      <trkpt lat="46.90669" lon="-1.16601">
        <ele>63.14</ele>
        <time>2024-03-17T19:28:36.253Z</time>
      </trkpt>
      <trkpt lat="46.90704" lon="-1.16631">
        <ele>62.6</ele>
        <time>2024-03-17T19:28:43.197Z</time>
      </trkpt>
      <trkpt lat="46.90719" lon="-1.16641">
        <ele>62.18</ele>
        <time>2024-03-17T19:28:50.144Z</time>
      </trkpt>
      <trkpt lat="46.90737" lon="-1.16649">
        <ele>61.74</ele>
        <time>2024-03-17T19:28:57.095Z</time>
      </trkpt>
      <trkpt lat="46.90807" lon="-1.16648">
        <ele>61.4</ele>
        <time>2024-03-17T19:29:04.060Z</time>
      </trkpt>
      <trkpt lat="46.90826" lon="-1.16639">
        <ele>61.13</ele>
        <time>2024-03-17T19:29:11.029Z</time>
      </trkpt>
      <trkpt lat="46.90843" lon="-1.16677">
        <ele>60.69</ele>
        <time>2024-03-17T19:29:18.004Z</time>
      </trkpt>
      <trkpt lat="46.90852" lon="-1.16685">
        <ele>60.44</ele>
        <time>2024-03-17T19:29:24.981Z</time>
      </trkpt>
      <trkpt lat="46.90862" lon="-1.16683">
        <ele>60.32</ele>
        <time>2024-03-17T19:29:31.960Z</time>
      </trkpt>
      <trkpt lat="46.90877" lon="-1.16685">
        <ele>60.23</ele>
        <time>2024-03-17T19:29:38.942Z</time>
      </trkpt>
      <trkpt lat="46.90882" lon="-1.16728">
        <ele>60.12</ele>
        <time>2024-03-17T19:29:45.930Z</time>
      </trkpt>
      <trkpt lat="46.90886" lon="-1.16729">
        <ele>60.15</ele>
        <time>2024-03-17T19:29:52.919Z</time>
      </trkpt>
      <trkpt lat="46.90897" lon="-1.16757">
        <ele>60.23</ele>
        <time>2024-03-17T19:29:59.913Z</time>
      </trkpt>
      <trkpt lat="46.90909" lon="-1.16771">
        <ele>60.38</ele>
        <time>2024-03-17T19:30:06.910Z</time>
      </trkpt>
      <trkpt lat="46.90909" lon="-1.1678">
        <ele>60.55</ele>
        <time>2024-03-17T19:30:13.908Z</time>
      </trkpt>
      <trkpt lat="46.90941" lon="-1.1683">
        <ele>60.87</ele>
        <time>2024-03-17T19:30:20.915Z</time>
      </trkpt>
      <trkpt lat="46.90956" lon="-1.16893">
        <ele>60.98</ele>
        <time>2024-03-17T19:30:27.931Z</time>
      </trkpt>
      <trkpt lat="46.90996" lon="-1.16993">
        <ele>61.27</ele>
        <time>2024-03-17T19:30:34.963Z</time>
      </trkpt>
      <trkpt lat="46.91041" lon="-1.17063">
        <ele>61.51</ele>
        <time>2024-03-17T19:30:42.008Z</time>
      </trkpt>
      <trkpt lat="46.91062" lon="-1.17062">
        <ele>61.86</ele>
        <time>2024-03-17T19:30:49.058Z</time>
      </trkpt>
      <trkpt lat="46.91062" lon="-1.17063">
        <ele>62.14</ele>
        <time>2024-03-17T19:30:56.108Z</time>
      </trkpt>
      <trkpt lat="46.91068" lon="-1.17081">
        <ele>62.42</ele>
        <time>2024-03-17T19:31:03.160Z</time>
      </trkpt>
      <trkpt lat="46.91089" lon="-1.17096">
        <ele>62.74</ele>
        <time>2024-03-17T19:31:10.217Z</time>
      </trkpt>
      <trkpt lat="46.91089" lon="-1.17104">
        <ele>63.01</ele>
        <time>2024-03-17T19:31:17.275Z</time>
      </trkpt>
      <trkpt lat="46.91101" lon="-1.17126">
        <ele>63.26</ele>
        <time>2024-03-17T19:31:24.337Z</time>
      </trkpt>
      <trkpt lat="46.91107" lon="-1.17165">
        <ele>63.46</ele>
        <time>2024-03-17T19:31:31.405Z</time>
      </trkpt>
      <trkpt lat="46.91108" lon="-1.1716">
        <ele>63.69</ele>
        <time>2024-03-17T19:31:38.473Z</time>
      </trkpt>
      <trkpt lat="46.91111" lon="-1.1717">
        <ele>63.92</ele>
        <time>2024-03-17T19:31:45.543Z</time>
      </trkpt>
      <trkpt lat="46.91122" lon="-1.17175">
        <ele>64.15</ele>
        <time>2024-03-17T19:31:52.615Z</time>
      </trkpt>
      <trkpt lat="46.9112" lon="-1.17198">
        <ele>64.31</ele>
        <time>2024-03-17T19:31:59.691Z</time>
      </trkpt>
      <trkpt lat="46.91125" lon="-1.17203">
        <ele>64.49</ele>
        <time>2024-03-17T19:32:06.768Z</time>
      </trkpt>
      <trkpt lat="46.91126" lon="-1.17218">
        <ele>64.62</ele>
        <time>2024-03-17T19:32:13.847Z</time>
      </trkpt>
      <trkpt lat="46.91133" lon="-1.17224">
        <ele>64.77</ele>
        <time>2024-03-17T19:32:20.927Z</time>
      </trkpt>
      <trkpt lat="46.91132" lon="-1.17238">
        <ele>64.84</ele>
        <time>2024-03-17T19:32:28.009Z</time>
      </trkpt>
      <trkpt lat="46.91136" lon="-1.17257">
        <ele>64.89</ele>
        <time>2024-03-17T19:32:35.094Z</time>
      </trkpt>
      <trkpt lat="46.91142" lon="-1.17263">
        <ele>64.96</ele>
        <time>2024-03-17T19:32:42.180Z</time>
      </trkpt>
      <trkpt lat="46.91149" lon="-1.17271">
        <ele>65.01</ele>
        <time>2024-03-17T19:32:49.268Z</time>
      </trkpt>
      <trkpt lat="46.91153" lon="-1.17308">
        <ele>64.9</ele>
        <time>2024-03-17T19:32:56.361Z</time>
      </trkpt>
      <trkpt lat="46.91146" lon="-1.17313">
        <ele>64.87</ele>
        <time>2024-03-17T19:33:03.456Z</time>
      </trkpt>
      <trkpt lat="46.91143" lon="-1.17321">
        <ele>64.84</ele>
        <time>2024-03-17T19:33:10.552Z</time>
      </trkpt>
      <trkpt lat="46.91142" lon="-1.17343">
        <ele>64.81</ele>
        <time>2024-03-17T19:33:17.651Z</time>
      </trkpt>
      <trkpt lat="46.91143" lon="-1.17348">
        <ele>64.79</ele>
        <time>2024-03-17T19:33:24.751Z</time>
      </trkpt>
      <trkpt lat="46.91166" lon="-1.17383">
        <ele>64.76</ele>
        <time>2024-03-17T19:33:31.858Z</time>
      </trkpt>
      <trkpt lat="46.91179" lon="-1.17398">
        <ele>64.72</ele>
        <time>2024-03-17T19:33:38.968Z</time>
      </trkpt>
      <trkpt lat="46.9119" lon="-1.17402">
        <ele>64.76</ele>
        <time>2024-03-17T19:33:46.080Z</time>
      </trkpt>
      <trkpt lat="46.91209" lon="-1.17401">
        <ele>64.84</ele>
        <time>2024-03-17T19:33:53.196Z</time>
      </trkpt>
      <trkpt lat="46.91214" lon="-1.17405">
        <ele>64.9</ele>
        <time>2024-03-17T19:34:00.313Z</time>
      </trkpt>
      <trkpt lat="46.91216" lon="-1.1741">
        <ele>64.94</ele>
        <time>2024-03-17T19:34:07.431Z</time>
      </trkpt>
      <trkpt lat="46.91216" lon="-1.17428">
        <ele>64.96</ele>
        <time>2024-03-17T19:34:14.551Z</time>
      </trkpt>
      <trkpt lat="46.91218" lon="-1.17433">
        <ele>65.02</ele>
        <time>2024-03-17T19:34:21.672Z</time>
      </trkpt>
      <trkpt lat="46.9123" lon="-1.17428">
        <ele>65.18</ele>
        <time>2024-03-17T19:34:28.796Z</time>
      </trkpt>
      <trkpt lat="46.91235" lon="-1.17427">
        <ele>65.28</ele>
        <time>2024-03-17T19:34:35.921Z</time>
      </trkpt>
      <trkpt lat="46.91262" lon="-1.17455">
        <ele>65.47</ele>
        <time>2024-03-17T19:34:43.052Z</time>
      </trkpt>
      <trkpt lat="46.91264" lon="-1.17458">
        <ele>65.55</ele>
        <time>2024-03-17T19:34:50.184Z</time>
      </trkpt>
      <trkpt lat="46.91266" lon="-1.17475">
        <ele>65.59</ele>
        <time>2024-03-17T19:34:57.318Z</time>
      </trkpt>
      <trkpt lat="46.91277" lon="-1.175">
        <ele>65.65</ele>
        <time>2024-03-17T19:35:04.456Z</time>
      </trkpt>
      <trkpt lat="46.91286" lon="-1.1751">
        <ele>65.7</ele>
        <time>2024-03-17T19:35:11.597Z</time>
      </trkpt>
      <trkpt lat="46.91292" lon="-1.17535">
        <ele>65.71</ele>
        <time>2024-03-17T19:35:18.741Z</time>
      </trkpt>
      <trkpt lat="46.91292" lon="-1.17536">
        <ele>65.76</ele>
        <time>2024-03-17T19:35:25.885Z</time>
      </trkpt>
      <trkpt lat="46.9129" lon="-1.17537">
        <ele>65.8</ele>
        <time>2024-03-17T19:35:33.030Z</time>
      </trkpt>
      <trkpt lat="46.9129" lon="-1.17545">
        <ele>65.83</ele>
        <time>2024-03-17T19:35:40.176Z</time>
      </trkpt>
      <trkpt lat="46.91288" lon="-1.17552">
        <ele>65.85</ele>
        <time>2024-03-17T19:35:47.323Z</time>
      </trkpt>
      <trkpt lat="46.91285" lon="-1.17558">
        <ele>65.88</ele>
        <time>2024-03-17T19:35:54.471Z</time>
      </trkpt>
      <trkpt lat="46.91285" lon="-1.17562">
        <ele>65.9</ele>
        <time>2024-03-17T19:36:01.620Z</time>
      </trkpt>
      <trkpt lat="46.91302" lon="-1.17592">
        <ele>65.92</ele>
        <time>2024-03-17T19:36:08.774Z</time>
      </trkpt>
      <trkpt lat="46.91332" lon="-1.17609">
        <ele>66.02</ele>
        <time>2024-03-17T19:36:15.934Z</time>
      </trkpt>
      <trkpt lat="46.91339" lon="-1.17609">
        <ele>66.07</ele>
        <time>2024-03-17T19:36:23.096Z</time>
      </trkpt>
      <trkpt lat="46.91351" lon="-1.17603">
        <ele>66.14</ele>
        <time>2024-03-17T19:36:30.260Z</time>
      </trkpt>
      <trkpt lat="46.91364" lon="-1.17607">
        <ele>66.19</ele>
        <time>2024-03-17T19:36:37.427Z</time>
      </trkpt>
      <trkpt lat="46.91367" lon="-1.17611">
        <ele>66.18</ele>
        <time>2024-03-17T19:36:44.595Z</time>
      </trkpt>
      <trkpt lat="46.91376" lon="-1.17632">
        <ele>66.09</ele>
        <time>2024-03-17T19:36:51.766Z</time>
      </trkpt>
      <trkpt lat="46.91379" lon="-1.17635">
        <ele>66.05</ele>
        <time>2024-03-17T19:36:58.938Z</time>
      </trkpt>
      <trkpt lat="46.91385" lon="-1.17638">
        <ele>66</ele>
        <time>2024-03-17T19:37:06.111Z</time>
      </trkpt>
      <trkpt lat="46.91386" lon="-1.17645">
        <ele>65.91</ele>
        <time>2024-03-17T19:37:13.285Z</time>
      </trkpt>
      <trkpt lat="46.91384" lon="-1.17656">
        <ele>65.78</ele>
        <time>2024-03-17T19:37:20.461Z</time>
      </trkpt>
      <trkpt lat="46.91384" lon="-1.17671">
        <ele>65.61</ele>
        <time>2024-03-17T19:37:27.639Z</time>
      </trkpt>
      <trkpt lat="46.91386" lon="-1.17679">
        <ele>65.47</ele>
        <time>2024-03-17T19:37:34.818Z</time>
      </trkpt>
      <trkpt lat="46.91394" lon="-1.17686">
        <ele>65.35</ele>
        <time>2024-03-17T19:37:41.999Z</time>
      </trkpt>
      <trkpt lat="46.91397" lon="-1.17699">
        <ele>65.17</ele>
        <time>2024-03-17T19:37:49.182Z</time>
      </trkpt>
      <trkpt lat="46.91408" lon="-1.17712">
        <ele>64.99</ele>
        <time>2024-03-17T19:37:56.367Z</time>
      </trkpt>
      <trkpt lat="46.91412" lon="-1.17732">
        <ele>64.78</ele>
        <time>2024-03-17T19:38:03.555Z</time>
      </trkpt>
      <trkpt lat="46.91425" lon="-1.17757">
        <ele>64.61</ele>
        <time>2024-03-17T19:38:10.748Z</time>
      </trkpt>
      <trkpt lat="46.91425" lon="-1.17763">
        <ele>64.4</ele>
        <time>2024-03-17T19:38:17.941Z</time>
      </trkpt>
      <trkpt lat="46.91423" lon="-1.17778">
        <ele>64.17</ele>
        <time>2024-03-17T19:38:25.136Z</time>
      </trkpt>
      <trkpt lat="46.91427" lon="-1.17782">
        <ele>63.98</ele>
        <time>2024-03-17T19:38:32.332Z</time>
      </trkpt>
      <trkpt lat="46.91428" lon="-1.17792">
        <ele>63.75</ele>
        <time>2024-03-17T19:38:39.530Z</time>
      </trkpt>
      <trkpt lat="46.91425" lon="-1.17799">
        <ele>63.51</ele>
        <time>2024-03-17T19:38:46.729Z</time>
      </trkpt>
      <trkpt lat="46.91421" lon="-1.17805">
        <ele>63.25</ele>
        <time>2024-03-17T19:38:53.929Z</time>
      </trkpt>
      <trkpt lat="46.9142" lon="-1.17813">
        <ele>63.01</ele>
        <time>2024-03-17T19:39:01.130Z</time>
      </trkpt>
      <trkpt lat="46.91423" lon="-1.17821">
        <ele>62.79</ele>
        <time>2024-03-17T19:39:08.332Z</time>
      </trkpt>
      <trkpt lat="46.91425" lon="-1.17837">
        <ele>62.55</ele>
        <time>2024-03-17T19:39:15.537Z</time>
      </trkpt>
      <trkpt lat="46.91424" lon="-1.17849">
        <ele>62.3</ele>
        <time>2024-03-17T19:39:22.743Z</time>
      </trkpt>
      <trkpt lat="46.91427" lon="-1.17855">
        <ele>62.1</ele>
        <time>2024-03-17T19:39:29.950Z</time>
      </trkpt>
      <trkpt lat="46.91432" lon="-1.17883">
        <ele>61.91</ele>
        <time>2024-03-17T19:39:37.161Z</time>
      </trkpt>
      <trkpt lat="46.91437" lon="-1.17891">
        <ele>61.74</ele>
        <time>2024-03-17T19:39:44.374Z</time>
      </trkpt>
      <trkpt lat="46.91435" lon="-1.17908">
        <ele>61.58</ele>
        <time>2024-03-17T19:39:51.589Z</time>
      </trkpt>
      <trkpt lat="46.91439" lon="-1.17917">
        <ele>61.45</ele>
        <time>2024-03-17T19:39:58.806Z</time>
      </trkpt>
      <trkpt lat="46.91451" lon="-1.17927">
        <ele>61.39</ele>
        <time>2024-03-17T19:40:06.025Z</time>
      </trkpt>
      <trkpt lat="46.91453" lon="-1.17951">
        <ele>61.25</ele>
        <time>2024-03-17T19:40:13.248Z</time>
      </trkpt>
      <trkpt lat="46.91455" lon="-1.17955">
        <ele>61.25</ele>
        <time>2024-03-17T19:40:20.471Z</time>
      </trkpt>
      <trkpt lat="46.91457" lon="-1.17961">
        <ele>61.3</ele>
        <time>2024-03-17T19:40:27.695Z</time>
      </trkpt>
      <trkpt lat="46.91459" lon="-1.17978">
        <ele>61.38</ele>
        <time>2024-03-17T19:40:34.922Z</time>
      </trkpt>
      <trkpt lat="46.91479" lon="-1.18011">
        <ele>61.63</ele>
        <time>2024-03-17T19:40:42.155Z</time>
      </trkpt>
      <trkpt lat="46.915" lon="-1.1803">
        <ele>61.95</ele>
        <time>2024-03-17T19:40:49.393Z</time>
      </trkpt>
      <trkpt lat="46.91552" lon="-1.18055">
        <ele>62.35</ele>
        <time>2024-03-17T19:40:56.642Z</time>
      </trkpt>
      <trkpt lat="46.91584" lon="-1.18087">
        <ele>62.75</ele>
        <time>2024-03-17T19:41:03.898Z</time>
      </trkpt>
      <trkpt lat="46.91597" lon="-1.1808">
        <ele>63.16</ele>
        <time>2024-03-17T19:41:11.157Z</time>
      </trkpt>
      <trkpt lat="46.91596" lon="-1.18084">
        <ele>63.65</ele>
        <time>2024-03-17T19:41:18.417Z</time>
      </trkpt>
      <trkpt lat="46.91598" lon="-1.18073">
        <ele>64.17</ele>
        <time>2024-03-17T19:41:25.678Z</time>
      </trkpt>
      <trkpt lat="46.91591" lon="-1.18033">
        <ele>64.83</ele>
        <time>2024-03-17T19:41:32.945Z</time>
      </trkpt>
      <trkpt lat="46.91586" lon="-1.18016">
        <ele>65.47</ele>
        <time>2024-03-17T19:41:40.215Z</time>
      </trkpt>
      <trkpt lat="46.9159" lon="-1.18">
        <ele>66.14</ele>
        <time>2024-03-17T19:41:47.487Z</time>
      </trkpt>
      <trkpt lat="46.9159" lon="-1.17974">
        <ele>66.89</ele>
        <time>2024-03-17T19:41:54.762Z</time>
      </trkpt>
      <trkpt lat="46.91588" lon="-1.17955">
        <ele>67.65</ele>
        <time>2024-03-17T19:42:02.040Z</time>
      </trkpt>
      <trkpt lat="46.91593" lon="-1.17895">
        <ele>68.55</ele>
        <time>2024-03-17T19:42:09.326Z</time>
      </trkpt>
      <trkpt lat="46.9159" lon="-1.1787">
        <ele>69.32</ele>
        <time>2024-03-17T19:42:16.616Z</time>
      </trkpt>
      <trkpt lat="46.91567" lon="-1.17829">
        <ele>70.16</ele>
        <time>2024-03-17T19:42:23.913Z</time>
      </trkpt>
      <trkpt lat="46.91537" lon="-1.17758">
        <ele>70.87</ele>
        <time>2024-03-17T19:42:31.221Z</time>
      </trkpt>
      <trkpt lat="46.91522" lon="-1.1769">
        <ele>71.65</ele>
        <time>2024-03-17T19:42:38.539Z</time>
      </trkpt>
      <trkpt lat="46.91515" lon="-1.1764">
        <ele>72.39</ele>
        <time>2024-03-17T19:42:45.864Z</time>
      </trkpt>
      <trkpt lat="46.91505" lon="-1.17606">
        <ele>73.08</ele>
        <time>2024-03-17T19:42:53.194Z</time>
      </trkpt>
      <trkpt lat="46.91502" lon="-1.17587">
        <ele>73.73</ele>
        <time>2024-03-17T19:43:00.527Z</time>
      </trkpt>
      <trkpt lat="46.91502" lon="-1.17574">
        <ele>74.34</ele>
        <time>2024-03-17T19:43:07.862Z</time>
      </trkpt>
      <trkpt lat="46.91505" lon="-1.17554">
        <ele>74.96</ele>
        <time>2024-03-17T19:43:15.200Z</time>
      </trkpt>
      <trkpt lat="46.91506" lon="-1.17534">
        <ele>75.45</ele>
        <time>2024-03-17T19:43:22.540Z</time>
      </trkpt>
      <trkpt lat="46.91511" lon="-1.17521">
        <ele>75.88</ele>
        <time>2024-03-17T19:43:29.882Z</time>
      </trkpt>
      <trkpt lat="46.91513" lon="-1.17461">
        <ele>76.23</ele>
        <time>2024-03-17T19:43:37.233Z</time>
      </trkpt>
      <trkpt lat="46.91512" lon="-1.17431">
        <ele>76.58</ele>
        <time>2024-03-17T19:43:44.588Z</time>
      </trkpt>
      <trkpt lat="46.91514" lon="-1.17433">
        <ele>76.8</ele>
        <time>2024-03-17T19:43:51.943Z</time>
      </trkpt>
      <trkpt lat="46.91522" lon="-1.17441">
        <ele>76.92</ele>
        <time>2024-03-17T19:43:59.300Z</time>
      </trkpt>
      <trkpt lat="46.91529" lon="-1.17453">
        <ele>76.97</ele>
        <time>2024-03-17T19:44:06.659Z</time>
      </trkpt>
      <trkpt lat="46.91532" lon="-1.17459">
        <ele>76.98</ele>
        <time>2024-03-17T19:44:14.020Z</time>
      </trkpt>
      <trkpt lat="46.91532" lon="-1.17469">
        <ele>76.93</ele>
        <time>2024-03-17T19:44:21.382Z</time>
      </trkpt>
      <trkpt lat="46.91541" lon="-1.17476">
        <ele>76.81</ele>
        <time>2024-03-17T19:44:28.746Z</time>
      </trkpt>
      <trkpt lat="46.91544" lon="-1.17481">
        <ele>76.65</ele>
        <time>2024-03-17T19:44:36.111Z</time>
      </trkpt>
      <trkpt lat="46.91546" lon="-1.1749">
        <ele>76.43</ele>
        <time>2024-03-17T19:44:43.477Z</time>
      </trkpt>
      <trkpt lat="46.91548" lon="-1.17493">
        <ele>76.16</ele>
        <time>2024-03-17T19:44:50.844Z</time>
      </trkpt>
      <trkpt lat="46.91549" lon="-1.17502">
        <ele>75.85</ele>
        <time>2024-03-17T19:44:58.212Z</time>
      </trkpt>
      <trkpt lat="46.91551" lon="-1.17503">
        <ele>75.5</ele>
        <time>2024-03-17T19:45:05.580Z</time>
      </trkpt>
      <trkpt lat="46.91553" lon="-1.17499">
        <ele>75.1</ele>
        <time>2024-03-17T19:45:12.949Z</time>
      </trkpt>
      <trkpt lat="46.91558" lon="-1.17519">
        <ele>74.65</ele>
        <time>2024-03-17T19:45:20.321Z</time>
      </trkpt>
      <trkpt lat="46.91561" lon="-1.17554">
        <ele>74.11</ele>
        <time>2024-03-17T19:45:27.698Z</time>
      </trkpt>
      <trkpt lat="46.91558" lon="-1.17575">
        <ele>73.62</ele>
        <time>2024-03-17T19:45:35.078Z</time>
      </trkpt>
      <trkpt lat="46.91554" lon="-1.17582">
        <ele>73.14</ele>
        <time>2024-03-17T19:45:42.459Z</time>
      </trkpt>
      <trkpt lat="46.9155" lon="-1.17585">
        <ele>72.64</ele>
        <time>2024-03-17T19:45:49.841Z</time>
      </trkpt>
      <trkpt lat="46.91544" lon="-1.17596">
        <ele>72.12</ele>
        <time>2024-03-17T19:45:57.225Z</time>
      </trkpt>
      <trkpt lat="46.91539" lon="-1.17618">
        <ele>71.56</ele>
        <time>2024-03-17T19:46:04.612Z</time>
      </trkpt>
      <trkpt lat="46.91538" lon="-1.17637">
        <ele>70.95</ele>
        <time>2024-03-17T19:46:12.001Z</time>
      </trkpt>
      <trkpt lat="46.91533" lon="-1.17667">
        <ele>70.34</ele>
        <time>2024-03-17T19:46:19.395Z</time>
      </trkpt>
      <trkpt lat="46.91535" lon="-1.17667">
        <ele>69.74</ele>
        <time>2024-03-17T19:46:26.789Z</time>
      </trkpt>
      <trkpt lat="46.91539" lon="-1.17668">
        <ele>69.12</ele>
        <time>2024-03-17T19:46:34.184Z</time>
      </trkpt>
      <trkpt lat="46.91544" lon="-1.17673">
        <ele>68.48</ele>
        <time>2024-03-17T19:46:41.580Z</time>
      </trkpt>
      <trkpt lat="46.91573" lon="-1.17749">
        <ele>67.64</ele>
        <time>2024-03-17T19:46:48.988Z</time>
      </trkpt>
      <trkpt lat="46.91603" lon="-1.17785">
        <ele>67.07</ele>
        <time>2024-03-17T19:46:56.404Z</time>
      </trkpt>
      <trkpt lat="46.91641" lon="-1.17827">
        <ele>66.51</ele>
        <time>2024-03-17T19:47:03.829Z</time>
      </trkpt>
      <trkpt lat="46.91651" lon="-1.17841">
        <ele>65.98</ele>
        <time>2024-03-17T19:47:11.257Z</time>
      </trkpt>
      <trkpt lat="46.91654" lon="-1.17852">
        <ele>65.49</ele>
        <time>2024-03-17T19:47:18.687Z</time>
      </trkpt>
      <trkpt lat="46.91654" lon="-1.1786">
        <ele>65.04</ele>
        <time>2024-03-17T19:47:26.118Z</time>
      </trkpt>
      <trkpt lat="46.91661" lon="-1.17867">
        <ele>64.62</ele>
        <time>2024-03-17T19:47:33.551Z</time>
      </trkpt>
      <trkpt lat="46.91665" lon="-1.17877">
        <ele>64.25</ele>
        <time>2024-03-17T19:47:40.985Z</time>
      </trkpt>
      <trkpt lat="46.9167" lon="-1.17879">
        <ele>63.9</ele>
        <time>2024-03-17T19:47:48.420Z</time>
      </trkpt>
      <trkpt lat="46.91672" lon="-1.17882">
        <ele>63.59</ele>
        <time>2024-03-17T19:47:55.856Z</time>
      </trkpt>
      <trkpt lat="46.91671" lon="-1.17887">
        <ele>63.31</ele>
        <time>2024-03-17T19:48:03.293Z</time>
      </trkpt>
      <trkpt lat="46.91668" lon="-1.1789">
        <ele>63.05</ele>
        <time>2024-03-17T19:48:10.730Z</time>
      </trkpt>
      <trkpt lat="46.91667" lon="-1.17898">
        <ele>62.83</ele>
        <time>2024-03-17T19:48:18.168Z</time>
      </trkpt>
      <trkpt lat="46.9166" lon="-1.17909">
        <ele>62.63</ele>
        <time>2024-03-17T19:48:25.608Z</time>
      </trkpt>
      <trkpt lat="46.91658" lon="-1.17924">
        <ele>62.43</ele>
        <time>2024-03-17T19:48:33.051Z</time>
      </trkpt>
      <trkpt lat="46.91657" lon="-1.17953">
        <ele>62.25</ele>
        <time>2024-03-17T19:48:40.498Z</time>
      </trkpt>
      <trkpt lat="46.9166" lon="-1.17974">
        <ele>62.07</ele>
        <time>2024-03-17T19:48:47.948Z</time>
      </trkpt>
      <trkpt lat="46.91666" lon="-1.17995">
        <ele>61.89</ele>
        <time>2024-03-17T19:48:55.401Z</time>
      </trkpt>
      <trkpt lat="46.91665" lon="-1.18006">
        <ele>61.77</ele>
        <time>2024-03-17T19:49:02.855Z</time>
      </trkpt>
      <trkpt lat="46.91656" lon="-1.18027">
        <ele>61.66</ele>
        <time>2024-03-17T19:49:10.313Z</time>
      </trkpt>
      <trkpt lat="46.91663" lon="-1.18078">
        <ele>61.63</ele>
        <time>2024-03-17T19:49:17.778Z</time>
      </trkpt>
      <trkpt lat="46.91651" lon="-1.18095">
        <ele>61.56</ele>
        <time>2024-03-17T19:49:25.246Z</time>
      </trkpt>
      <trkpt lat="46.91649" lon="-1.18109">
        <ele>61.49</ele>
        <time>2024-03-17T19:49:32.716Z</time>
      </trkpt>
      <trkpt lat="46.91652" lon="-1.18132">
        <ele>61.37</ele>
        <time>2024-03-17T19:49:40.189Z</time>
      </trkpt>
      <trkpt lat="46.91668" lon="-1.1818">
        <ele>61.23</ele>
        <time>2024-03-17T19:49:47.669Z</time>
      </trkpt>
      <trkpt lat="46.91702" lon="-1.1819">
        <ele>61.38</ele>
        <time>2024-03-17T19:49:55.156Z</time>
      </trkpt>
      <trkpt lat="46.91707" lon="-1.18198">
        <ele>61.43</ele>
        <time>2024-03-17T19:50:02.645Z</time>
      </trkpt>
      <trkpt lat="46.9172" lon="-1.18249">
        <ele>61.42</ele>
        <time>2024-03-17T19:50:10.141Z</time>
      </trkpt>
      <trkpt lat="46.91741" lon="-1.18309">
        <ele>61.63</ele>
        <time>2024-03-17T19:50:17.646Z</time>
      </trkpt>
      <trkpt lat="46.9175" lon="-1.18327">
        <ele>61.77</ele>
        <time>2024-03-17T19:50:25.154Z</time>
      </trkpt>
      <trkpt lat="46.91769" lon="-1.18335">
        <ele>62.09</ele>
        <time>2024-03-17T19:50:32.666Z</time>
      </trkpt>
      <trkpt lat="46.91769" lon="-1.18346">
        <ele>62.37</ele>
        <time>2024-03-17T19:50:40.180Z</time>
      </trkpt>
      <trkpt lat="46.91763" lon="-1.18377">
        <ele>62.36</ele>
        <time>2024-03-17T19:50:47.698Z</time>
      </trkpt>
      <trkpt lat="46.91762" lon="-1.18393">
        <ele>62.66</ele>
        <time>2024-03-17T19:50:55.219Z</time>
      </trkpt>
      <trkpt lat="46.91766" lon="-1.18413">
        <ele>63.07</ele>
        <time>2024-03-17T19:51:02.742Z</time>
      </trkpt>
      <trkpt lat="46.91772" lon="-1.18427">
        <ele>63.55</ele>
        <time>2024-03-17T19:51:10.268Z</time>
      </trkpt>
      <trkpt lat="46.91772" lon="-1.18426">
        <ele>63.98</ele>
        <time>2024-03-17T19:51:17.794Z</time>
      </trkpt>
      <trkpt lat="46.91811" lon="-1.18395">
        <ele>64.74</ele>
        <time>2024-03-17T19:51:25.329Z</time>
      </trkpt>
      <trkpt lat="46.91828" lon="-1.18384">
        <ele>65.23</ele>
        <time>2024-03-17T19:51:32.867Z</time>
      </trkpt>
      <trkpt lat="46.91855" lon="-1.18371">
        <ele>65.73</ele>
        <time>2024-03-17T19:51:40.411Z</time>
      </trkpt>
      <trkpt lat="46.91881" lon="-1.18345">
        <ele>66.27</ele>
        <time>2024-03-17T19:51:47.961Z</time>
      </trkpt>
      <trkpt lat="46.91883" lon="-1.1834">
        <ele>66.67</ele>
        <time>2024-03-17T19:51:55.512Z</time>
      </trkpt>
      <trkpt lat="46.91928" lon="-1.18491">
        <ele>66.96</ele>
        <time>2024-03-17T19:52:03.086Z</time>
      </trkpt>
      <trkpt lat="46.91934" lon="-1.18505">
        <ele>67.23</ele>
        <time>2024-03-17T19:52:10.662Z</time>
      </trkpt>
      <trkpt lat="46.92034" lon="-1.18651">
        <ele>67.54</ele>
        <time>2024-03-17T19:52:18.266Z</time>
      </trkpt>
      <trkpt lat="46.9205" lon="-1.18679">
        <ele>67.73</ele>
        <time>2024-03-17T19:52:25.875Z</time>
      </trkpt>
      <trkpt lat="46.92063" lon="-1.18709">
        <ele>67.84</ele>
        <time>2024-03-17T19:52:33.489Z</time>
      </trkpt>
      <trkpt lat="46.92074" lon="-1.18744">
        <ele>67.85</ele>
        <time>2024-03-17T19:52:41.108Z</time>
      </trkpt>
      <trkpt lat="46.92062" lon="-1.1883">
        <ele>67.8</ele>
        <time>2024-03-17T19:52:48.739Z</time>
      </trkpt>
      <trkpt lat="46.9206" lon="-1.18865">
        <ele>67.84</ele>
        <time>2024-03-17T19:52:56.375Z</time>
      </trkpt>
      <trkpt lat="46.92063" lon="-1.18893">
        <ele>67.81</ele>
        <time>2024-03-17T19:53:04.015Z</time>
      </trkpt>
      <trkpt lat="46.92064" lon="-1.189">
        <ele>67.76</ele>
        <time>2024-03-17T19:53:11.656Z</time>
      </trkpt>
      <trkpt lat="46.9212" lon="-1.1903">
        <ele>67.76</ele>
        <time>2024-03-17T19:53:19.318Z</time>
      </trkpt>
      <trkpt lat="46.92126" lon="-1.1905">
        <ele>67.6</ele>
        <time>2024-03-17T19:53:26.983Z</time>
      </trkpt>
      <trkpt lat="46.92128" lon="-1.19066">
        <ele>67.44</ele>
        <time>2024-03-17T19:53:34.650Z</time>
      </trkpt>
      <trkpt lat="46.92127" lon="-1.19077">
        <ele>67.24</ele>
        <time>2024-03-17T19:53:42.319Z</time>
      </trkpt>
      <trkpt lat="46.92127" lon="-1.19101">
        <ele>66.99</ele>
        <time>2024-03-17T19:53:49.991Z</time>
      </trkpt>
      <trkpt lat="46.9213" lon="-1.1914">
        <ele>66.61</ele>
        <time>2024-03-17T19:53:57.669Z</time>
      </trkpt>
      <trkpt lat="46.92132" lon="-1.19154">
        <ele>66.34</ele>
        <time>2024-03-17T19:54:05.349Z</time>
      </trkpt>
      <trkpt lat="46.92146" lon="-1.1921">
        <ele>65.98</ele>
        <time>2024-03-17T19:54:13.037Z</time>
      </trkpt>
      <trkpt lat="46.9215" lon="-1.19211">
        <ele>65.79</ele>
        <time>2024-03-17T19:54:20.726Z</time>
      </trkpt>
      <trkpt lat="46.9216" lon="-1.19231">
        <ele>65.54</ele>
        <time>2024-03-17T19:54:28.418Z</time>
      </trkpt>
      <trkpt lat="46.92167" lon="-1.19237">
        <ele>65.42</ele>
        <time>2024-03-17T19:54:36.112Z</time>
      </trkpt>
      <trkpt lat="46.92187" lon="-1.19237">
        <ele>65.37</ele>
        <time>2024-03-17T19:54:43.810Z</time>
      </trkpt>
      <trkpt lat="46.92194" lon="-1.19234">
        <ele>65.29</ele>
        <time>2024-03-17T19:54:51.509Z</time>
      </trkpt>
      <trkpt lat="46.92242" lon="-1.19223">
        <ele>65.21</ele>
        <time>2024-03-17T19:54:59.218Z</time>
      </trkpt>
      <trkpt lat="46.92246" lon="-1.1922">
        <ele>65.17</ele>
        <time>2024-03-17T19:55:06.928Z</time>
      </trkpt>
      <trkpt lat="46.92266" lon="-1.19205">
        <ele>65.2</ele>
        <time>2024-03-17T19:55:14.642Z</time>
      </trkpt>
      <trkpt lat="46.92272" lon="-1.19195">
        <ele>65.29</ele>
        <time>2024-03-17T19:55:22.358Z</time>
      </trkpt>
      <trkpt lat="46.92274" lon="-1.1918">
        <ele>65.37</ele>
        <time>2024-03-17T19:55:30.076Z</time>
      </trkpt>
      <trkpt lat="46.92281" lon="-1.19151">
        <ele>65.48</ele>
        <time>2024-03-17T19:55:37.798Z</time>
      </trkpt>
      <trkpt lat="46.92288" lon="-1.19141">
        <ele>65.55</ele>
        <time>2024-03-17T19:55:45.522Z</time>
      </trkpt>
      <trkpt lat="46.92296" lon="-1.19148">
        <ele>65.57</ele>
        <time>2024-03-17T19:55:53.248Z</time>
      </trkpt>
      <trkpt lat="46.92302" lon="-1.19149">
        <ele>65.57</ele>
        <time>2024-03-17T19:56:00.975Z</time>
      </trkpt>
      <trkpt lat="46.92303" lon="-1.19153">
        <ele>65.57</ele>
        <time>2024-03-17T19:56:08.703Z</time>
      </trkpt>
      <trkpt lat="46.92314" lon="-1.19153">
        <ele>65.54</ele>
        <time>2024-03-17T19:56:16.433Z</time>
      </trkpt>
      <trkpt lat="46.92323" lon="-1.19163">
        <ele>65.48</ele>
        <time>2024-03-17T19:56:24.165Z</time>
      </trkpt>
      <trkpt lat="46.92325" lon="-1.19172">
        <ele>65.43</ele>
        <time>2024-03-17T19:56:31.899Z</time>
      </trkpt>
      <trkpt lat="46.92324" lon="-1.19204">
        <ele>65.35</ele>
        <time>2024-03-17T19:56:39.637Z</time>
      </trkpt>
      <trkpt lat="46.92315" lon="-1.19248">
        <ele>65.2</ele>
        <time>2024-03-17T19:56:47.381Z</time>
      </trkpt>
      <trkpt lat="46.9231" lon="-1.19259">
        <ele>65.07</ele>
        <time>2024-03-17T19:56:55.127Z</time>
      </trkpt>
      <trkpt lat="46.923" lon="-1.1927">
        <ele>64.91</ele>
        <time>2024-03-17T19:57:02.876Z</time>
      </trkpt>
      <trkpt lat="46.92277" lon="-1.19293">
        <ele>64.83</ele>
        <time>2024-03-17T19:57:10.630Z</time>
      </trkpt>
      <trkpt lat="46.92272" lon="-1.19309">
        <ele>64.77</ele>
        <time>2024-03-17T19:57:18.387Z</time>
      </trkpt>
      <trkpt lat="46.92274" lon="-1.19315">
        <ele>64.66</ele>
        <time>2024-03-17T19:57:26.145Z</time>
      </trkpt>
      <trkpt lat="46.92272" lon="-1.19324">
        <ele>64.54</ele>
        <time>2024-03-17T19:57:33.904Z</time>
      </trkpt>
      <trkpt lat="46.92262" lon="-1.19341">
        <ele>64.46</ele>
        <time>2024-03-17T19:57:41.666Z</time>
      </trkpt>
      <trkpt lat="46.92234" lon="-1.19359">
        <ele>64.26</ele>
        <time>2024-03-17T19:57:49.434Z</time>
      </trkpt>
      <trkpt lat="46.92216" lon="-1.19368">
        <ele>63.93</ele>
        <time>2024-03-17T19:57:57.206Z</time>
      </trkpt>
      <trkpt lat="46.92196" lon="-1.19383">
        <ele>63.6</ele>
        <time>2024-03-17T19:58:04.982Z</time>
      </trkpt>
      <trkpt lat="46.92175" lon="-1.19405">
        <ele>63.34</ele>
        <time>2024-03-17T19:58:12.764Z</time>
      </trkpt>
      <trkpt lat="46.92172" lon="-1.1941">
        <ele>63.12</ele>
        <time>2024-03-17T19:58:20.546Z</time>
      </trkpt>
      <trkpt lat="46.92156" lon="-1.19421">
        <ele>62.89</ele>
        <time>2024-03-17T19:58:28.332Z</time>
      </trkpt>
      <trkpt lat="46.92144" lon="-1.19425">
        <ele>62.66</ele>
        <time>2024-03-17T19:58:36.121Z</time>
      </trkpt>
      <trkpt lat="46.92131" lon="-1.19423">
        <ele>62.41</ele>
        <time>2024-03-17T19:58:43.912Z</time>
      </trkpt>
      <trkpt lat="46.92112" lon="-1.19414">
        <ele>62.12</ele>
        <time>2024-03-17T19:58:51.707Z</time>
      </trkpt>
      <trkpt lat="46.92104" lon="-1.19417">
        <ele>61.89</ele>
        <time>2024-03-17T19:58:59.504Z</time>
      </trkpt>
      <trkpt lat="46.92077" lon="-1.19437">
        <ele>61.68</ele>
        <time>2024-03-17T19:59:07.307Z</time>
      </trkpt>
      <trkpt lat="46.92055" lon="-1.19465">
        <ele>61.39</ele>
        <time>2024-03-17T19:59:15.116Z</time>
      </trkpt>
      <trkpt lat="46.92045" lon="-1.19492">
        <ele>61.1</ele>
        <time>2024-03-17T19:59:22.929Z</time>
      </trkpt>
      <trkpt lat="46.92027" lon="-1.19563">
        <ele>61.01</ele>
        <time>2024-03-17T19:59:30.752Z</time>
      </trkpt>
      <trkpt lat="46.9202" lon="-1.19571">
        <ele>60.88</ele>
        <time>2024-03-17T19:59:38.577Z</time>
      </trkpt>
      <trkpt lat="46.91979" lon="-1.19594">
        <ele>60.68</ele>
        <time>2024-03-17T19:59:46.411Z</time>
      </trkpt>
      <trkpt lat="46.91961" lon="-1.19607">
        <ele>60.54</ele>
        <time>2024-03-17T19:59:54.249Z</time>
      </trkpt>
      <trkpt lat="46.91943" lon="-1.19625">
        <ele>60.39</ele>
        <time>2024-03-17T20:00:02.091Z</time>
      </trkpt>
      <trkpt lat="46.91932" lon="-1.19642">
        <ele>60.34</ele>
        <time>2024-03-17T20:00:09.936Z</time>
      </trkpt>
      <trkpt lat="46.91925" lon="-1.19663">
        <ele>60.36</ele>
        <time>2024-03-17T20:00:17.784Z</time>
      </trkpt>
      <trkpt lat="46.91923" lon="-1.19686">
        <ele>60.38</ele>
        <time>2024-03-17T20:00:25.636Z</time>
      </trkpt>
      <trkpt lat="46.91929" lon="-1.1973">
        <ele>60.44</ele>
        <time>2024-03-17T20:00:33.494Z</time>
      </trkpt>
      <trkpt lat="46.91927" lon="-1.19746">
        <ele>60.45</ele>
        <time>2024-03-17T20:00:41.354Z</time>
      </trkpt>
      <trkpt lat="46.91923" lon="-1.19752">
        <ele>60.48</ele>
        <time>2024-03-17T20:00:49.215Z</time>
      </trkpt>
      <trkpt lat="46.91923" lon="-1.19756">
        <ele>60.53</ele>
        <time>2024-03-17T20:00:57.077Z</time>
      </trkpt>
      <trkpt lat="46.91924" lon="-1.19765">
        <ele>60.59</ele>
        <time>2024-03-17T20:01:04.940Z</time>
      </trkpt>
      <trkpt lat="46.91929" lon="-1.19777">
        <ele>60.66</ele>
        <time>2024-03-17T20:01:12.805Z</time>
      </trkpt>
      <trkpt lat="46.91941" lon="-1.19778">
        <ele>60.75</ele>
        <time>2024-03-17T20:01:20.672Z</time>
      </trkpt>
      <trkpt lat="46.91947" lon="-1.19781">
        <ele>60.83</ele>
        <time>2024-03-17T20:01:28.541Z</time>
      </trkpt>
      <trkpt lat="46.91945" lon="-1.19797">
        <ele>60.9</ele>
        <time>2024-03-17T20:01:36.412Z</time>
      </trkpt>
      <trkpt lat="46.91924" lon="-1.1983">
        <ele>60.93</ele>
        <time>2024-03-17T20:01:44.289Z</time>
      </trkpt>
      <trkpt lat="46.91916" lon="-1.19869">
        <ele>61.02</ele>
        <time>2024-03-17T20:01:52.172Z</time>
      </trkpt>
      <trkpt lat="46.91918" lon="-1.19888">
        <ele>61.11</ele>
        <time>2024-03-17T20:02:00.057Z</time>
      </trkpt>
      <trkpt lat="46.91919" lon="-1.19913">
        <ele>61.2</ele>
        <time>2024-03-17T20:02:07.946Z</time>
      </trkpt>
      <trkpt lat="46.91918" lon="-1.19974">
        <ele>61.23</ele>
        <time>2024-03-17T20:02:15.843Z</time>
      </trkpt>
      <trkpt lat="46.91957" lon="-1.20061">
        <ele>61.3</ele>
        <time>2024-03-17T20:02:23.755Z</time>
      </trkpt>
      <trkpt lat="46.91994" lon="-1.20137">
        <ele>61.31</ele>
        <time>2024-03-17T20:02:31.679Z</time>
      </trkpt>
      <trkpt lat="46.92001" lon="-1.2016">
        <ele>61.27</ele>
        <time>2024-03-17T20:02:39.607Z</time>
      </trkpt>
      <trkpt lat="46.91984" lon="-1.20222">
        <ele>61.22</ele>
        <time>2024-03-17T20:02:47.544Z</time>
      </trkpt>
      <trkpt lat="46.91963" lon="-1.20242">
        <ele>61.11</ele>
        <time>2024-03-17T20:02:55.486Z</time>
      </trkpt>
      <trkpt lat="46.91961" lon="-1.20263">
        <ele>61.08</ele>
        <time>2024-03-17T20:03:03.431Z</time>
      </trkpt>
      <trkpt lat="46.91964" lon="-1.20284">
        <ele>61.05</ele>
        <time>2024-03-17T20:03:11.379Z</time>
      </trkpt>
      <trkpt lat="46.92011" lon="-1.20314">
        <ele>61.1</ele>
        <time>2024-03-17T20:03:19.337Z</time>
      </trkpt>
      <trkpt lat="46.9203" lon="-1.20329">
        <ele>61.15</ele>
        <time>2024-03-17T20:03:27.299Z</time>
      </trkpt>
      <trkpt lat="46.92035" lon="-1.20373">
        <ele>61.16</ele>
        <time>2024-03-17T20:03:35.267Z</time>
      </trkpt>
      <trkpt lat="46.92034" lon="-1.20392">
        <ele>61.2</ele>
        <time>2024-03-17T20:03:43.238Z</time>
      </trkpt>
      <trkpt lat="46.92031" lon="-1.20402">
        <ele>61.23</ele>
        <time>2024-03-17T20:03:51.211Z</time>
      </trkpt>
      <trkpt lat="46.91994" lon="-1.20475">
        <ele>61.03</ele>
        <time>2024-03-17T20:03:59.196Z</time>
      </trkpt>
      <trkpt lat="46.91981" lon="-1.20495">
        <ele>61.02</ele>
        <time>2024-03-17T20:04:07.185Z</time>
      </trkpt>
      <trkpt lat="46.91983" lon="-1.20539">
        <ele>61.16</ele>
        <time>2024-03-17T20:04:15.180Z</time>
      </trkpt>
      <trkpt lat="46.9198" lon="-1.20555">
        <ele>61.34</ele>
        <time>2024-03-17T20:04:23.177Z</time>
      </trkpt>
      <trkpt lat="46.91976" lon="-1.20565">
        <ele>61.56</ele>
        <time>2024-03-17T20:04:31.176Z</time>
      </trkpt>
      <trkpt lat="46.92013" lon="-1.20618">
        <ele>61.84</ele>
        <time>2024-03-17T20:04:39.185Z</time>
      </trkpt>
      <trkpt lat="46.92047" lon="-1.20653">
        <ele>62.49</ele>
        <time>2024-03-17T20:04:47.202Z</time>
      </trkpt>
      <trkpt lat="46.92052" lon="-1.20662">
        <ele>62.83</ele>
        <time>2024-03-17T20:04:55.221Z</time>
      </trkpt>
      <trkpt lat="46.92052" lon="-1.20673">
        <ele>63.18</ele>
        <time>2024-03-17T20:05:03.241Z</time>
      </trkpt>
      <trkpt lat="46.92043" lon="-1.20728">
        <ele>63.56</ele>
        <time>2024-03-17T20:05:11.269Z</time>
      </trkpt>
      <trkpt lat="46.92041" lon="-1.20755">
        <ele>63.93</ele>
        <time>2024-03-17T20:05:19.301Z</time>
      </trkpt>
      <trkpt lat="46.92044" lon="-1.20821">
        <ele>64.39</ele>
        <time>2024-03-17T20:05:27.342Z</time>
      </trkpt>
      <trkpt lat="46.92071" lon="-1.20834">
        <ele>64.87</ele>
        <time>2024-03-17T20:05:35.389Z</time>
      </trkpt>
      <trkpt lat="46.92121" lon="-1.20857">
        <ele>65.58</ele>
        <time>2024-03-17T20:05:43.446Z</time>
      </trkpt>
      <trkpt lat="46.9207" lon="-1.20862">
        <ele>65.67</ele>
        <time>2024-03-17T20:05:51.513Z</time>
      </trkpt>
      <trkpt lat="46.92072" lon="-1.20864">
        <ele>66.07</ele>
        <time>2024-03-17T20:05:59.581Z</time>
      </trkpt>
      <trkpt lat="46.92065" lon="-1.20872">
        <ele>66.39</ele>
        <time>2024-03-17T20:06:07.651Z</time>
      </trkpt>
      <trkpt lat="46.92042" lon="-1.2091">
        <ele>66.77</ele>
        <time>2024-03-17T20:06:15.728Z</time>
      </trkpt>
      <trkpt lat="46.92013" lon="-1.20966">
        <ele>67.14</ele>
        <time>2024-03-17T20:06:23.814Z</time>
      </trkpt>
      <trkpt lat="46.91986" lon="-1.21012">
        <ele>67.29</ele>
        <time>2024-03-17T20:06:31.909Z</time>
      </trkpt>
      <trkpt lat="46.91966" lon="-1.21062">
        <ele>67.39</ele>
        <time>2024-03-17T20:06:40.012Z</time>
      </trkpt>
      <trkpt lat="46.91966" lon="-1.21121">
        <ele>67.67</ele>
        <time>2024-03-17T20:06:48.123Z</time>
      </trkpt>
      <trkpt lat="46.9197" lon="-1.21156">
        <ele>67.93</ele>
        <time>2024-03-17T20:06:56.239Z</time>
      </trkpt>
      <trkpt lat="46.91972" lon="-1.2116">
        <ele>68.11</ele>
        <time>2024-03-17T20:07:04.355Z</time>
      </trkpt>
      <trkpt lat="46.91976" lon="-1.21168">
        <ele>68.26</ele>
        <time>2024-03-17T20:07:12.473Z</time>
      </trkpt>
      <trkpt lat="46.91982" lon="-1.2117">
        <ele>68.34</ele>
        <time>2024-03-17T20:07:20.592Z</time>
      </trkpt>
      <trkpt lat="46.92049" lon="-1.21186">
        <ele>68.61</ele>
        <time>2024-03-17T20:07:28.725Z</time>
      </trkpt>
      <trkpt lat="46.9207" lon="-1.21185">
        <ele>68.63</ele>
        <time>2024-03-17T20:07:36.862Z</time>
      </trkpt>
      <trkpt lat="46.92073" lon="-1.21162">
        <ele>68.5</ele>
        <time>2024-03-17T20:07:45.002Z</time>
      </trkpt>
      <trkpt lat="46.92083" lon="-1.21111">
        <ele>68.3</ele>
        <time>2024-03-17T20:07:53.149Z</time>
      </trkpt>
      <trkpt lat="46.92091" lon="-1.21064">
        <ele>68.01</ele>
        <time>2024-03-17T20:08:01.303Z</time>
      </trkpt>
      <trkpt lat="46.92096" lon="-1.21052">
        <ele>67.63</ele>
        <time>2024-03-17T20:08:09.459Z</time>
      </trkpt>
      <trkpt lat="46.92102" lon="-1.21053">
        <ele>67.16</ele>
        <time>2024-03-17T20:08:17.616Z</time>
      </trkpt>
      <trkpt lat="46.92111" lon="-1.2106">
        <ele>66.61</ele>
        <time>2024-03-17T20:08:25.775Z</time>
      </trkpt>
      <trkpt lat="46.92114" lon="-1.21095">
        <ele>65.97</ele>
        <time>2024-03-17T20:08:33.939Z</time>
      </trkpt>
      <trkpt lat="46.92124" lon="-1.21142">
        <ele>65.26</ele>
        <time>2024-03-17T20:08:42.110Z</time>
      </trkpt>
      <trkpt lat="46.92144" lon="-1.212">
        <ele>64.46</ele>
        <time>2024-03-17T20:08:50.289Z</time>
      </trkpt>
      <trkpt lat="46.92054" lon="-1.2125">
        <ele>63.37</ele>
        <time>2024-03-17T20:08:58.488Z</time>
      </trkpt>
      <trkpt lat="46.9205" lon="-1.21262">
        <ele>62.48</ele>
        <time>2024-03-17T20:09:06.688Z</time>
      </trkpt>
      <trkpt lat="46.92041" lon="-1.21422">
        <ele>61.62</ele>
        <time>2024-03-17T20:09:14.911Z</time>
      </trkpt>
      <trkpt lat="46.91951" lon="-1.2143">
        <ele>60.62</ele>
        <time>2024-03-17T20:09:23.152Z</time>
      </trkpt>
      <trkpt lat="46.91899" lon="-1.21437">
        <ele>59.29</ele>
        <time>2024-03-17T20:09:31.403Z</time>
      </trkpt>
      <trkpt lat="46.91893" lon="-1.21446">
        <ele>58.4</ele>
        <time>2024-03-17T20:09:39.656Z</time>
      </trkpt>
      <trkpt lat="46.91884" lon="-1.21443">
        <ele>57.52</ele>
        <time>2024-03-17T20:09:47.911Z</time>
      </trkpt>
      <trkpt lat="46.91877" lon="-1.21448">
        <ele>56.77</ele>
        <time>2024-03-17T20:09:56.167Z</time>
      </trkpt>
      <trkpt lat="46.91868" lon="-1.21447">
        <ele>56.1</ele>
        <time>2024-03-17T20:10:04.425Z</time>
      </trkpt>
      <trkpt lat="46.91862" lon="-1.21463">
        <ele>55.59</ele>
        <time>2024-03-17T20:10:12.685Z</time>
      </trkpt>
      <trkpt lat="46.91851" lon="-1.21467">
        <ele>55.18</ele>
        <time>2024-03-17T20:10:20.948Z</time>
      </trkpt>
      <trkpt lat="46.91838" lon="-1.21466">
        <ele>54.91</ele>
        <time>2024-03-17T20:10:29.213Z</time>
      </trkpt>
      <trkpt lat="46.91836" lon="-1.21476">
        <ele>54.86</ele>
        <time>2024-03-17T20:10:37.480Z</time>
      </trkpt>
      <trkpt lat="46.91834" lon="-1.21507">
        <ele>55</ele>
        <time>2024-03-17T20:10:45.751Z</time>
      </trkpt>
      <trkpt lat="46.91829" lon="-1.21532">
        <ele>55.27</ele>
        <time>2024-03-17T20:10:54.025Z</time>
      </trkpt>
      <trkpt lat="46.91826" lon="-1.21567">
        <ele>55.7</ele>
        <time>2024-03-17T20:11:02.304Z</time>
      </trkpt>
      <trkpt lat="46.91823" lon="-1.21577">
        <ele>56.26</ele>
        <time>2024-03-17T20:11:10.585Z</time>
      </trkpt>
      <trkpt lat="46.91815" lon="-1.21587">
        <ele>56.94</ele>
        <time>2024-03-17T20:11:18.868Z</time>
      </trkpt>
      <trkpt lat="46.91805" lon="-1.21588">
        <ele>57.79</ele>
        <time>2024-03-17T20:11:27.153Z</time>
      </trkpt>
      <trkpt lat="46.91784" lon="-1.21586">
        <ele>58.79</ele>
        <time>2024-03-17T20:11:35.442Z</time>
      </trkpt>
      <trkpt lat="46.91781" lon="-1.21617">
        <ele>59.83</ele>
        <time>2024-03-17T20:11:43.736Z</time>
      </trkpt>
      <trkpt lat="46.91621" lon="-1.22">
        <ele>62.35</ele>
        <time>2024-03-17T20:11:52.091Z</time>
      </trkpt>
      <trkpt lat="46.91646" lon="-1.22108">
        <ele>63.52</ele>
        <time>2024-03-17T20:12:00.462Z</time>
      </trkpt>
      <trkpt lat="46.91471" lon="-1.22297">
        <ele>64.84</ele>
        <time>2024-03-17T20:12:08.876Z</time>
      </trkpt>
      <trkpt lat="46.91291" lon="-1.22487">
        <ele>65.93</ele>
        <time>2024-03-17T20:12:17.335Z</time>
      </trkpt>
      <trkpt lat="46.91267" lon="-1.22503">
        <ele>66.82</ele>
        <time>2024-03-17T20:12:25.799Z</time>
      </trkpt>
      <trkpt lat="46.91267" lon="-1.22503">
        <ele>66.83</ele>
        <time>2024-03-17T20:12:34.263Z</time>
      </trkpt>
      <trkpt lat="46.90903" lon="-1.22684">
        <ele>67.74</ele>
        <time>2024-03-17T20:12:42.804Z</time>
      </trkpt>
      <trkpt lat="46.90591" lon="-1.22837">
        <ele>68.18</ele>
        <time>2024-03-17T20:12:51.411Z</time>
      </trkpt>
      <trkpt lat="46.90571" lon="-1.22856">
        <ele>68.66</ele>
        <time>2024-03-17T20:13:00.023Z</time>
      </trkpt>
      <trkpt lat="46.90573" lon="-1.22863">
        <ele>68.95</ele>
        <time>2024-03-17T20:13:08.636Z</time>
      </trkpt>
      <trkpt lat="46.90575" lon="-1.22871">
        <ele>69.08</ele>
        <time>2024-03-17T20:13:17.250Z</time>
      </trkpt>
      <trkpt lat="46.90613" lon="-1.22952">
        <ele>69.06</ele>
        <time>2024-03-17T20:13:25.877Z</time>
      </trkpt>
      <trkpt lat="46.90715" lon="-1.23163">
        <ele>69.05</ele>
        <time>2024-03-17T20:13:34.540Z</time>
      </trkpt>
      <trkpt lat="46.90716" lon="-1.23172">
        <ele>68.67</ele>
        <time>2024-03-17T20:13:43.204Z</time>
      </trkpt>
      <trkpt lat="46.90715" lon="-1.23179">
        <ele>68.13</ele>
        <time>2024-03-17T20:13:51.869Z</time>
      </trkpt>
      <trkpt lat="46.90711" lon="-1.23187">
        <ele>67.44</ele>
        <time>2024-03-17T20:14:00.535Z</time>
      </trkpt>
      <trkpt lat="46.90511" lon="-1.23415">
        <ele>66.08</ele>
        <time>2024-03-17T20:14:09.252Z</time>
      </trkpt>
      <trkpt lat="46.90343" lon="-1.236">
        <ele>64.41</ele>
        <time>2024-03-17T20:14:18.011Z</time>
      </trkpt>
      <trkpt lat="46.90381" lon="-1.23714">
        <ele>63.44</ele>
        <time>2024-03-17T20:14:26.787Z</time>
      </trkpt>
      <trkpt lat="46.90428" lon="-1.23858">
        <ele>62.27</ele>
        <time>2024-03-17T20:14:35.585Z</time>
      </trkpt>
      <trkpt lat="46.90462" lon="-1.24049">
        <ele>61.39</ele>
        <time>2024-03-17T20:14:44.410Z</time>
      </trkpt>
      <trkpt lat="46.90488" lon="-1.24137">
        <ele>60.17</ele>
        <time>2024-03-17T20:14:53.249Z</time>
      </trkpt>
      <trkpt lat="46.90428" lon="-1.24196">
        <ele>59.06</ele>
        <time>2024-03-17T20:15:02.102Z</time>
      </trkpt>
      <trkpt lat="46.90424" lon="-1.24191">
        <ele>58.06</ele>
        <time>2024-03-17T20:15:10.956Z</time>
      </trkpt>
      <trkpt lat="46.90389" lon="-1.24197">
        <ele>56.92</ele>
        <time>2024-03-17T20:15:19.817Z</time>
      </trkpt>
      <trkpt lat="46.90354" lon="-1.24184">
        <ele>55.96</ele>
        <time>2024-03-17T20:15:28.685Z</time>
      </trkpt>
      <trkpt lat="46.90288" lon="-1.24158">
        <ele>55.31</ele>
        <time>2024-03-17T20:15:37.567Z</time>
      </trkpt>
      <trkpt lat="46.90277" lon="-1.24176">
        <ele>54.7</ele>
        <time>2024-03-17T20:15:46.452Z</time>
      </trkpt>
      <trkpt lat="46.90347" lon="-1.24261">
        <ele>53.94</ele>
        <time>2024-03-17T20:15:55.356Z</time>
      </trkpt>
      <trkpt lat="46.90415" lon="-1.24351">
        <ele>53.58</ele>
        <time>2024-03-17T20:16:04.278Z</time>
      </trkpt>
      <trkpt lat="46.90478" lon="-1.24448">
        <ele>52.94</ele>
        <time>2024-03-17T20:16:13.219Z</time>
      </trkpt>
      <trkpt lat="46.90515" lon="-1.24434">
        <ele>52.55</ele>
        <time>2024-03-17T20:16:22.167Z</time>
      </trkpt>
      <trkpt lat="46.90536" lon="-1.24494">
        <ele>52.22</ele>
        <time>2024-03-17T20:16:31.124Z</time>
      </trkpt>
      <trkpt lat="46.90578" lon="-1.24507">
        <ele>52.15</ele>
        <time>2024-03-17T20:16:40.090Z</time>
      </trkpt>
      <trkpt lat="46.90646" lon="-1.24705">
        <ele>52.84</ele>
        <time>2024-03-17T20:16:49.086Z</time>
      </trkpt>
      <trkpt lat="46.90668" lon="-1.24731">
        <ele>52.88</ele>
        <time>2024-03-17T20:16:58.088Z</time>
      </trkpt>
      <trkpt lat="46.90633" lon="-1.24821">
        <ele>52.89</ele>
        <time>2024-03-17T20:17:07.104Z</time>
      </trkpt>
      <trkpt lat="46.90616" lon="-1.24832">
        <ele>52.84</ele>
        <time>2024-03-17T20:17:16.124Z</time>
      </trkpt>
      <trkpt lat="46.90613" lon="-1.24892">
        <ele>52.85</ele>
        <time>2024-03-17T20:17:25.152Z</time>
      </trkpt>
      <trkpt lat="46.90551" lon="-1.24903">
        <ele>52.34</ele>
        <time>2024-03-17T20:17:34.193Z</time>
      </trkpt>
      <trkpt lat="46.90537" lon="-1.24968">
        <ele>52.11</ele>
        <time>2024-03-17T20:17:43.243Z</time>
      </trkpt>
      <trkpt lat="46.90558" lon="-1.25141">
        <ele>51.9</ele>
        <time>2024-03-17T20:17:52.317Z</time>
      </trkpt>
      <trkpt lat="46.90579" lon="-1.25159">
        <ele>52.03</ele>
        <time>2024-03-17T20:18:01.396Z</time>
      </trkpt>
      <trkpt lat="46.9065" lon="-1.25202">
        <ele>52.36</ele>
        <time>2024-03-17T20:18:10.490Z</time>
      </trkpt>
      <trkpt lat="46.90661" lon="-1.25202">
        <ele>52.57</ele>
        <time>2024-03-17T20:18:19.587Z</time>
      </trkpt>
      <trkpt lat="46.90676" lon="-1.25198">
        <ele>52.86</ele>
        <time>2024-03-17T20:18:28.687Z</time>
      </trkpt>
      <trkpt lat="46.90691" lon="-1.25191">
        <ele>53.1</ele>
        <time>2024-03-17T20:18:37.790Z</time>
      </trkpt>
      <trkpt lat="46.907" lon="-1.25182">
        <ele>53.3</ele>
        <time>2024-03-17T20:18:46.895Z</time>
      </trkpt>
      <trkpt lat="46.90707" lon="-1.2517">
        <ele>53.46</ele>
        <time>2024-03-17T20:18:56.002Z</time>
      </trkpt>
      <trkpt lat="46.90724" lon="-1.25134">
        <ele>53.64</ele>
        <time>2024-03-17T20:19:05.115Z</time>
      </trkpt>
      <trkpt lat="46.90726" lon="-1.2512">
        <ele>53.66</ele>
        <time>2024-03-17T20:19:14.230Z</time>
      </trkpt>
      <trkpt lat="46.90727" lon="-1.25085">
        <ele>53.71</ele>
        <time>2024-03-17T20:19:23.350Z</time>
      </trkpt>
      <trkpt lat="46.90859" lon="-1.2531">
        <ele>53.72</ele>
        <time>2024-03-17T20:19:32.511Z</time>
      </trkpt>
      <trkpt lat="46.90832" lon="-1.25383">
        <ele>53.35</ele>
        <time>2024-03-17T20:19:41.683Z</time>
      </trkpt>
      <trkpt lat="46.90822" lon="-1.25415">
        <ele>52.83</ele>
        <time>2024-03-17T20:19:50.860Z</time>
      </trkpt>
      <trkpt lat="46.90818" lon="-1.25447">
        <ele>52.27</ele>
        <time>2024-03-17T20:20:00.041Z</time>
      </trkpt>
      <trkpt lat="46.90817" lon="-1.25476">
        <ele>51.62</ele>
        <time>2024-03-17T20:20:09.226Z</time>
      </trkpt>
      <trkpt lat="46.90834" lon="-1.25598">
        <ele>50.58</ele>
        <time>2024-03-17T20:20:18.428Z</time>
      </trkpt>
      <trkpt lat="46.90836" lon="-1.25645">
        <ele>49.6</ele>
        <time>2024-03-17T20:20:27.637Z</time>
      </trkpt>
      <trkpt lat="46.90834" lon="-1.25667">
        <ele>48.6</ele>
        <time>2024-03-17T20:20:36.849Z</time>
      </trkpt>
      <trkpt lat="46.90827" lon="-1.25692">
        <ele>47.51</ele>
        <time>2024-03-17T20:20:46.065Z</time>
      </trkpt>
      <trkpt lat="46.90814" lon="-1.25724">
        <ele>46.27</ele>
        <time>2024-03-17T20:20:55.286Z</time>
      </trkpt>
      <trkpt lat="46.90807" lon="-1.2575">
        <ele>45.08</ele>
        <time>2024-03-17T20:21:04.511Z</time>
      </trkpt>
      <trkpt lat="46.90804" lon="-1.25787">
        <ele>44.01</ele>
        <time>2024-03-17T20:21:13.741Z</time>
      </trkpt>
      <trkpt lat="46.90803" lon="-1.25845">
        <ele>43.01</ele>
        <time>2024-03-17T20:21:22.979Z</time>
      </trkpt>
      <trkpt lat="46.90797" lon="-1.25883">
        <ele>42.08</ele>
        <time>2024-03-17T20:21:32.222Z</time>
      </trkpt>
      <trkpt lat="46.90787" lon="-1.25876">
        <ele>41.2</ele>
        <time>2024-03-17T20:21:41.467Z</time>
      </trkpt>
      <trkpt lat="46.90772" lon="-1.25859">
        <ele>40.35</ele>
        <time>2024-03-17T20:21:50.716Z</time>
      </trkpt>
      <trkpt lat="46.90696" lon="-1.25785">
        <ele>39.48</ele>
        <time>2024-03-17T20:21:59.983Z</time>
      </trkpt>
      <trkpt lat="46.90689" lon="-1.2578">
        <ele>38.99</ele>
        <time>2024-03-17T20:22:09.252Z</time>
      </trkpt>
      <trkpt lat="46.90661" lon="-1.25774">
        <ele>38.65</ele>
        <time>2024-03-17T20:22:18.526Z</time>
      </trkpt>
      <trkpt lat="46.90615" lon="-1.2576">
        <ele>38.36</ele>
        <time>2024-03-17T20:22:27.810Z</time>
      </trkpt>
      <trkpt lat="46.90462" lon="-1.25711">
        <ele>38.45</ele>
        <time>2024-03-17T20:22:37.125Z</time>
      </trkpt>
      <trkpt lat="46.9045" lon="-1.25711">
        <ele>38.64</ele>
        <time>2024-03-17T20:22:46.442Z</time>
      </trkpt>
      <trkpt lat="46.90445" lon="-1.25715">
        <ele>38.96</ele>
        <time>2024-03-17T20:22:55.760Z</time>
      </trkpt>
      <trkpt lat="46.9045" lon="-1.25735">
        <ele>39.41</ele>
        <time>2024-03-17T20:23:05.081Z</time>
      </trkpt>
      <trkpt lat="46.90457" lon="-1.25754">
        <ele>40.07</ele>
        <time>2024-03-17T20:23:14.405Z</time>
      </trkpt>
      <trkpt lat="46.90466" lon="-1.2581">
        <ele>40.88</ele>
        <time>2024-03-17T20:23:23.737Z</time>
      </trkpt>
      <trkpt lat="46.90506" lon="-1.26162">
        <ele>41.83</ele>
        <time>2024-03-17T20:23:33.118Z</time>
      </trkpt>
      <trkpt lat="46.90489" lon="-1.26192">
        <ele>43.2</ele>
        <time>2024-03-17T20:23:42.505Z</time>
      </trkpt>
      <trkpt lat="46.90475" lon="-1.2623">
        <ele>44.84</ele>
        <time>2024-03-17T20:23:51.898Z</time>
      </trkpt>
      <trkpt lat="46.90473" lon="-1.26236">
        <ele>46.39</ele>
        <time>2024-03-17T20:24:01.291Z</time>
      </trkpt>
      <trkpt lat="46.90463" lon="-1.2625">
        <ele>48.18</ele>
        <time>2024-03-17T20:24:10.687Z</time>
      </trkpt>
      <trkpt lat="46.9045" lon="-1.26257">
        <ele>50.04</ele>
        <time>2024-03-17T20:24:20.086Z</time>
      </trkpt>
      <trkpt lat="46.90438" lon="-1.26256">
        <ele>51.93</ele>
        <time>2024-03-17T20:24:29.487Z</time>
      </trkpt>
      <trkpt lat="46.90433" lon="-1.26242">
        <ele>53.8</ele>
        <time>2024-03-17T20:24:38.891Z</time>
      </trkpt>
      <trkpt lat="46.90372" lon="-1.26123">
        <ele>56.18</ele>
        <time>2024-03-17T20:24:48.315Z</time>
      </trkpt>
      <trkpt lat="46.9036" lon="-1.2611">
        <ele>58.15</ele>
        <time>2024-03-17T20:24:57.742Z</time>
      </trkpt>
      <trkpt lat="46.90337" lon="-1.26073">
        <ele>60.2</ele>
        <time>2024-03-17T20:25:07.176Z</time>
      </trkpt>
      <trkpt lat="46.90322" lon="-1.26055">
        <ele>61.99</ele>
        <time>2024-03-17T20:25:16.614Z</time>
      </trkpt>
      <trkpt lat="46.90317" lon="-1.26042">
        <ele>63.64</ele>
        <time>2024-03-17T20:25:26.054Z</time>
      </trkpt>
      <trkpt lat="46.9031" lon="-1.26016">
        <ele>65.14</ele>
        <time>2024-03-17T20:25:35.498Z</time>
      </trkpt>
      <trkpt lat="46.90296" lon="-1.26013">
        <ele>66.59</ele>
        <time>2024-03-17T20:25:44.944Z</time>
      </trkpt>
      <trkpt lat="46.90292" lon="-1.26021">
        <ele>67.88</ele>
        <time>2024-03-17T20:25:54.392Z</time>
      </trkpt>
      <trkpt lat="46.90288" lon="-1.26027">
        <ele>69.03</ele>
        <time>2024-03-17T20:26:03.841Z</time>
      </trkpt>
      <trkpt lat="46.90285" lon="-1.26036">
        <ele>70.04</ele>
        <time>2024-03-17T20:26:13.291Z</time>
      </trkpt>
      <trkpt lat="46.90265" lon="-1.26059">
        <ele>70.91</ele>
        <time>2024-03-17T20:26:22.746Z</time>
      </trkpt>
      <trkpt lat="46.90264" lon="-1.26073">
        <ele>71.59</ele>
        <time>2024-03-17T20:26:32.203Z</time>
      </trkpt>
      <trkpt lat="46.90268" lon="-1.26085">
        <ele>72.09</ele>
        <time>2024-03-17T20:26:41.662Z</time>
      </trkpt>
      <trkpt lat="46.90283" lon="-1.26103">
        <ele>72.43</ele>
        <time>2024-03-17T20:26:51.125Z</time>
      </trkpt>
      <trkpt lat="46.90269" lon="-1.26134">
        <ele>72.46</ele>
        <time>2024-03-17T20:27:00.593Z</time>
      </trkpt>
      <trkpt lat="46.90256" lon="-1.26105">
        <ele>72.45</ele>
        <time>2024-03-17T20:27:10.066Z</time>
      </trkpt>
      <trkpt lat="46.90272" lon="-1.26091">
        <ele>72.28</ele>
        <time>2024-03-17T20:27:19.542Z</time>
      </trkpt>
      <trkpt lat="46.90288" lon="-1.26108">
        <ele>71.93</ele>
        <time>2024-03-17T20:27:29.023Z</time>
      </trkpt>
      <trkpt lat="46.903" lon="-1.2611">
        <ele>71.34</ele>
        <time>2024-03-17T20:27:38.506Z</time>
      </trkpt>
      <trkpt lat="46.9032" lon="-1.26132">
        <ele>70.56</ele>
        <time>2024-03-17T20:27:47.994Z</time>
      </trkpt>
      <trkpt lat="46.90324" lon="-1.26143">
        <ele>69.68</ele>
        <time>2024-03-17T20:27:57.484Z</time>
      </trkpt>
      <trkpt lat="46.90318" lon="-1.26175">
        <ele>68.68</ele>
        <time>2024-03-17T20:28:06.978Z</time>
      </trkpt>
      <trkpt lat="46.9032" lon="-1.26196">
        <ele>67.54</ele>
        <time>2024-03-17T20:28:16.475Z</time>
      </trkpt>
      <trkpt lat="46.9032" lon="-1.26219">
        <ele>66.31</ele>
        <time>2024-03-17T20:28:25.975Z</time>
      </trkpt>
      <trkpt lat="46.90313" lon="-1.26252">
        <ele>64.92</ele>
        <time>2024-03-17T20:28:35.480Z</time>
      </trkpt>
      <trkpt lat="46.90316" lon="-1.26272">
        <ele>63.5</ele>
        <time>2024-03-17T20:28:44.988Z</time>
      </trkpt>
      <trkpt lat="46.90326" lon="-1.26279">
        <ele>62.07</ele>
        <time>2024-03-17T20:28:54.498Z</time>
      </trkpt>
      <trkpt lat="46.90362" lon="-1.26285">
        <ele>60.52</ele>
        <time>2024-03-17T20:29:04.015Z</time>
      </trkpt>
      <trkpt lat="46.90374" lon="-1.26292">
        <ele>59.03</ele>
        <time>2024-03-17T20:29:13.535Z</time>
      </trkpt>
      <trkpt lat="46.90411" lon="-1.26288">
        <ele>57.39</ele>
        <time>2024-03-17T20:29:23.062Z</time>
      </trkpt>
      <trkpt lat="46.90427" lon="-1.26309">
        <ele>55.91</ele>
        <time>2024-03-17T20:29:32.594Z</time>
      </trkpt>
      <trkpt lat="46.90442" lon="-1.26333">
        <ele>54.47</ele>
        <time>2024-03-17T20:29:42.130Z</time>
      </trkpt>
      <trkpt lat="46.90455" lon="-1.26359">
        <ele>53.12</ele>
        <time>2024-03-17T20:29:51.671Z</time>
      </trkpt>
      <trkpt lat="46.90464" lon="-1.26366">
        <ele>51.75</ele>
        <time>2024-03-17T20:30:01.214Z</time>
      </trkpt>
      <trkpt lat="46.90476" lon="-1.26366">
        <ele>50.44</ele>
        <time>2024-03-17T20:30:10.759Z</time>
      </trkpt>
      <trkpt lat="46.90501" lon="-1.26375">
        <ele>49.12</ele>
        <time>2024-03-17T20:30:20.309Z</time>
      </trkpt>
      <trkpt lat="46.90521" lon="-1.26398">
        <ele>47.88</ele>
        <time>2024-03-17T20:30:29.864Z</time>
      </trkpt>
      <trkpt lat="46.9053" lon="-1.26416">
        <ele>46.89</ele>
        <time>2024-03-17T20:30:39.422Z</time>
      </trkpt>
      <trkpt lat="46.90545" lon="-1.26472">
        <ele>45.97</ele>
        <time>2024-03-17T20:30:48.989Z</time>
      </trkpt>
      <trkpt lat="46.90542" lon="-1.2652">
        <ele>44.93</ele>
        <time>2024-03-17T20:30:58.562Z</time>
      </trkpt>
      <trkpt lat="46.90565" lon="-1.26522">
        <ele>44.29</ele>
        <time>2024-03-17T20:31:08.140Z</time>
      </trkpt>
      <trkpt lat="46.906" lon="-1.26551">
        <ele>43.63</ele>
        <time>2024-03-17T20:31:17.726Z</time>
      </trkpt>
      <trkpt lat="46.9062" lon="-1.26621">
        <ele>42.9</ele>
        <time>2024-03-17T20:31:27.322Z</time>
      </trkpt>
      <trkpt lat="46.90626" lon="-1.26631">
        <ele>42.47</ele>
        <time>2024-03-17T20:31:36.920Z</time>
      </trkpt>
      <trkpt lat="46.90634" lon="-1.26636">
        <ele>42.21</ele>
        <time>2024-03-17T20:31:46.520Z</time>
      </trkpt>
      <trkpt lat="46.90628" lon="-1.26641">
        <ele>42.05</ele>
        <time>2024-03-17T20:31:56.121Z</time>
      </trkpt>
      <trkpt lat="46.90603" lon="-1.26661">
        <ele>41.95</ele>
        <time>2024-03-17T20:32:05.728Z</time>
      </trkpt>
      <trkpt lat="46.90644" lon="-1.26696">
        <ele>42.03</ele>
        <time>2024-03-17T20:32:15.344Z</time>
      </trkpt>
      <trkpt lat="46.90668" lon="-1.26714">
        <ele>42.38</ele>
        <time>2024-03-17T20:32:24.966Z</time>
      </trkpt>
      <trkpt lat="46.90696" lon="-1.26728">
        <ele>42.79</ele>
        <time>2024-03-17T20:32:34.594Z</time>
      </trkpt>
      <trkpt lat="46.90724" lon="-1.26737">
        <ele>43.29</ele>
        <time>2024-03-17T20:32:44.227Z</time>
      </trkpt>
      <trkpt lat="46.90749" lon="-1.26741">
        <ele>43.87</ele>
        <time>2024-03-17T20:32:53.865Z</time>
      </trkpt>
      <trkpt lat="46.90767" lon="-1.2674">
        <ele>44.49</ele>
        <time>2024-03-17T20:33:03.507Z</time>
      </trkpt>
      <trkpt lat="46.90803" lon="-1.26721">
        <ele>45.18</ele>
        <time>2024-03-17T20:33:13.157Z</time>
      </trkpt>
      <trkpt lat="46.90822" lon="-1.26714">
        <ele>45.79</ele>
        <time>2024-03-17T20:33:22.811Z</time>
      </trkpt>
      <trkpt lat="46.90851" lon="-1.26711">
        <ele>46.38</ele>
        <time>2024-03-17T20:33:32.470Z</time>
      </trkpt>
      <trkpt lat="46.90871" lon="-1.26711">
        <ele>47</ele>
        <time>2024-03-17T20:33:42.133Z</time>
      </trkpt>
      <trkpt lat="46.90936" lon="-1.26721">
        <ele>47.76</ele>
        <time>2024-03-17T20:33:51.809Z</time>
      </trkpt>
      <trkpt lat="46.9097" lon="-1.26717">
        <ele>48.33</ele>
        <time>2024-03-17T20:34:01.492Z</time>
      </trkpt>
      <trkpt lat="46.91043" lon="-1.26704">
        <ele>48.75</ele>
        <time>2024-03-17T20:34:11.190Z</time>
      </trkpt>
      <trkpt lat="46.91106" lon="-1.26687">
        <ele>49.09</ele>
        <time>2024-03-17T20:34:20.901Z</time>
      </trkpt>
      <trkpt lat="46.91187" lon="-1.26659">
        <ele>49.58</ele>
        <time>2024-03-17T20:34:30.628Z</time>
      </trkpt>
      <trkpt lat="46.91203" lon="-1.26651">
        <ele>50.07</ele>
        <time>2024-03-17T20:34:40.359Z</time>
      </trkpt>
      <trkpt lat="46.9123" lon="-1.26619">
        <ele>50.56</ele>
        <time>2024-03-17T20:34:50.097Z</time>
      </trkpt>
      <trkpt lat="46.9127" lon="-1.26593">
        <ele>51.07</ele>
        <time>2024-03-17T20:34:59.844Z</time>
      </trkpt>
      <trkpt lat="46.91296" lon="-1.26572">
        <ele>51.42</ele>
        <time>2024-03-17T20:35:09.597Z</time>
      </trkpt>
      <trkpt lat="46.91314" lon="-1.26566">
        <ele>51.71</ele>
        <time>2024-03-17T20:35:19.353Z</time>
      </trkpt>
      <trkpt lat="46.91333" lon="-1.26563">
        <ele>51.9</ele>
        <time>2024-03-17T20:35:29.113Z</time>
      </trkpt>
      <trkpt lat="46.91359" lon="-1.26565">
        <ele>52.02</ele>
        <time>2024-03-17T20:35:38.878Z</time>
      </trkpt>
      <trkpt lat="46.91459" lon="-1.26597">
        <ele>52</ele>
        <time>2024-03-17T20:35:48.664Z</time>
      </trkpt>
      <trkpt lat="46.91503" lon="-1.26598">
        <ele>51.84</ele>
        <time>2024-03-17T20:35:58.459Z</time>
      </trkpt>
      <trkpt lat="46.91542" lon="-1.26596">
        <ele>51.65</ele>
        <time>2024-03-17T20:36:08.261Z</time>
      </trkpt>
      <trkpt lat="46.9158" lon="-1.266">
        <ele>51.37</ele>
        <time>2024-03-17T20:36:18.071Z</time>
      </trkpt>
      <trkpt lat="46.91581" lon="-1.26589">
        <ele>51</ele>
        <time>2024-03-17T20:36:27.883Z</time>
      </trkpt>
      <trkpt lat="46.91576" lon="-1.26558">
        <ele>50.56</ele>
        <time>2024-03-17T20:36:37.699Z</time>
      </trkpt>
      <trkpt lat="46.91541" lon="-1.26397">
        <ele>49.66</ele>
        <time>2024-03-17T20:36:47.538Z</time>
      </trkpt>
      <trkpt lat="46.91509" lon="-1.2625">
        <ele>49.03</ele>
        <time>2024-03-17T20:36:57.398Z</time>
      </trkpt>
      <trkpt lat="46.91518" lon="-1.26224">
        <ele>48.68</ele>
        <time>2024-03-17T20:37:07.262Z</time>
      </trkpt>
      <trkpt lat="46.91561" lon="-1.26109">
        <ele>47.93</ele>
        <time>2024-03-17T20:37:17.144Z</time>
      </trkpt>
      <trkpt lat="46.91606" lon="-1.2599">
        <ele>47.55</ele>
        <time>2024-03-17T20:37:27.045Z</time>
      </trkpt>
      <trkpt lat="46.91623" lon="-1.25939">
        <ele>47.56</ele>
        <time>2024-03-17T20:37:36.954Z</time>
      </trkpt>
      <trkpt lat="46.91756" lon="-1.25998">
        <ele>47.71</ele>
        <time>2024-03-17T20:37:46.890Z</time>
      </trkpt>
      <trkpt lat="46.91858" lon="-1.26054">
        <ele>47.9</ele>
        <time>2024-03-17T20:37:56.848Z</time>
      </trkpt>
      <trkpt lat="46.91916" lon="-1.26108">
        <ele>47.66</ele>
        <time>2024-03-17T20:38:06.820Z</time>
      </trkpt>
      <trkpt lat="46.9202" lon="-1.26242">
        <ele>47.67</ele>
        <time>2024-03-17T20:38:16.820Z</time>
      </trkpt>
      <trkpt lat="46.92069" lon="-1.263">
        <ele>47.96</ele>
        <time>2024-03-17T20:38:26.832Z</time>
      </trkpt>
      <trkpt lat="46.92087" lon="-1.26335">
        <ele>48.15</ele>
        <time>2024-03-17T20:38:36.850Z</time>
      </trkpt>
      <trkpt lat="46.9211" lon="-1.26344">
        <ele>48.56</ele>
        <time>2024-03-17T20:38:46.873Z</time>
      </trkpt>
      <trkpt lat="46.9217" lon="-1.26421">
        <ele>48.9</ele>
        <time>2024-03-17T20:38:56.912Z</time>
      </trkpt>
      <trkpt lat="46.9219" lon="-1.26504">
        <ele>49.16</ele>
        <time>2024-03-17T20:39:06.963Z</time>
      </trkpt>
      <trkpt lat="46.92488" lon="-1.26774">
        <ele>50.74</ele>
        <time>2024-03-17T20:39:17.084Z</time>
      </trkpt>
      <trkpt lat="46.92606" lon="-1.26909">
        <ele>51.22</ele>
        <time>2024-03-17T20:39:27.235Z</time>
      </trkpt>
      <trkpt lat="46.92608" lon="-1.26918">
        <ele>51.59</ele>
        <time>2024-03-17T20:39:37.388Z</time>
      </trkpt>
      <trkpt lat="46.92608" lon="-1.26926">
        <ele>51.88</ele>
        <time>2024-03-17T20:39:47.542Z</time>
      </trkpt>
      <trkpt lat="46.92611" lon="-1.26927">
        <ele>52.1</ele>
        <time>2024-03-17T20:39:57.696Z</time>
      </trkpt>
      <trkpt lat="46.92604" lon="-1.26926">
        <ele>52.21</ele>
        <time>2024-03-17T20:40:07.852Z</time>
      </trkpt>
      <trkpt lat="46.926" lon="-1.26929">
        <ele>52.24</ele>
        <time>2024-03-17T20:40:18.009Z</time>
      </trkpt>
      <trkpt lat="46.9255" lon="-1.27024">
        <ele>52.23</ele>
        <time>2024-03-17T20:40:28.182Z</time>
      </trkpt>
      <trkpt lat="46.92527" lon="-1.27072">
        <ele>52.02</ele>
        <time>2024-03-17T20:40:38.363Z</time>
      </trkpt>
      <trkpt lat="46.9252" lon="-1.27099">
        <ele>51.79</ele>
        <time>2024-03-17T20:40:48.548Z</time>
      </trkpt>
      <trkpt lat="46.92494" lon="-1.27245">
        <ele>51.46</ele>
        <time>2024-03-17T20:40:58.754Z</time>
      </trkpt>
      <trkpt lat="46.9249" lon="-1.27255">
        <ele>51.11</ele>
        <time>2024-03-17T20:41:08.961Z</time>
      </trkpt>
      <trkpt lat="46.92483" lon="-1.27263">
        <ele>50.72</ele>
        <time>2024-03-17T20:41:19.170Z</time>
      </trkpt>
      <trkpt lat="46.9247" lon="-1.27272">
        <ele>50.28</ele>
        <time>2024-03-17T20:41:29.382Z</time>
      </trkpt>
      <trkpt lat="46.9234" lon="-1.27329">
        <ele>48.91</ele>
        <time>2024-03-17T20:41:39.621Z</time>
      </trkpt>
      <trkpt lat="46.92308" lon="-1.27337">
        <ele>48.41</ele>
        <time>2024-03-17T20:41:49.867Z</time>
      </trkpt>
      <trkpt lat="46.92273" lon="-1.27343">
        <ele>48.17</ele>
        <time>2024-03-17T20:42:00.120Z</time>
      </trkpt>
      <trkpt lat="46.92256" lon="-1.2734">
        <ele>48.05</ele>
        <time>2024-03-17T20:42:10.376Z</time>
      </trkpt>
      <trkpt lat="46.92242" lon="-1.27334">
        <ele>48.01</ele>
        <time>2024-03-17T20:42:20.635Z</time>
      </trkpt>
      <trkpt lat="46.92232" lon="-1.27323">
        <ele>48.01</ele>
        <time>2024-03-17T20:42:30.897Z</time>
      </trkpt>
      <trkpt lat="46.92223" lon="-1.273">
        <ele>48.09</ele>
        <time>2024-03-17T20:42:41.162Z</time>
      </trkpt>
      <trkpt lat="46.92211" lon="-1.27235">
        <ele>48.19</ele>
        <time>2024-03-17T20:42:51.436Z</time>
      </trkpt>
      <trkpt lat="46.92204" lon="-1.27216">
        <ele>48.33</ele>
        <time>2024-03-17T20:43:01.713Z</time>
      </trkpt>
      <trkpt lat="46.92196" lon="-1.27206">
        <ele>48.54</ele>
        <time>2024-03-17T20:43:11.992Z</time>
      </trkpt>
      <trkpt lat="46.92154" lon="-1.27187">
        <ele>48.86</ele>
        <time>2024-03-17T20:43:22.280Z</time>
      </trkpt>
      <trkpt lat="46.92154" lon="-1.27187">
        <ele>49.12</ele>
        <time>2024-03-17T20:43:32.568Z</time>
      </trkpt>
      <trkpt lat="46.92152" lon="-1.27195">
        <ele>49.45</ele>
        <time>2024-03-17T20:43:42.857Z</time>
      </trkpt>
      <trkpt lat="46.92149" lon="-1.27201">
        <ele>49.81</ele>
        <time>2024-03-17T20:43:53.148Z</time>
      </trkpt>
      <trkpt lat="46.92116" lon="-1.27227">
        <ele>50.31</ele>
        <time>2024-03-17T20:44:03.446Z</time>
      </trkpt>
      <trkpt lat="46.9211" lon="-1.27238">
        <ele>50.74</ele>
        <time>2024-03-17T20:44:13.746Z</time>
      </trkpt>
      <trkpt lat="46.9211" lon="-1.27252">
        <ele>51.17</ele>
        <time>2024-03-17T20:44:24.048Z</time>
      </trkpt>
      <trkpt lat="46.92119" lon="-1.27301">
        <ele>51.66</ele>
        <time>2024-03-17T20:44:34.357Z</time>
      </trkpt>
      <trkpt lat="46.9214" lon="-1.27336">
        <ele>52.06</ele>
        <time>2024-03-17T20:44:44.672Z</time>
      </trkpt>
      <trkpt lat="46.92153" lon="-1.2739">
        <ele>52.44</ele>
        <time>2024-03-17T20:44:54.995Z</time>
      </trkpt>
      <trkpt lat="46.92165" lon="-1.27459">
        <ele>52.72</ele>
        <time>2024-03-17T20:45:05.328Z</time>
      </trkpt>
      <trkpt lat="46.92173" lon="-1.27522">
        <ele>53.02</ele>
        <time>2024-03-17T20:45:15.670Z</time>
      </trkpt>
      <trkpt lat="46.92195" lon="-1.27658">
        <ele>53.27</ele>
        <time>2024-03-17T20:45:26.031Z</time>
      </trkpt>
      <trkpt lat="46.92213" lon="-1.27789">
        <ele>53.66</ele>
        <time>2024-03-17T20:45:36.410Z</time>
      </trkpt>
      <trkpt lat="46.92225" lon="-1.27787">
        <ele>53.81</ele>
        <time>2024-03-17T20:45:46.792Z</time>
      </trkpt>
      <trkpt lat="46.92224" lon="-1.27789">
        <ele>54.01</ele>
        <time>2024-03-17T20:45:57.174Z</time>
      </trkpt>
      <trkpt lat="46.92235" lon="-1.2786">
        <ele>54.31</ele>
        <time>2024-03-17T20:46:07.566Z</time>
      </trkpt>
      <trkpt lat="46.92241" lon="-1.27872">
        <ele>54.4</ele>
        <time>2024-03-17T20:46:17.960Z</time>
      </trkpt>
      <trkpt lat="46.92248" lon="-1.27905">
        <ele>54.47</ele>
        <time>2024-03-17T20:46:28.359Z</time>
      </trkpt>
      <trkpt lat="46.9225" lon="-1.27928">
        <ele>54.48</ele>
        <time>2024-03-17T20:46:38.761Z</time>
      </trkpt>
      <trkpt lat="46.92258" lon="-1.27946">
        <ele>54.46</ele>
        <time>2024-03-17T20:46:49.166Z</time>
      </trkpt>
      <trkpt lat="46.92267" lon="-1.27958">
        <ele>54.4</ele>
        <time>2024-03-17T20:46:59.573Z</time>
      </trkpt>
      <trkpt lat="46.92276" lon="-1.27983">
        <ele>54.39</ele>
        <time>2024-03-17T20:47:09.984Z</time>
      </trkpt>
      <trkpt lat="46.92277" lon="-1.27998">
        <ele>54.45</ele>
        <time>2024-03-17T20:47:20.397Z</time>
      </trkpt>
      <trkpt lat="46.92293" lon="-1.28039">
        <ele>54.4</ele>
        <time>2024-03-17T20:47:30.817Z</time>
      </trkpt>
      <trkpt lat="46.9231" lon="-1.28073">
        <ele>54.26</ele>
        <time>2024-03-17T20:47:41.242Z</time>
      </trkpt>
      <trkpt lat="46.92315" lon="-1.28095">
        <ele>54.24</ele>
        <time>2024-03-17T20:47:51.671Z</time>
      </trkpt>
      <trkpt lat="46.92325" lon="-1.28126">
        <ele>54.16</ele>
        <time>2024-03-17T20:48:02.104Z</time>
      </trkpt>
      <trkpt lat="46.92336" lon="-1.28147">
        <ele>54.15</ele>
        <time>2024-03-17T20:48:12.541Z</time>
      </trkpt>
      <trkpt lat="46.92339" lon="-1.28174">
        <ele>54.2</ele>
        <time>2024-03-17T20:48:22.982Z</time>
      </trkpt>
      <trkpt lat="46.92336" lon="-1.28182">
        <ele>54.18</ele>
        <time>2024-03-17T20:48:33.424Z</time>
      </trkpt>
      <trkpt lat="46.92338" lon="-1.28194">
        <ele>54.15</ele>
        <time>2024-03-17T20:48:43.868Z</time>
      </trkpt>
      <trkpt lat="46.92347" lon="-1.28203">
        <ele>54.06</ele>
        <time>2024-03-17T20:48:54.314Z</time>
      </trkpt>
      <trkpt lat="46.92359" lon="-1.28224">
        <ele>53.89</ele>
        <time>2024-03-17T20:49:04.764Z</time>
      </trkpt>
      <trkpt lat="46.92371" lon="-1.2825">
        <ele>53.84</ele>
        <time>2024-03-17T20:49:15.218Z</time>
      </trkpt>
      <trkpt lat="46.92376" lon="-1.28268">
        <ele>53.61</ele>
        <time>2024-03-17T20:49:25.675Z</time>
      </trkpt>
      <trkpt lat="46.92371" lon="-1.28277">
        <ele>53.49</ele>
        <time>2024-03-17T20:49:36.133Z</time>
      </trkpt>
      <trkpt lat="46.92383" lon="-1.28312">
        <ele>53.21</ele>
        <time>2024-03-17T20:49:46.596Z</time>
      </trkpt>
      <trkpt lat="46.92363" lon="-1.28286">
        <ele>53.01</ele>
        <time>2024-03-17T20:49:57.065Z</time>
      </trkpt>
      <trkpt lat="46.92317" lon="-1.28346">
        <ele>53.03</ele>
        <time>2024-03-17T20:50:07.546Z</time>
      </trkpt>
      <trkpt lat="46.92289" lon="-1.28368">
        <ele>52.67</ele>
        <time>2024-03-17T20:50:18.033Z</time>
      </trkpt>
      <trkpt lat="46.92325" lon="-1.28435">
        <ele>52</ele>
        <time>2024-03-17T20:50:28.532Z</time>
      </trkpt>
      <trkpt lat="46.92334" lon="-1.28422">
        <ele>51.44</ele>
        <time>2024-03-17T20:50:39.033Z</time>
      </trkpt>
      <trkpt lat="46.92322" lon="-1.28398">
        <ele>50.85</ele>
        <time>2024-03-17T20:50:49.538Z</time>
      </trkpt>
      <trkpt lat="46.92322" lon="-1.2838">
        <ele>50.12</ele>
        <time>2024-03-17T20:51:00.046Z</time>
      </trkpt>
      <trkpt lat="46.92359" lon="-1.28381">
        <ele>49.25</ele>
        <time>2024-03-17T20:51:10.561Z</time>
      </trkpt>
      <trkpt lat="46.9238" lon="-1.28406">
        <ele>48.32</ele>
        <time>2024-03-17T20:51:21.082Z</time>
      </trkpt>
      <trkpt lat="46.92402" lon="-1.28465">
        <ele>47.08</ele>
        <time>2024-03-17T20:51:31.612Z</time>
      </trkpt>
      <trkpt lat="46.92401" lon="-1.28363">
        <ele>46.27</ele>
        <time>2024-03-17T20:51:42.156Z</time>
      </trkpt>
      <trkpt lat="46.92422" lon="-1.28398">
        <ele>45.12</ele>
        <time>2024-03-17T20:51:52.706Z</time>
      </trkpt>
      <trkpt lat="46.9244" lon="-1.28421">
        <ele>44.04</ele>
        <time>2024-03-17T20:52:03.261Z</time>
      </trkpt>
      <trkpt lat="46.92454" lon="-1.28434">
        <ele>43.05</ele>
        <time>2024-03-17T20:52:13.820Z</time>
      </trkpt>
      <trkpt lat="46.92521" lon="-1.28481">
        <ele>41.96</ele>
        <time>2024-03-17T20:52:24.393Z</time>
      </trkpt>
      <trkpt lat="46.92539" lon="-1.28497">
        <ele>41.22</ele>
        <time>2024-03-17T20:52:34.971Z</time>
      </trkpt>
      <trkpt lat="46.92558" lon="-1.28518">
        <ele>40.59</ele>
        <time>2024-03-17T20:52:45.553Z</time>
      </trkpt>
      <trkpt lat="46.9259" lon="-1.2856">
        <ele>40.08</ele>
        <time>2024-03-17T20:52:56.144Z</time>
      </trkpt>
      <trkpt lat="46.92604" lon="-1.28574">
        <ele>39.71</ele>
        <time>2024-03-17T20:53:06.738Z</time>
      </trkpt>
      <trkpt lat="46.92713" lon="-1.28666">
        <ele>39.42</ele>
        <time>2024-03-17T20:53:17.358Z</time>
      </trkpt>
      <trkpt lat="46.92735" lon="-1.28683">
        <ele>39.19</ele>
        <time>2024-03-17T20:53:27.983Z</time>
      </trkpt>
      <trkpt lat="46.92765" lon="-1.28699">
        <ele>39.18</ele>
        <time>2024-03-17T20:53:38.614Z</time>
      </trkpt>
      <trkpt lat="46.92768" lon="-1.28687">
        <ele>39.26</ele>
        <time>2024-03-17T20:53:49.247Z</time>
      </trkpt>
      <trkpt lat="46.92768" lon="-1.28687">
        <ele>39.27</ele>
        <time>2024-03-17T20:53:59.880Z</time>
      </trkpt>
      <trkpt lat="46.92912" lon="-1.2842">
        <ele>39.59</ele>
        <time>2024-03-17T20:54:10.559Z</time>
      </trkpt>
      <trkpt lat="46.92925" lon="-1.28404">
        <ele>39.96</ele>
        <time>2024-03-17T20:54:21.242Z</time>
      </trkpt>
      <trkpt lat="46.9294" lon="-1.28395">
        <ele>40.37</ele>
        <time>2024-03-17T20:54:31.928Z</time>
      </trkpt>
      <trkpt lat="46.93123" lon="-1.28325">
        <ele>41.16</ele>
        <time>2024-03-17T20:54:42.652Z</time>
      </trkpt>
      <trkpt lat="46.93135" lon="-1.28319">
        <ele>41.72</ele>
        <time>2024-03-17T20:54:53.379Z</time>
      </trkpt>
      <trkpt lat="46.9317" lon="-1.28285">
        <ele>42.35</ele>
        <time>2024-03-17T20:55:04.114Z</time>
      </trkpt>
      <trkpt lat="46.93205" lon="-1.2824">
        <ele>43.06</ele>
        <time>2024-03-17T20:55:14.858Z</time>
      </trkpt>
      <trkpt lat="46.9321" lon="-1.2823">
        <ele>43.67</ele>
        <time>2024-03-17T20:55:25.604Z</time>
      </trkpt>
      <trkpt lat="46.93212" lon="-1.28217">
        <ele>44.26</ele>
        <time>2024-03-17T20:55:36.352Z</time>
      </trkpt>
      <trkpt lat="46.93228" lon="-1.28214">
        <ele>44.73</ele>
        <time>2024-03-17T20:55:47.103Z</time>
      </trkpt>
      <trkpt lat="46.9324" lon="-1.28204">
        <ele>45.19</ele>
        <time>2024-03-17T20:55:57.857Z</time>
      </trkpt>
      <trkpt lat="46.93258" lon="-1.28195">
        <ele>45.59</ele>
        <time>2024-03-17T20:56:08.615Z</time>
      </trkpt>
      <trkpt lat="46.93286" lon="-1.28216">
        <ele>45.75</ele>
        <time>2024-03-17T20:56:19.379Z</time>
      </trkpt>
      <trkpt lat="46.93306" lon="-1.28219">
        <ele>46</ele>
        <time>2024-03-17T20:56:30.147Z</time>
      </trkpt>
      <trkpt lat="46.93334" lon="-1.2822">
        <ele>46.16</ele>
        <time>2024-03-17T20:56:40.921Z</time>
      </trkpt>
      <trkpt lat="46.9334" lon="-1.2823">
        <ele>46.17</ele>
        <time>2024-03-17T20:56:51.696Z</time>
      </trkpt>
      <trkpt lat="46.93315" lon="-1.28228">
        <ele>46.14</ele>
        <time>2024-03-17T20:57:02.476Z</time>
      </trkpt>
      <trkpt lat="46.93333" lon="-1.28241">
        <ele>45.99</ele>
        <time>2024-03-17T20:57:13.260Z</time>
      </trkpt>
      <trkpt lat="46.93316" lon="-1.28238">
        <ele>45.79</ele>
        <time>2024-03-17T20:57:24.048Z</time>
      </trkpt>
      <trkpt lat="46.93334" lon="-1.28253">
        <ele>45.47</ele>
        <time>2024-03-17T20:57:34.840Z</time>
      </trkpt>
      <trkpt lat="46.93327" lon="-1.28265">
        <ele>45</ele>
        <time>2024-03-17T20:57:45.634Z</time>
      </trkpt>
      <trkpt lat="46.93289" lon="-1.28263">
        <ele>44.55</ele>
        <time>2024-03-17T20:57:56.436Z</time>
      </trkpt>
      <trkpt lat="46.93283" lon="-1.28221">
        <ele>44.54</ele>
        <time>2024-03-17T20:58:07.244Z</time>
      </trkpt>
      <trkpt lat="46.93346" lon="-1.28224">
        <ele>44.1</ele>
        <time>2024-03-17T20:58:18.065Z</time>
      </trkpt>
      <trkpt lat="46.93366" lon="-1.2823">
        <ele>43.54</ele>
        <time>2024-03-17T20:58:28.890Z</time>
      </trkpt>
      <trkpt lat="46.93388" lon="-1.28253">
        <ele>42.84</ele>
        <time>2024-03-17T20:58:39.720Z</time>
      </trkpt>
      <trkpt lat="46.93451" lon="-1.28408">
        <ele>41.9</ele>
        <time>2024-03-17T20:58:50.575Z</time>
      </trkpt>
      <trkpt lat="46.93478" lon="-1.28506">
        <ele>41.11</ele>
        <time>2024-03-17T20:59:01.444Z</time>
      </trkpt>
      <trkpt lat="46.93502" lon="-1.28605">
        <ele>40.35</ele>
        <time>2024-03-17T20:59:12.328Z</time>
      </trkpt>
      <trkpt lat="46.93502" lon="-1.28621">
        <ele>39.56</ele>
        <time>2024-03-17T20:59:23.214Z</time>
      </trkpt>
      <trkpt lat="46.93497" lon="-1.28626">
        <ele>38.76</ele>
        <time>2024-03-17T20:59:34.101Z</time>
      </trkpt>
      <trkpt lat="46.93487" lon="-1.2862">
        <ele>37.97</ele>
        <time>2024-03-17T20:59:44.990Z</time>
      </trkpt>
      <trkpt lat="46.93466" lon="-1.2863">
        <ele>37.13</ele>
        <time>2024-03-17T20:59:55.884Z</time>
      </trkpt>
      <trkpt lat="46.93465" lon="-1.28641">
        <ele>36.43</ele>
        <time>2024-03-17T21:00:06.779Z</time>
      </trkpt>
      <trkpt lat="46.93473" lon="-1.28661">
        <ele>35.79</ele>
        <time>2024-03-17T21:00:17.677Z</time>
      </trkpt>
      <trkpt lat="46.93474" lon="-1.2867">
        <ele>35.2</ele>
        <time>2024-03-17T21:00:28.576Z</time>
      </trkpt>
      <trkpt lat="46.93478" lon="-1.28688">
        <ele>34.61</ele>
        <time>2024-03-17T21:00:39.478Z</time>
      </trkpt>
      <trkpt lat="46.93482" lon="-1.2872">
        <ele>34.11</ele>
        <time>2024-03-17T21:00:50.384Z</time>
      </trkpt>
      <trkpt lat="46.93473" lon="-1.28772">
        <ele>33.69</ele>
        <time>2024-03-17T21:01:01.298Z</time>
      </trkpt>
      <trkpt lat="46.93471" lon="-1.28806">
        <ele>33.4</ele>
        <time>2024-03-17T21:01:12.216Z</time>
      </trkpt>
      <trkpt lat="46.93486" lon="-1.28845">
        <ele>33.25</ele>
        <time>2024-03-17T21:01:23.141Z</time>
      </trkpt>
      <trkpt lat="46.93502" lon="-1.28868">
        <ele>33.18</ele>
        <time>2024-03-17T21:01:34.070Z</time>
      </trkpt>
      <trkpt lat="46.93511" lon="-1.28886">
        <ele>33.14</ele>
        <time>2024-03-17T21:01:45.002Z</time>
      </trkpt>
      <trkpt lat="46.93517" lon="-1.28913">
        <ele>33.14</ele>
        <time>2024-03-17T21:01:55.938Z</time>
      </trkpt>
      <trkpt lat="46.93487" lon="-1.28994">
        <ele>33.32</ele>
        <time>2024-03-17T21:02:06.887Z</time>
      </trkpt>
      <trkpt lat="46.93487" lon="-1.29006">
        <ele>33.55</ele>
        <time>2024-03-17T21:02:17.837Z</time>
      </trkpt>
      <trkpt lat="46.93508" lon="-1.29004">
        <ele>33.78</ele>
        <time>2024-03-17T21:02:28.792Z</time>
      </trkpt>
      <trkpt lat="46.93529" lon="-1.29006">
        <ele>34.09</ele>
        <time>2024-03-17T21:02:39.751Z</time>
      </trkpt>
      <trkpt lat="46.93594" lon="-1.28996">
        <ele>34.66</ele>
        <time>2024-03-17T21:02:50.723Z</time>
      </trkpt>
      <trkpt lat="46.93592" lon="-1.29026">
        <ele>35.08</ele>
        <time>2024-03-17T21:03:01.699Z</time>
      </trkpt>
      <trkpt lat="46.9358" lon="-1.2905">
        <ele>35.55</ele>
        <time>2024-03-17T21:03:12.679Z</time>
      </trkpt>
      <trkpt lat="46.9358" lon="-1.29014">
        <ele>36.18</ele>
        <time>2024-03-17T21:03:23.664Z</time>
      </trkpt>
      <trkpt lat="46.93537" lon="-1.29011">
        <ele>36.74</ele>
        <time>2024-03-17T21:03:34.658Z</time>
      </trkpt>
      <trkpt lat="46.93461" lon="-1.29014">
        <ele>37.68</ele>
        <time>2024-03-17T21:03:45.667Z</time>
      </trkpt>
      <trkpt lat="46.93434" lon="-1.29001">
        <ele>38.49</ele>
        <time>2024-03-17T21:03:56.682Z</time>
      </trkpt>
      <trkpt lat="46.93426" lon="-1.29">
        <ele>39.18</ele>
        <time>2024-03-17T21:04:07.698Z</time>
      </trkpt>
      <trkpt lat="46.93409" lon="-1.29008">
        <ele>39.9</ele>
        <time>2024-03-17T21:04:18.718Z</time>
      </trkpt>
      <trkpt lat="46.93346" lon="-1.29086">
        <ele>40.77</ele>
        <time>2024-03-17T21:04:29.754Z</time>
      </trkpt>
      <trkpt lat="46.93343" lon="-1.29093">
        <ele>41.31</ele>
        <time>2024-03-17T21:04:40.791Z</time>
      </trkpt>
      <trkpt lat="46.93342" lon="-1.29103">
        <ele>41.79</ele>
        <time>2024-03-17T21:04:51.830Z</time>
      </trkpt>
      <trkpt lat="46.93345" lon="-1.29104">
        <ele>42.22</ele>
        <time>2024-03-17T21:05:02.869Z</time>
      </trkpt>
      <trkpt lat="46.93335" lon="-1.29104">
        <ele>42.58</ele>
        <time>2024-03-17T21:05:13.910Z</time>
      </trkpt>
      <trkpt lat="46.93286" lon="-1.29144">
        <ele>42.86</ele>
        <time>2024-03-17T21:05:24.963Z</time>
      </trkpt>
      <trkpt lat="46.93275" lon="-1.29154">
        <ele>43.08</ele>
        <time>2024-03-17T21:05:36.018Z</time>
      </trkpt>
      <trkpt lat="46.93255" lon="-1.29182">
        <ele>43.17</ele>
        <time>2024-03-17T21:05:47.079Z</time>
      </trkpt>
      <trkpt lat="46.93245" lon="-1.292">
        <ele>43.23</ele>
        <time>2024-03-17T21:05:58.143Z</time>
      </trkpt>
      <trkpt lat="46.93225" lon="-1.29255">
        <ele>43.14</ele>
        <time>2024-03-17T21:06:09.215Z</time>
      </trkpt>
      <trkpt lat="46.93209" lon="-1.29292">
        <ele>43.13</ele>
        <time>2024-03-17T21:06:20.293Z</time>
      </trkpt>
      <trkpt lat="46.93125" lon="-1.29433">
        <ele>43.12</ele>
        <time>2024-03-17T21:06:31.397Z</time>
      </trkpt>
      <trkpt lat="46.93102" lon="-1.29487">
        <ele>42.91</ele>
        <time>2024-03-17T21:06:42.510Z</time>
      </trkpt>
      <trkpt lat="46.93098" lon="-1.29491">
        <ele>42.74</ele>
        <time>2024-03-17T21:06:53.624Z</time>
      </trkpt>
      <trkpt lat="46.93102" lon="-1.29487">
        <ele>42.91</ele>
        <time>2024-03-17T21:07:04.738Z</time>
      </trkpt>
      <trkpt lat="46.93114" lon="-1.29518">
        <ele>42.2</ele>
        <time>2024-03-17T21:07:15.857Z</time>
      </trkpt>
      <trkpt lat="46.93126" lon="-1.29522">
        <ele>41.92</ele>
        <time>2024-03-17T21:07:26.979Z</time>
      </trkpt>
      <trkpt lat="46.93143" lon="-1.29541">
        <ele>41.63</ele>
        <time>2024-03-17T21:07:38.105Z</time>
      </trkpt>
      <trkpt lat="46.93163" lon="-1.29543">
        <ele>41.35</ele>
        <time>2024-03-17T21:07:49.235Z</time>
      </trkpt>
      <trkpt lat="46.93181" lon="-1.29548">
        <ele>41.07</ele>
        <time>2024-03-17T21:08:00.369Z</time>
      </trkpt>
      <trkpt lat="46.93208" lon="-1.29562">
        <ele>40.67</ele>
        <time>2024-03-17T21:08:11.508Z</time>
      </trkpt>
      <trkpt lat="46.93221" lon="-1.29566">
        <ele>40.37</ele>
        <time>2024-03-17T21:08:22.650Z</time>
      </trkpt>
      <trkpt lat="46.93228" lon="-1.29576">
        <ele>40.14</ele>
        <time>2024-03-17T21:08:33.794Z</time>
      </trkpt>
      <trkpt lat="46.93231" lon="-1.29586">
        <ele>39.96</ele>
        <time>2024-03-17T21:08:44.940Z</time>
      </trkpt>
      <trkpt lat="46.93231" lon="-1.29593">
        <ele>39.85</ele>
        <time>2024-03-17T21:08:56.086Z</time>
      </trkpt>
      <trkpt lat="46.93227" lon="-1.296">
        <ele>39.79</ele>
        <time>2024-03-17T21:09:07.234Z</time>
      </trkpt>
      <trkpt lat="46.93236" lon="-1.29632">
        <ele>39.78</ele>
        <time>2024-03-17T21:09:18.387Z</time>
      </trkpt>
      <trkpt lat="46.93239" lon="-1.29658">
        <ele>39.9</ele>
        <time>2024-03-17T21:09:29.543Z</time>
      </trkpt>
      <trkpt lat="46.93238" lon="-1.29663">
        <ele>39.96</ele>
        <time>2024-03-17T21:09:40.700Z</time>
      </trkpt>
      <trkpt lat="46.93233" lon="-1.2966">
        <ele>39.98</ele>
        <time>2024-03-17T21:09:51.858Z</time>
      </trkpt>
      <trkpt lat="46.93231" lon="-1.2975">
        <ele>40.26</ele>
        <time>2024-03-17T21:10:03.028Z</time>
      </trkpt>
      <trkpt lat="46.93223" lon="-1.29833">
        <ele>40.42</ele>
        <time>2024-03-17T21:10:14.210Z</time>
      </trkpt>
      <trkpt lat="46.93204" lon="-1.29912">
        <ele>40.76</ele>
        <time>2024-03-17T21:10:25.403Z</time>
      </trkpt>
      <trkpt lat="46.93195" lon="-1.29928">
        <ele>40.79</ele>
        <time>2024-03-17T21:10:36.599Z</time>
      </trkpt>
      <trkpt lat="46.93185" lon="-1.29946">
        <ele>40.77</ele>
        <time>2024-03-17T21:10:47.798Z</time>
      </trkpt>
      <trkpt lat="46.93184" lon="-1.30043">
        <ele>40.71</ele>
        <time>2024-03-17T21:10:59.011Z</time>
      </trkpt>
      <trkpt lat="46.93505" lon="-1.30042">
        <ele>40.75</ele>
        <time>2024-03-17T21:11:10.288Z</time>
      </trkpt>
      <trkpt lat="46.93529" lon="-1.30038">
        <ele>40.59</ele>
        <time>2024-03-17T21:11:21.570Z</time>
      </trkpt>
      <trkpt lat="46.9355" lon="-1.30025">
        <ele>40.36</ele>
        <time>2024-03-17T21:11:32.856Z</time>
      </trkpt>
      <trkpt lat="46.93572" lon="-1.2937">
        <ele>39.5</ele>
        <time>2024-03-17T21:11:44.232Z</time>
      </trkpt>
      <trkpt lat="46.93574" lon="-1.29196">
        <ele>38.64</ele>
        <time>2024-03-17T21:11:55.632Z</time>
      </trkpt>
      <trkpt lat="46.93591" lon="-1.29193">
        <ele>38.38</ele>
        <time>2024-03-17T21:12:07.035Z</time>
      </trkpt>
      <trkpt lat="46.9361" lon="-1.29195">
        <ele>38.13</ele>
        <time>2024-03-17T21:12:18.442Z</time>
      </trkpt>
      <trkpt lat="46.93613" lon="-1.29198">
        <ele>37.86</ele>
        <time>2024-03-17T21:12:29.850Z</time>
      </trkpt>
      <trkpt lat="46.93617" lon="-1.29209">
        <ele>37.65</ele>
        <time>2024-03-17T21:12:41.260Z</time>
      </trkpt>
      <trkpt lat="46.93616" lon="-1.29228">
        <ele>37.45</ele>
        <time>2024-03-17T21:12:52.672Z</time>
      </trkpt>
      <trkpt lat="46.93607" lon="-1.29297">
        <ele>37.33</ele>
        <time>2024-03-17T21:13:04.094Z</time>
      </trkpt>
      <trkpt lat="46.93606" lon="-1.29323">
        <ele>37.26</ele>
        <time>2024-03-17T21:13:15.519Z</time>
      </trkpt>
      <trkpt lat="46.93606" lon="-1.29367">
        <ele>37.28</ele>
        <time>2024-03-17T21:13:26.951Z</time>
      </trkpt>
      <trkpt lat="46.93611" lon="-1.29389">
        <ele>37.26</ele>
        <time>2024-03-17T21:13:38.386Z</time>
      </trkpt>
      <trkpt lat="46.93613" lon="-1.29392">
        <ele>37.21</ele>
        <time>2024-03-17T21:13:49.821Z</time>
      </trkpt>
      <trkpt lat="46.93636" lon="-1.29404">
        <ele>37.2</ele>
        <time>2024-03-17T21:14:01.261Z</time>
      </trkpt>
      <trkpt lat="46.93654" lon="-1.29389">
        <ele>37.08</ele>
        <time>2024-03-17T21:14:12.705Z</time>
      </trkpt>
      <trkpt lat="46.93669" lon="-1.2939">
        <ele>37.05</ele>
        <time>2024-03-17T21:14:24.152Z</time>
      </trkpt>
      <trkpt lat="46.93652" lon="-1.29349">
        <ele>37.07</ele>
        <time>2024-03-17T21:14:35.606Z</time>
      </trkpt>
      <trkpt lat="46.93615" lon="-1.29307">
        <ele>37.3</ele>
        <time>2024-03-17T21:14:47.069Z</time>
      </trkpt>
      <trkpt lat="46.93615" lon="-1.29284">
        <ele>37.48</ele>
        <time>2024-03-17T21:14:58.535Z</time>
      </trkpt>
      <trkpt lat="46.93625" lon="-1.29257">
        <ele>37.75</ele>
        <time>2024-03-17T21:15:10.005Z</time>
      </trkpt>
      <trkpt lat="46.93615" lon="-1.29235">
        <ele>38.1</ele>
        <time>2024-03-17T21:15:21.479Z</time>
      </trkpt>
      <trkpt lat="46.93607" lon="-1.29297">
        <ele>37.33</ele>
        <time>2024-03-17T21:15:32.962Z</time>
      </trkpt>
      <trkpt lat="46.93606" lon="-1.29323">
        <ele>37.26</ele>
        <time>2024-03-17T21:15:44.448Z</time>
      </trkpt>
      <trkpt lat="46.93606" lon="-1.29367">
        <ele>37.28</ele>
        <time>2024-03-17T21:15:55.940Z</time>
      </trkpt>
      <trkpt lat="46.93611" lon="-1.29389">
        <ele>37.26</ele>
        <time>2024-03-17T21:16:07.435Z</time>
      </trkpt>
      <trkpt lat="46.93615" lon="-1.29394">
        <ele>41.09</ele>
        <time>2024-03-17T21:16:18.931Z</time>
      </trkpt>
      <trkpt lat="46.93645" lon="-1.29408">
        <ele>41.71</ele>
        <time>2024-03-17T21:16:30.434Z</time>
      </trkpt>
      <trkpt lat="46.93653" lon="-1.29412">
        <ele>42.34</ele>
        <time>2024-03-17T21:16:41.938Z</time>
      </trkpt>
      <trkpt lat="46.9369" lon="-1.29452">
        <ele>43.13</ele>
        <time>2024-03-17T21:16:53.452Z</time>
      </trkpt>
      <trkpt lat="46.93704" lon="-1.29472">
        <ele>43.94</ele>
        <time>2024-03-17T21:17:04.970Z</time>
      </trkpt>
      <trkpt lat="46.93708" lon="-1.29489">
        <ele>44.66</ele>
        <time>2024-03-17T21:17:16.490Z</time>
      </trkpt>
      <trkpt lat="46.93711" lon="-1.29517">
        <ele>45.37</ele>
        <time>2024-03-17T21:17:28.014Z</time>
      </trkpt>
      <trkpt lat="46.93715" lon="-1.29538">
        <ele>45.99</ele>
        <time>2024-03-17T21:17:39.541Z</time>
      </trkpt>
      <trkpt lat="46.93739" lon="-1.29596">
        <ele>46.47</ele>
        <time>2024-03-17T21:17:51.077Z</time>
      </trkpt>
      <trkpt lat="46.9377" lon="-1.29681">
        <ele>47.02</ele>
        <time>2024-03-17T21:18:02.626Z</time>
      </trkpt>
      <trkpt lat="46.93789" lon="-1.29718">
        <ele>47.57</ele>
        <time>2024-03-17T21:18:14.182Z</time>
      </trkpt>
      <trkpt lat="46.93793" lon="-1.2973">
        <ele>48.05</ele>
        <time>2024-03-17T21:18:25.739Z</time>
      </trkpt>
      <trkpt lat="46.93795" lon="-1.29742">
        <ele>48.49</ele>
        <time>2024-03-17T21:18:37.298Z</time>
      </trkpt>
      <trkpt lat="46.93796" lon="-1.29761">
        <ele>48.92</ele>
        <time>2024-03-17T21:18:48.860Z</time>
      </trkpt>
      <trkpt lat="46.93795" lon="-1.29774">
        <ele>49.31</ele>
        <time>2024-03-17T21:19:00.424Z</time>
      </trkpt>
      <trkpt lat="46.93791" lon="-1.29787">
        <ele>49.66</ele>
        <time>2024-03-17T21:19:11.990Z</time>
      </trkpt>
      <trkpt lat="46.93773" lon="-1.29816">
        <ele>50.01</ele>
        <time>2024-03-17T21:19:23.561Z</time>
      </trkpt>
      <trkpt lat="46.93762" lon="-1.29821">
        <ele>50.2</ele>
        <time>2024-03-17T21:19:35.134Z</time>
      </trkpt>
      <trkpt lat="46.93748" lon="-1.29841">
        <ele>50.3</ele>
        <time>2024-03-17T21:19:46.711Z</time>
      </trkpt>
      <trkpt lat="46.93744" lon="-1.29849">
        <ele>50.27</ele>
        <time>2024-03-17T21:19:58.290Z</time>
      </trkpt>
      <trkpt lat="46.93742" lon="-1.29861">
        <ele>50.13</ele>
        <time>2024-03-17T21:20:09.870Z</time>
      </trkpt>
      <trkpt lat="46.93743" lon="-1.29873">
        <ele>49.9</ele>
        <time>2024-03-17T21:20:21.452Z</time>
      </trkpt>
      <trkpt lat="46.93749" lon="-1.29901">
        <ele>49.58</ele>
        <time>2024-03-17T21:20:33.038Z</time>
      </trkpt>
      <trkpt lat="46.93788" lon="-1.29999">
        <ele>49.02</ele>
        <time>2024-03-17T21:20:44.639Z</time>
      </trkpt>
      <trkpt lat="46.93791" lon="-1.30022">
        <ele>48.47</ele>
        <time>2024-03-17T21:20:56.244Z</time>
      </trkpt>
      <trkpt lat="46.93798" lon="-1.30024">
        <ele>47.87</ele>
        <time>2024-03-17T21:21:07.850Z</time>
      </trkpt>
      <trkpt lat="46.93819" lon="-1.30038">
        <ele>47.11</ele>
        <time>2024-03-17T21:21:19.461Z</time>
      </trkpt>
      <trkpt lat="46.93826" lon="-1.3004">
        <ele>46.41</ele>
        <time>2024-03-17T21:21:31.073Z</time>
      </trkpt>
      <trkpt lat="46.93834" lon="-1.30039">
        <ele>45.66</ele>
        <time>2024-03-17T21:21:42.687Z</time>
      </trkpt>
      <trkpt lat="46.93841" lon="-1.30034">
        <ele>44.88</ele>
        <time>2024-03-17T21:21:54.302Z</time>
      </trkpt>
      <trkpt lat="46.93873" lon="-1.29984">
        <ele>43.91</ele>
        <time>2024-03-17T21:22:05.927Z</time>
      </trkpt>
      <trkpt lat="46.93892" lon="-1.29951">
        <ele>42.98</ele>
        <time>2024-03-17T21:22:17.558Z</time>
      </trkpt>
      <trkpt lat="46.93902" lon="-1.29953">
        <ele>42.14</ele>
        <time>2024-03-17T21:22:29.191Z</time>
      </trkpt>
      <trkpt lat="46.93955" lon="-1.29999">
        <ele>41.38</ele>
        <time>2024-03-17T21:22:40.836Z</time>
      </trkpt>
      <trkpt lat="46.93964" lon="-1.30004">
        <ele>40.7</ele>
        <time>2024-03-17T21:22:52.483Z</time>
      </trkpt>
      <trkpt lat="46.93975" lon="-1.30004">
        <ele>40.01</ele>
        <time>2024-03-17T21:23:04.132Z</time>
      </trkpt>
      <trkpt lat="46.94011" lon="-1.29981">
        <ele>39.21</ele>
        <time>2024-03-17T21:23:15.789Z</time>
      </trkpt>
      <trkpt lat="46.94046" lon="-1.29955">
        <ele>38.49</ele>
        <time>2024-03-17T21:23:27.454Z</time>
      </trkpt>
      <trkpt lat="46.9407" lon="-1.29931">
        <ele>37.81</ele>
        <time>2024-03-17T21:23:39.125Z</time>
      </trkpt>
      <trkpt lat="46.94104" lon="-1.29899">
        <ele>37.21</ele>
        <time>2024-03-17T21:23:50.804Z</time>
      </trkpt>
      <trkpt lat="46.94118" lon="-1.29899">
        <ele>36.74</ele>
        <time>2024-03-17T21:24:02.485Z</time>
      </trkpt>
      <trkpt lat="46.94118" lon="-1.29915">
        <ele>36.31</ele>
        <time>2024-03-17T21:24:14.169Z</time>
      </trkpt>
      <trkpt lat="46.94129" lon="-1.29911">
        <ele>35.86</ele>
        <time>2024-03-17T21:24:25.855Z</time>
      </trkpt>
      <trkpt lat="46.94219" lon="-1.29799">
        <ele>35.19</ele>
        <time>2024-03-17T21:24:37.564Z</time>
      </trkpt>
      <trkpt lat="46.94228" lon="-1.29771">
        <ele>34.71</ele>
        <time>2024-03-17T21:24:49.278Z</time>
      </trkpt>
      <trkpt lat="46.94206" lon="-1.29775">
        <ele>34.27</ele>
        <time>2024-03-17T21:25:00.996Z</time>
      </trkpt>
      <trkpt lat="46.94298" lon="-1.29638">
        <ele>33.88</ele>
        <time>2024-03-17T21:25:12.741Z</time>
      </trkpt>
      <trkpt lat="46.94297" lon="-1.29637">
        <ele>33.64</ele>
        <time>2024-03-17T21:25:24.486Z</time>
      </trkpt>
      <trkpt lat="46.94396" lon="-1.29491">
        <ele>33.2</ele>
        <time>2024-03-17T21:25:36.259Z</time>
      </trkpt>
      <trkpt lat="46.94411" lon="-1.29475">
        <ele>33.11</ele>
        <time>2024-03-17T21:25:48.036Z</time>
      </trkpt>
      <trkpt lat="46.94422" lon="-1.2947">
        <ele>33.09</ele>
        <time>2024-03-17T21:25:59.815Z</time>
      </trkpt>
      <trkpt lat="46.94428" lon="-1.29471">
        <ele>33.13</ele>
        <time>2024-03-17T21:26:11.595Z</time>
      </trkpt>
      <trkpt lat="46.94439" lon="-1.29476">
        <ele>33.24</ele>
        <time>2024-03-17T21:26:23.378Z</time>
      </trkpt>
      <trkpt lat="46.94464" lon="-1.2951">
        <ele>33.47</ele>
        <time>2024-03-17T21:26:35.167Z</time>
      </trkpt>
      <trkpt lat="46.94509" lon="-1.29579">
        <ele>33.67</ele>
        <time>2024-03-17T21:26:46.970Z</time>
      </trkpt>
      <trkpt lat="46.94527" lon="-1.29611">
        <ele>33.86</ele>
        <time>2024-03-17T21:26:58.778Z</time>
      </trkpt>
      <trkpt lat="46.94537" lon="-1.29653">
        <ele>34.12</ele>
        <time>2024-03-17T21:27:10.592Z</time>
      </trkpt>
      <trkpt lat="46.94543" lon="-1.29752">
        <ele>34.42</ele>
        <time>2024-03-17T21:27:22.420Z</time>
      </trkpt>
      <trkpt lat="46.94546" lon="-1.29773">
        <ele>34.68</ele>
        <time>2024-03-17T21:27:34.251Z</time>
      </trkpt>
      <trkpt lat="46.94551" lon="-1.29828">
        <ele>34.97</ele>
        <time>2024-03-17T21:27:46.089Z</time>
      </trkpt>
      <trkpt lat="46.94552" lon="-1.29849">
        <ele>35.17</ele>
        <time>2024-03-17T21:27:57.930Z</time>
      </trkpt>
      <trkpt lat="46.94548" lon="-1.29898">
        <ele>35.35</ele>
        <time>2024-03-17T21:28:09.778Z</time>
      </trkpt>
      <trkpt lat="46.94532" lon="-1.29977">
        <ele>35.69</ele>
        <time>2024-03-17T21:28:21.637Z</time>
      </trkpt>
      <trkpt lat="46.94528" lon="-1.30028">
        <ele>35.86</ele>
        <time>2024-03-17T21:28:33.503Z</time>
      </trkpt>
      <trkpt lat="46.94536" lon="-1.30093">
        <ele>35.92</ele>
        <time>2024-03-17T21:28:45.378Z</time>
      </trkpt>
      <trkpt lat="46.94539" lon="-1.30104">
        <ele>35.9</ele>
        <time>2024-03-17T21:28:57.255Z</time>
      </trkpt>
      <trkpt lat="46.94543" lon="-1.30115">
        <ele>35.8</ele>
        <time>2024-03-17T21:29:09.134Z</time>
      </trkpt>
      <trkpt lat="46.94551" lon="-1.30124">
        <ele>35.62</ele>
        <time>2024-03-17T21:29:21.015Z</time>
      </trkpt>
      <trkpt lat="46.94572" lon="-1.3014">
        <ele>35.38</ele>
        <time>2024-03-17T21:29:32.901Z</time>
      </trkpt>
      <trkpt lat="46.94612" lon="-1.3016">
        <ele>35.02</ele>
        <time>2024-03-17T21:29:44.795Z</time>
      </trkpt>
      <trkpt lat="46.9463" lon="-1.30172">
        <ele>34.72</ele>
        <time>2024-03-17T21:29:56.693Z</time>
      </trkpt>
      <trkpt lat="46.94659" lon="-1.30204">
        <ele>34.33</ele>
        <time>2024-03-17T21:30:08.598Z</time>
      </trkpt>
      <trkpt lat="46.94687" lon="-1.30223">
        <ele>34</ele>
        <time>2024-03-17T21:30:20.509Z</time>
      </trkpt>
      <trkpt lat="46.94696" lon="-1.30237">
        <ele>33.78</ele>
        <time>2024-03-17T21:30:32.423Z</time>
      </trkpt>
      <trkpt lat="46.94707" lon="-1.30237">
        <ele>33.55</ele>
        <time>2024-03-17T21:30:44.339Z</time>
      </trkpt>
      <trkpt lat="46.94751" lon="-1.30257">
        <ele>33.36</ele>
        <time>2024-03-17T21:30:56.264Z</time>
      </trkpt>
      <trkpt lat="46.94837" lon="-1.30306">
        <ele>33.06</ele>
        <time>2024-03-17T21:31:08.208Z</time>
      </trkpt>
      <trkpt lat="46.94919" lon="-1.30344">
        <ele>32.93</ele>
        <time>2024-03-17T21:31:20.169Z</time>
      </trkpt>
      <trkpt lat="46.94946" lon="-1.30364">
        <ele>32.88</ele>
        <time>2024-03-17T21:31:32.136Z</time>
      </trkpt>
      <trkpt lat="46.94985" lon="-1.30404">
        <ele>32.72</ele>
        <time>2024-03-17T21:31:44.113Z</time>
      </trkpt>
      <trkpt lat="46.95007" lon="-1.30433">
        <ele>32.67</ele>
        <time>2024-03-17T21:31:56.096Z</time>
      </trkpt>
      <trkpt lat="46.95043" lon="-1.30469">
        <ele>32.74</ele>
        <time>2024-03-17T21:32:08.087Z</time>
      </trkpt>
      <trkpt lat="46.95054" lon="-1.30486">
        <ele>32.89</ele>
        <time>2024-03-17T21:32:20.081Z</time>
      </trkpt>
      <trkpt lat="46.95064" lon="-1.30519">
        <ele>33.1</ele>
        <time>2024-03-17T21:32:32.080Z</time>
      </trkpt>
      <trkpt lat="46.95074" lon="-1.30534">
        <ele>33.34</ele>
        <time>2024-03-17T21:32:44.082Z</time>
      </trkpt>
      <trkpt lat="46.95092" lon="-1.30542">
        <ele>33.64</ele>
        <time>2024-03-17T21:32:56.088Z</time>
      </trkpt>
      <trkpt lat="46.95105" lon="-1.3056">
        <ele>34</ele>
        <time>2024-03-17T21:33:08.098Z</time>
      </trkpt>
      <trkpt lat="46.95121" lon="-1.30586">
        <ele>34.36</ele>
        <time>2024-03-17T21:33:20.112Z</time>
      </trkpt>
      <trkpt lat="46.9516" lon="-1.30662">
        <ele>34.74</ele>
        <time>2024-03-17T21:33:32.139Z</time>
      </trkpt>
      <trkpt lat="46.95179" lon="-1.30709">
        <ele>35.36</ele>
        <time>2024-03-17T21:33:44.174Z</time>
      </trkpt>
      <trkpt lat="46.95202" lon="-1.30739">
        <ele>35.88</ele>
        <time>2024-03-17T21:33:56.215Z</time>
      </trkpt>
      <trkpt lat="46.95199" lon="-1.30744">
        <ele>36.31</ele>
        <time>2024-03-17T21:34:08.257Z</time>
      </trkpt>
      <trkpt lat="46.95217" lon="-1.30799">
        <ele>36.83</ele>
        <time>2024-03-17T21:34:20.307Z</time>
      </trkpt>
      <trkpt lat="46.95333" lon="-1.30897">
        <ele>36.98</ele>
        <time>2024-03-17T21:34:32.384Z</time>
      </trkpt>
      <trkpt lat="46.95369" lon="-1.30921">
        <ele>37.19</ele>
        <time>2024-03-17T21:34:44.469Z</time>
      </trkpt>
      <trkpt lat="46.95393" lon="-1.30949">
        <ele>37.46</ele>
        <time>2024-03-17T21:34:56.560Z</time>
      </trkpt>
      <trkpt lat="46.95419" lon="-1.30987">
        <ele>37.87</ele>
        <time>2024-03-17T21:35:08.658Z</time>
      </trkpt>
      <trkpt lat="46.9545" lon="-1.31041">
        <ele>38.02</ele>
        <time>2024-03-17T21:35:20.766Z</time>
      </trkpt>
      <trkpt lat="46.95483" lon="-1.31073">
        <ele>38.05</ele>
        <time>2024-03-17T21:35:32.882Z</time>
      </trkpt>
      <trkpt lat="46.95502" lon="-1.31085">
        <ele>38</ele>
        <time>2024-03-17T21:35:45.002Z</time>
      </trkpt>
      <trkpt lat="46.95515" lon="-1.31089">
        <ele>37.88</ele>
        <time>2024-03-17T21:35:57.125Z</time>
      </trkpt>
      <trkpt lat="46.95521" lon="-1.31085">
        <ele>37.69</ele>
        <time>2024-03-17T21:36:09.249Z</time>
      </trkpt>
      <trkpt lat="46.95533" lon="-1.3107">
        <ele>37.4</ele>
        <time>2024-03-17T21:36:21.376Z</time>
      </trkpt>
      <trkpt lat="46.95538" lon="-1.31067">
        <ele>37.12</ele>
        <time>2024-03-17T21:36:33.504Z</time>
      </trkpt>
      <trkpt lat="46.95545" lon="-1.31067">
        <ele>36.79</ele>
        <time>2024-03-17T21:36:45.634Z</time>
      </trkpt>
      <trkpt lat="46.95575" lon="-1.31082">
        <ele>36.37</ele>
        <time>2024-03-17T21:36:57.770Z</time>
      </trkpt>
      <trkpt lat="46.95597" lon="-1.31106">
        <ele>35.93</ele>
        <time>2024-03-17T21:37:09.912Z</time>
      </trkpt>
      <trkpt lat="46.95604" lon="-1.31095">
        <ele>35.54</ele>
        <time>2024-03-17T21:37:22.056Z</time>
      </trkpt>
      <trkpt lat="46.9561" lon="-1.31089">
        <ele>35.14</ele>
        <time>2024-03-17T21:37:34.201Z</time>
      </trkpt>
      <trkpt lat="46.95616" lon="-1.31074">
        <ele>34.75</ele>
        <time>2024-03-17T21:37:46.349Z</time>
      </trkpt>
      <trkpt lat="46.95619" lon="-1.31059">
        <ele>34.39</ele>
        <time>2024-03-17T21:37:58.499Z</time>
      </trkpt>
      <trkpt lat="46.95652" lon="-1.31066">
        <ele>33.91</ele>
        <time>2024-03-17T21:38:10.655Z</time>
      </trkpt>
      <trkpt lat="46.95733" lon="-1.31109">
        <ele>33.79</ele>
        <time>2024-03-17T21:38:22.829Z</time>
      </trkpt>
      <trkpt lat="46.95755" lon="-1.31117">
        <ele>33.55</ele>
        <time>2024-03-17T21:38:35.007Z</time>
      </trkpt>
      <trkpt lat="46.95786" lon="-1.3112">
        <ele>33.3</ele>
        <time>2024-03-17T21:38:47.191Z</time>
      </trkpt>
      <trkpt lat="46.95817" lon="-1.31118">
        <ele>33.05</ele>
        <time>2024-03-17T21:38:59.382Z</time>
      </trkpt>
      <trkpt lat="46.95842" lon="-1.31111">
        <ele>32.8</ele>
        <time>2024-03-17T21:39:11.578Z</time>
      </trkpt>
      <trkpt lat="46.95867" lon="-1.31085">
        <ele>32.51</ele>
        <time>2024-03-17T21:39:23.780Z</time>
      </trkpt>
      <trkpt lat="46.9591" lon="-1.31071">
        <ele>32.23</ele>
        <time>2024-03-17T21:39:35.991Z</time>
      </trkpt>
      <trkpt lat="46.95961" lon="-1.31066">
        <ele>31.97</ele>
        <time>2024-03-17T21:39:48.212Z</time>
      </trkpt>
      <trkpt lat="46.96086" lon="-1.31033">
        <ele>31.67</ele>
        <time>2024-03-17T21:40:00.458Z</time>
      </trkpt>
      <trkpt lat="46.96152" lon="-1.31025">
        <ele>31.67</ele>
        <time>2024-03-17T21:40:12.718Z</time>
      </trkpt>
      <trkpt lat="46.96175" lon="-1.31029">
        <ele>31.65</ele>
        <time>2024-03-17T21:40:24.982Z</time>
      </trkpt>
      <trkpt lat="46.96179" lon="-1.31044">
        <ele>31.69</ele>
        <time>2024-03-17T21:40:37.248Z</time>
      </trkpt>
      <trkpt lat="46.96183" lon="-1.31064">
        <ele>31.76</ele>
        <time>2024-03-17T21:40:49.517Z</time>
      </trkpt>
      <trkpt lat="46.9618" lon="-1.3109">
        <ele>31.85</ele>
        <time>2024-03-17T21:41:01.790Z</time>
      </trkpt>
      <trkpt lat="46.96183" lon="-1.31132">
        <ele>31.96</ele>
        <time>2024-03-17T21:41:14.069Z</time>
      </trkpt>
      <trkpt lat="46.96193" lon="-1.3138">
        <ele>32.52</ele>
        <time>2024-03-17T21:41:26.382Z</time>
      </trkpt>
      <trkpt lat="46.9622" lon="-1.31395">
        <ele>32.42</ele>
        <time>2024-03-17T21:41:38.700Z</time>
      </trkpt>
      <trkpt lat="46.96222" lon="-1.31393">
        <ele>32.32</ele>
        <time>2024-03-17T21:41:51.019Z</time>
      </trkpt>
      <trkpt lat="46.96227" lon="-1.3139">
        <ele>32.18</ele>
        <time>2024-03-17T21:42:03.339Z</time>
      </trkpt>
      <trkpt lat="46.96309" lon="-1.31251">
        <ele>31.59</ele>
        <time>2024-03-17T21:42:15.684Z</time>
      </trkpt>
      <trkpt lat="46.96316" lon="-1.31248">
        <ele>31.49</ele>
        <time>2024-03-17T21:42:28.031Z</time>
      </trkpt>
      <trkpt lat="46.96323" lon="-1.31249">
        <ele>31.41</ele>
        <time>2024-03-17T21:42:40.379Z</time>
      </trkpt>
      <trkpt lat="46.96382" lon="-1.31312">
        <ele>31.46</ele>
        <time>2024-03-17T21:42:52.742Z</time>
      </trkpt>
      <trkpt lat="46.96379" lon="-1.31292">
        <ele>31.37</ele>
        <time>2024-03-17T21:43:05.107Z</time>
      </trkpt>
      <trkpt lat="46.96375" lon="-1.31271">
        <ele>31.3</ele>
        <time>2024-03-17T21:43:17.475Z</time>
      </trkpt>
      <trkpt lat="46.96373" lon="-1.31236">
        <ele>31.2</ele>
        <time>2024-03-17T21:43:29.848Z</time>
      </trkpt>
      <trkpt lat="46.96375" lon="-1.31221">
        <ele>31.18</ele>
        <time>2024-03-17T21:43:42.223Z</time>
      </trkpt>
      <trkpt lat="46.96383" lon="-1.31182">
        <ele>31.19</ele>
        <time>2024-03-17T21:43:54.604Z</time>
      </trkpt>
      <trkpt lat="46.96415" lon="-1.31098">
        <ele>31.2</ele>
        <time>2024-03-17T21:44:06.998Z</time>
      </trkpt>
      <trkpt lat="46.96416" lon="-1.31085">
        <ele>31.42</ele>
        <time>2024-03-17T21:44:19.394Z</time>
      </trkpt>
      <trkpt lat="46.96406" lon="-1.31063">
        <ele>31.71</ele>
        <time>2024-03-17T21:44:31.794Z</time>
      </trkpt>
      <trkpt lat="46.96445" lon="-1.30866">
        <ele>32.3</ele>
        <time>2024-03-17T21:44:44.222Z</time>
      </trkpt>
      <trkpt lat="46.96467" lon="-1.30791">
        <ele>33</ele>
        <time>2024-03-17T21:44:56.661Z</time>
      </trkpt>
      <trkpt lat="46.96451" lon="-1.30784">
        <ele>33.46</ele>
        <time>2024-03-17T21:45:09.103Z</time>
      </trkpt>
      <trkpt lat="46.96444" lon="-1.30782">
        <ele>33.99</ele>
        <time>2024-03-17T21:45:21.546Z</time>
      </trkpt>
      <trkpt lat="46.96445" lon="-1.30774">
        <ele>34.62</ele>
        <time>2024-03-17T21:45:33.990Z</time>
      </trkpt>
      <trkpt lat="46.96444" lon="-1.30768">
        <ele>35.3</ele>
        <time>2024-03-17T21:45:46.435Z</time>
      </trkpt>
      <trkpt lat="46.96436" lon="-1.30755">
        <ele>36.06</ele>
        <time>2024-03-17T21:45:58.883Z</time>
      </trkpt>
      <trkpt lat="46.9643" lon="-1.30734">
        <ele>36.88</ele>
        <time>2024-03-17T21:46:11.334Z</time>
      </trkpt>
      <trkpt lat="46.96421" lon="-1.30725">
        <ele>37.71</ele>
        <time>2024-03-17T21:46:23.787Z</time>
      </trkpt>
      <trkpt lat="46.96425" lon="-1.30704">
        <ele>38.61</ele>
        <time>2024-03-17T21:46:36.243Z</time>
      </trkpt>
      <trkpt lat="46.96424" lon="-1.30698">
        <ele>39.51</ele>
        <time>2024-03-17T21:46:48.700Z</time>
      </trkpt>
      <trkpt lat="46.96414" lon="-1.30699">
        <ele>40.43</ele>
        <time>2024-03-17T21:47:01.159Z</time>
      </trkpt>
      <trkpt lat="46.96385" lon="-1.30696">
        <ele>41.36</ele>
        <time>2024-03-17T21:47:13.624Z</time>
      </trkpt>
      <trkpt lat="46.96177" lon="-1.30645">
        <ele>42.75</ele>
        <time>2024-03-17T21:47:26.131Z</time>
      </trkpt>
      <trkpt lat="46.96169" lon="-1.30638">
        <ele>43.6</ele>
        <time>2024-03-17T21:47:38.640Z</time>
      </trkpt>
      <trkpt lat="46.96161" lon="-1.30621">
        <ele>44.44</ele>
        <time>2024-03-17T21:47:51.151Z</time>
      </trkpt>
      <trkpt lat="46.96153" lon="-1.30617">
        <ele>45.19</ele>
        <time>2024-03-17T21:48:03.664Z</time>
      </trkpt>
      <trkpt lat="46.9615" lon="-1.30629">
        <ele>45.82</ele>
        <time>2024-03-17T21:48:16.179Z</time>
      </trkpt>
      <trkpt lat="46.96144" lon="-1.30631">
        <ele>46.45</ele>
        <time>2024-03-17T21:48:28.695Z</time>
      </trkpt>
      <trkpt lat="46.96141" lon="-1.30634">
        <ele>47.01</ele>
        <time>2024-03-17T21:48:41.212Z</time>
      </trkpt>
      <trkpt lat="46.96139" lon="-1.30642">
        <ele>47.53</ele>
        <time>2024-03-17T21:48:53.730Z</time>
      </trkpt>
      <trkpt lat="46.96108" lon="-1.3064">
        <ele>48.01</ele>
        <time>2024-03-17T21:49:06.254Z</time>
      </trkpt>
      <trkpt lat="46.96047" lon="-1.30627">
        <ele>48.43</ele>
        <time>2024-03-17T21:49:18.791Z</time>
      </trkpt>
      <trkpt lat="46.96054" lon="-1.30707">
        <ele>48.66</ele>
        <time>2024-03-17T21:49:31.339Z</time>
      </trkpt>
      <trkpt lat="46.96051" lon="-1.30656">
        <ele>48.7</ele>
        <time>2024-03-17T21:49:43.894Z</time>
      </trkpt>
      <trkpt lat="46.95938" lon="-1.30735">
        <ele>48.42</ele>
        <time>2024-03-17T21:49:56.474Z</time>
      </trkpt>
      <trkpt lat="46.95817" lon="-1.30795">
        <ele>48.36</ele>
        <time>2024-03-17T21:50:09.079Z</time>
      </trkpt>
      <trkpt lat="46.95779" lon="-1.30797">
        <ele>48.19</ele>
        <time>2024-03-17T21:50:21.692Z</time>
      </trkpt>
      <trkpt lat="46.95699" lon="-1.30767">
        <ele>47.75</ele>
        <time>2024-03-17T21:50:34.322Z</time>
      </trkpt>
      <trkpt lat="46.95699" lon="-1.30791">
        <ele>47.19</ele>
        <time>2024-03-17T21:50:46.955Z</time>
      </trkpt>
      <trkpt lat="46.95689" lon="-1.30838">
        <ele>46.36</ele>
        <time>2024-03-17T21:50:59.595Z</time>
      </trkpt>
      <trkpt lat="46.95681" lon="-1.30846">
        <ele>45.52</ele>
        <time>2024-03-17T21:51:12.237Z</time>
      </trkpt>
      <trkpt lat="46.95673" lon="-1.30855">
        <ele>44.54</ele>
        <time>2024-03-17T21:51:24.881Z</time>
      </trkpt>
      <trkpt lat="46.95672" lon="-1.30869">
        <ele>43.44</ele>
        <time>2024-03-17T21:51:37.527Z</time>
      </trkpt>
      <trkpt lat="46.95688" lon="-1.30874">
        <ele>42.35</ele>
        <time>2024-03-17T21:51:50.176Z</time>
      </trkpt>
      <trkpt lat="46.95687" lon="-1.30897">
        <ele>40.98</ele>
        <time>2024-03-17T21:52:02.828Z</time>
      </trkpt>
      <trkpt lat="46.95681" lon="-1.30917">
        <ele>39.64</ele>
        <time>2024-03-17T21:52:15.483Z</time>
      </trkpt>
      <trkpt lat="46.95686" lon="-1.30932">
        <ele>38.44</ele>
        <time>2024-03-17T21:52:28.140Z</time>
      </trkpt>
      <trkpt lat="46.95675" lon="-1.3094">
        <ele>37.44</ele>
        <time>2024-03-17T21:52:40.800Z</time>
      </trkpt>
      <trkpt lat="46.9567" lon="-1.30955">
        <ele>36.63</ele>
        <time>2024-03-17T21:52:53.462Z</time>
      </trkpt>
      <trkpt lat="46.9566" lon="-1.30955">
        <ele>36.17</ele>
        <time>2024-03-17T21:53:06.126Z</time>
      </trkpt>
      <trkpt lat="46.95647" lon="-1.30957">
        <ele>35.91</ele>
        <time>2024-03-17T21:53:18.793Z</time>
      </trkpt>
      <trkpt lat="46.95634" lon="-1.30952">
        <ele>35.99</ele>
        <time>2024-03-17T21:53:31.462Z</time>
      </trkpt>
      <trkpt lat="46.95628" lon="-1.30937">
        <ele>36.38</ele>
        <time>2024-03-17T21:53:44.134Z</time>
      </trkpt>
      <trkpt lat="46.95639" lon="-1.30924">
        <ele>37.14</ele>
        <time>2024-03-17T21:53:56.808Z</time>
      </trkpt>
      <trkpt lat="46.9566" lon="-1.30903">
        <ele>38.24</ele>
        <time>2024-03-17T21:54:09.488Z</time>
      </trkpt>
      <trkpt lat="46.95668" lon="-1.30871">
        <ele>39.34</ele>
        <time>2024-03-17T21:54:22.172Z</time>
      </trkpt>
      <trkpt lat="46.95671" lon="-1.30846">
        <ele>40</ele>
        <time>2024-03-17T21:54:34.860Z</time>
      </trkpt>
      <trkpt lat="46.95661" lon="-1.30814">
        <ele>40.49</ele>
        <time>2024-03-17T21:54:47.553Z</time>
      </trkpt>
    </trkseg>
  </trk>
</gpx>